[[{"header":{"parameterUnit":"m.s-1","parameterCategory":1,"la1":30.6,"la2":29.2853,"lo1":-89.7004,"lo2":-87.6739,"dy":0.0162,"dx":0.0183,"nx":112,"ny":82,"refTime":"2023-11-09T06:00:00:Z","depth":0,"parameterNumber":2,"parameterNumberName":"U-component_of_WINDS"},"data":[0.0,0.0,0.0,0.0,0.0,0.0,0.0,0.0,0.0,0.0,0.0,0.0,0.0,0.0,0.0,0.0,0.0,0.0,0.0,0.0,0.0,0.0,0.0,0.0,0.0,0.0,0.0,0.0,0.0,0.0,0.0,0.0,0.0,0.0,0.0,0.0,0.0,0.0,0.0,0.0,0.0,0.0,0.0,0.0,0.0,0.0,0.0,0.0,0.0,0.0,0.0,0.0,0.0,0.0,0.0,0.0,0.0,0.0,0.0,0.0,0.0,0.0,0.0,0.0,0.0,0.0,0.0,0.0,0.0,0.0,0.0,0.0,0.0,0.0,0.0,0.0,0.0,0.0,0.0,0.0,0.0,0.0,0.0,0.0,0.0,0.0,0.0,0.0,0.0,0.0,0.0,4.285,4.29,4.2789,4.2392,4.2248,4.2104,4.1877,0.0,0.0,0.0,0.0,0.0,0.0,0.0,0.0,0.0,0.0,0.0,0.0,0.0,0.0,0.0,0.0,0.0,0.0,0.0,0.0,0.0,0.0,0.0,0.0,0.0,0.0,0.0,0.0,0.0,0.0,0.0,0.0,0.0,0.0,0.0,0.0,0.0,0.0,0.0,0.0,0.0,0.0,0.0,0.0,0.0,0.0,0.0,0.0,0.0,0.0,0.0,0.0,0.0,0.0,0.0,0.0,0.0,0.0,0.0,0.0,0.0,0.0,0.0,0.0,0.0,0.0,0.0,0.0,0.0,0.0,0.0,0.0,0.0,0.0,0.0,0.0,0.0,0.0,0.0,0.0,0.0,0.0,0.0,0.0,0.0,0.0,0.0,0.0,0.0,0.0,0.0,0.0,0.0,0.0,0.0,0.0,0.0,0.0,0.0,0.0,0.0,0.0,0.0,0.0,4.2392,4.2257,4.2555,4.2566,4.2195,4.1577,4.1107,4.0817,0.0,0.0,0.0,0.0,0.0,0.0,0.0,0.0,0.0,0.0,0.0,0.0,0.0,0.0,0.0,0.0,0.0,0.0,0.0,0.0,0.0,0.0,0.0,0.0,0.0,0.0,0.0,0.0,0.0,0.0,0.0,0.0,0.0,0.0,0.0,0.0,0.0,0.0,0.0,0.0,0.0,0.0,0.0,0.0,0.0,0.0,0.0,0.0,0.0,0.0,0.0,0.0,0.0,0.0,0.0,0.0,0.0,0.0,0.0,0.0,0.0,0.0,0.0,0.0,0.0,0.0,0.0,0.0,0.0,0.0,0.0,0.0,0.0,0.0,0.0,0.0,0.0,0.0,0.0,0.0,0.0,0.0,0.0,0.0,0.0,0.0,0.0,0.0,0.0,0.0,0.0,0.0,0.0,0.0,0.0,0.0,0.0,0.0,0.0,0.0,0.0,0.0,0.0,4.1423,4.2096,4.136,4.2055,4.2199,4.136,4.1472,4.1296,4.0646,4.013,0.0,0.0,0.0,0.0,0.0,0.0,0.0,0.0,0.0,0.0,0.0,0.0,0.0,0.0,0.0,0.0,0.0,0.0,0.0,0.0,0.0,0.0,0.0,0.0,0.0,0.0,0.0,0.0,0.0,0.0,0.0,0.0,0.0,0.0,0.0,0.0,0.0,0.0,0.0,0.0,0.0,0.0,0.0,0.0,0.0,0.0,0.0,0.0,0.0,0.0,0.0,0.0,0.0,0.0,0.0,0.0,0.0,0.0,0.0,0.0,0.0,0.0,0.0,0.0,0.0,0.0,0.0,0.0,0.0,0.0,0.0,0.0,0.0,0.0,0.0,0.0,0.0,0.0,0.0,0.0,0.0,0.0,0.0,0.0,0.0,0.0,0.0,0.0,0.0,0.0,0.0,0.0,0.0,0.0,0.0,0.0,0.0,0.0,0.0,0.0,0.0,0.0,4.0823,4.1548,4.041,4.1289,4.1527,4.0367,4.076,4.0852,4.0303,3.9161,0.0,0.0,0.0,0.0,0.0,0.0,0.0,0.0,0.0,0.0,0.0,0.0,0.0,0.0,0.0,0.0,0.0,0.0,0.0,0.0,0.0,0.0,0.0,0.0,0.0,0.0,0.0,0.0,0.0,0.0,0.0,0.0,0.0,0.0,0.0,0.0,0.0,0.0,0.0,0.0,0.0,0.0,0.0,0.0,0.0,0.0,0.0,0.0,0.0,0.0,0.0,0.0,0.0,0.0,0.0,0.0,0.0,0.0,0.0,0.0,0.0,0.0,0.0,0.0,0.0,0.0,0.0,0.0,0.0,0.0,0.0,0.0,0.0,0.0,0.0,0.0,0.0,0.0,0.0,0.0,0.0,0.0,0.0,0.0,0.0,0.0,0.0,0.0,0.0,0.0,0.0,0.0,0.0,0.0,0.0,0.0,0.0,0.0,0.0,0.0,0.0,0.0,4.0108,4.0367,3.9409,4.0173,4.0346,3.9387,3.8567,3.8455,3.9254,3.7612,0.0,0.0,0.0,0.0,0.0,0.0,0.0,0.0,0.0,0.0,0.0,0.0,0.0,0.0,0.0,0.0,0.0,0.0,0.0,0.0,0.0,0.0,0.0,0.0,0.0,0.0,0.0,0.0,0.0,0.0,0.0,0.0,0.0,0.0,0.0,0.0,0.0,0.0,0.0,0.0,0.0,0.0,0.0,0.0,0.0,0.0,0.0,0.0,0.0,0.0,0.0,0.0,0.0,0.0,0.0,0.0,0.0,0.0,0.0,0.0,0.0,0.0,0.0,0.0,0.0,0.0,0.0,0.0,0.0,0.0,0.0,0.0,0.0,0.0,0.0,0.0,0.0,0.0,0.0,0.0,0.0,0.0,0.0,0.0,0.0,0.0,0.0,0.0,0.0,0.0,0.0,0.0,0.0,0.0,0.0,0.0,0.0,0.0,0.0,0.0,0.0,0.0,3.8787,3.9387,0.0,3.9166,3.9365,3.8432,3.8541,3.8563,3.8342,0.0,0.0,0.0,0.0,0.0,0.0,0.0,0.0,0.0,0.0,0.0,0.0,0.0,0.0,0.0,0.0,0.0,0.0,0.0,0.0,0.0,0.0,0.0,0.0,0.0,0.0,0.0,0.0,0.0,0.0,0.0,0.0,0.0,0.0,0.0,0.0,0.0,0.0,0.0,0.0,0.0,0.0,0.0,0.0,0.0,0.0,0.0,0.0,0.0,0.0,0.0,0.0,0.0,0.0,0.0,0.0,0.0,0.0,0.0,0.0,0.0,0.0,0.0,0.0,0.0,0.0,0.0,0.0,0.0,0.0,0.0,0.0,0.0,0.0,0.0,0.0,0.0,0.0,0.0,0.0,0.0,0.0,0.0,0.0,0.0,0.0,0.0,0.0,0.0,0.0,0.0,0.0,0.0,0.0,0.0,0.0,0.0,0.0,0.0,0.0,0.0,0.0,3.6728,3.819,3.8918,0.0,3.8711,3.8895,3.7924,3.8277,3.8424,3.8083,0.0,0.0,0.0,0.0,0.0,0.0,0.0,0.0,0.0,0.0,0.0,0.0,0.0,0.0,0.0,0.0,0.0,0.0,0.0,0.0,0.0,0.0,0.0,0.0,0.0,0.0,0.0,0.0,0.0,0.0,0.0,0.0,0.0,0.0,0.0,0.0,0.0,0.0,0.0,0.0,0.0,0.0,0.0,0.0,0.0,0.0,0.0,0.0,0.0,0.0,0.0,0.0,0.0,0.0,0.0,0.0,0.0,0.0,0.0,0.0,0.0,0.0,0.0,0.0,0.0,0.0,0.0,0.0,0.0,0.0,0.0,0.0,0.0,0.0,0.0,0.0,0.0,0.0,0.0,0.0,0.0,0.0,0.0,0.0,0.0,0.0,0.0,0.0,0.0,0.0,0.0,0.0,0.0,0.0,0.0,0.0,0.0,0.0,0.0,0.0,0.0,0.0,3.721,3.8486,3.9038,3.8088,3.882,3.9013,3.8064,3.7513,3.7619,0.0,0.0,0.0,0.0,0.0,0.0,0.0,0.0,0.0,0.0,0.0,0.0,0.0,0.0,0.0,0.0,0.0,0.0,0.0,0.0,0.0,0.0,0.0,0.0,0.0,0.0,0.0,0.0,0.0,0.0,0.0,0.0,0.0,0.0,0.0,0.0,0.0,0.0,0.0,0.0,0.0,0.0,0.0,0.0,0.0,0.0,0.0,0.0,0.0,0.0,0.0,0.0,0.0,0.0,0.0,0.0,0.0,0.0,0.0,0.0,0.0,0.0,0.0,0.0,0.0,0.0,0.0,0.0,0.0,0.0,0.0,0.0,0.0,0.0,0.0,0.0,0.0,0.0,0.0,0.0,0.0,0.0,0.0,0.0,0.0,0.0,0.0,0.0,0.0,0.0,0.0,0.0,0.0,0.0,0.0,0.0,0.0,0.0,0.0,0.0,0.0,0.0,0.0,3.7764,3.8135,3.831,3.8039,3.8261,3.831,3.8039,3.7864,3.7886,3.8154,0.0,0.0,0.0,0.0,0.0,0.0,0.0,0.0,0.0,0.0,0.0,0.0,0.0,0.0,0.0,0.0,0.0,0.0,0.0,0.0,0.0,0.0,0.0,0.0,0.0,0.0,0.0,0.0,0.0,0.0,0.0,0.0,0.0,0.0,0.0,0.0,0.0,0.0,0.0,0.0,0.0,0.0,0.0,0.0,0.0,0.0,0.0,0.0,0.0,0.0,0.0,0.0,0.0,0.0,0.0,0.0,0.0,0.0,0.0,0.0,0.0,0.0,0.0,0.0,0.0,0.0,0.0,0.0,0.0,0.0,0.0,0.0,0.0,0.0,0.0,0.0,0.0,0.0,0.0,0.0,0.0,0.0,0.0,0.0,0.0,0.0,0.0,0.0,0.0,0.0,0.0,0.0,0.0,0.0,0.0,0.0,0.0,0.0,0.0,0.0,0.0,0.0,3.8341,3.8542,3.8693,3.8693,3.8693,3.8693,3.8693,3.8467,3.8341,3.8341,0.0,0.0,0.0,0.0,0.0,0.0,0.0,0.0,0.0,0.0,0.0,0.0,0.0,0.0,0.0,0.0,0.0,0.0,0.0,0.0,0.0,0.0,0.0,0.0,0.0,0.0,0.0,0.0,0.0,0.0,0.0,0.0,0.0,0.0,0.0,0.0,0.0,0.0,0.0,0.0,0.0,0.0,0.0,0.0,0.0,0.0,0.0,0.0,0.0,0.0,0.0,0.0,0.0,0.0,0.0,0.0,0.0,0.0,0.0,0.0,0.0,0.0,0.0,0.0,0.0,0.0,0.0,0.0,0.0,0.0,0.0,0.0,0.0,0.0,0.0,0.0,0.0,0.0,0.0,0.0,0.0,0.0,0.0,0.0,0.0,0.0,0.0,0.0,0.0,0.0,0.0,0.0,0.0,0.0,0.0,0.0,0.0,0.0,0.0,0.0,0.0,0.0,3.8969,3.9396,3.9697,3.9697,3.9697,3.9697,3.9697,3.9245,3.8969,3.8969,0.0,0.0,0.0,0.0,0.0,0.0,0.0,0.0,0.0,0.0,0.0,0.0,0.0,0.0,0.0,0.0,0.0,0.0,0.0,0.0,0.0,0.0,0.0,0.0,0.0,0.0,0.0,0.0,0.0,0.0,0.0,0.0,0.0,0.0,0.0,0.0,0.0,0.0,0.0,0.0,0.0,0.0,0.0,0.0,0.0,0.0,0.0,0.0,0.0,0.0,0.0,0.0,0.0,0.0,0.0,0.0,0.0,0.0,0.0,0.0,3.814,0.0,0.0,0.0,0.0,0.0,0.0,0.0,0.0,0.0,0.0,0.0,0.0,0.0,0.0,0.0,0.0,0.0,0.0,0.0,0.0,0.0,0.0,0.0,0.0,0.0,0.0,0.0,0.0,0.0,0.0,0.0,0.0,0.0,0.0,0.0,0.0,0.0,0.0,0.0,0.0,0.0,3.9521,3.9622,3.9697,3.9697,3.9697,3.9697,3.9697,3.9597,3.9521,3.9521,0.0,0.0,0.0,0.0,0.0,0.0,0.0,0.0,0.0,0.0,0.0,0.0,0.0,0.0,0.0,0.0,0.0,0.0,0.0,0.0,0.0,0.0,0.0,0.0,0.0,0.0,0.0,0.0,0.0,0.0,0.0,0.0,0.0,0.0,0.0,0.0,0.0,0.0,0.0,0.0,0.0,0.0,0.0,0.0,0.0,0.0,0.0,0.0,0.0,0.0,0.0,0.0,0.0,0.0,0.0,0.0,0.0,0.0,0.0,0.0,0.0,3.8165,0.0,0.0,0.0,0.0,0.0,0.0,0.0,0.0,0.0,0.0,0.0,0.0,0.0,0.0,0.0,0.0,0.0,0.0,0.0,0.0,0.0,0.0,0.0,0.0,0.0,0.0,0.0,0.0,0.0,0.0,0.0,0.0,0.0,0.0,0.0,0.0,0.0,0.0,0.0,0.0,3.9697,3.9697,3.9697,3.9697,3.9697,3.9697,3.9697,3.9697,3.9697,3.9697,3.9446,0.0,0.0,0.0,0.0,0.0,0.0,0.0,0.0,0.0,0.0,0.0,0.0,0.0,0.0,0.0,0.0,0.0,0.0,0.0,0.0,0.0,0.0,0.0,0.0,0.0,0.0,0.0,0.0,0.0,0.0,0.0,0.0,0.0,0.0,0.0,0.0,0.0,0.0,0.0,0.0,0.0,0.0,0.0,0.0,0.0,0.0,0.0,0.0,0.0,0.0,0.0,0.0,0.0,3.9697,3.9697,3.9697,3.9697,3.9697,3.9647,3.8693,3.8567,3.8994,0.0,0.0,0.0,0.0,0.0,0.0,0.0,0.0,0.0,0.0,0.0,0.0,0.0,0.0,0.0,0.0,0.0,0.0,0.0,0.0,0.0,0.0,0.0,0.0,0.0,3.9697,3.9697,0.0,0.0,0.0,0.0,0.0,0.0,0.0,0.0,0.0,0.0,0.0,0.0,3.9697,3.9697,3.9697,3.9697,3.9697,3.9697,3.9697,3.9697,3.9697,3.9697,3.9697,3.9697,0.0,0.0,0.0,0.0,0.0,0.0,0.0,0.0,0.0,0.0,0.0,0.0,0.0,0.0,0.0,0.0,0.0,0.0,0.0,0.0,0.0,0.0,0.0,0.0,0.0,0.0,0.0,0.0,0.0,0.0,0.0,0.0,3.7914,3.799,0.0,0.0,0.0,0.0,0.0,0.0,0.0,0.0,0.0,0.0,0.0,0.0,0.0,3.9597,3.9597,3.9647,3.9697,3.9697,3.9697,3.9697,3.9697,3.9697,3.9697,3.9697,3.9546,0.0,3.9572,3.9496,0.0,0.0,0.0,0.0,0.0,0.0,0.0,0.0,0.0,0.0,0.0,0.0,0.0,0.0,0.0,0.0,0.0,0.0,0.0,0.0,0.0,0.0,3.9697,3.9697,3.9697,3.9697,0.0,3.9697,3.9697,3.9697,0.0,0.0,0.0,0.0,0.0,0.0,0.0,0.0,3.9697,3.9697,3.9697,3.9697,3.9697,3.9697,3.9697,3.9697,3.9697,3.9697,3.9697,3.9697,3.9697,3.9697,0.0,0.0,0.0,0.0,0.0,0.0,0.0,0.0,0.0,0.0,0.0,0.0,0.0,0.0,0.0,0.0,0.0,0.0,0.0,0.0,0.0,0.0,0.0,0.0,0.0,0.0,0.0,0.0,0.0,3.8517,3.8642,3.8919,3.8359,3.8206,0.0,0.0,0.0,0.0,0.0,0.0,0.0,0.0,0.0,3.9697,3.9697,3.9697,3.9697,3.9697,3.9697,3.9697,3.9697,3.9697,3.9697,3.9697,3.9697,3.9697,3.9697,3.9697,3.9697,3.9697,3.9697,3.9697,0.0,0.0,0.0,0.0,3.9697,3.9697,3.9697,3.9697,0.0,0.0,0.0,0.0,0.0,0.0,0.0,0.0,0.0,0.0,0.0,0.0,0.0,3.9697,3.9697,3.9697,3.9697,3.9697,3.9697,0.0,3.9697,3.9697,3.9697,0.0,0.0,0.0,0.0,0.0,3.9697,3.9697,3.9697,3.9697,3.9697,3.9697,3.9697,3.9697,3.9697,3.9697,3.9697,3.9697,3.9697,3.9697,3.9697,0.0,0.0,0.0,0.0,0.0,0.0,0.0,0.0,0.0,0.0,0.0,0.0,0.0,0.0,0.0,0.0,0.0,0.0,0.0,0.0,0.0,0.0,0.0,0.0,0.0,0.0,0.0,0.0,3.884,3.8913,3.9621,3.8895,3.8712,0.0,0.0,0.0,0.0,0.0,0.0,3.9697,3.9697,3.9697,3.9697,3.9697,3.9697,3.9697,3.9697,3.9697,3.9697,3.9697,3.9697,3.9697,3.9697,3.9697,3.9697,3.9362,3.9232,3.9258,3.9569,3.9697,3.9671,3.9362,3.9232,3.9206,3.8921,3.8816,3.8816,3.8816,3.8816,3.8816,3.8816,0.0,3.931,3.962,0.0,0.0,0.0,0.0,3.9898,3.9898,3.9998,4.0124,4.0124,4.0124,4.0124,4.0124,4.0124,4.0023,0.0,3.9697,3.9697,3.9697,0.0,0.0,0.0,0.0,3.9697,3.9697,3.9697,3.9697,3.9697,3.9697,3.9697,3.9697,3.9697,3.9697,3.9697,3.9697,3.9697,3.9697,3.9697,3.9697,3.9697,0.0,0.0,0.0,0.0,0.0,0.0,0.0,0.0,0.0,0.0,0.0,0.0,0.0,0.0,0.0,0.0,0.0,0.0,0.0,0.0,0.0,0.0,0.0,0.0,0.0,0.0,0.0,0.0,0.0,3.9543,3.9645,0.0,0.0,0.0,0.0,3.9697,3.9697,3.9697,3.9697,3.9697,3.9697,3.9697,3.9697,3.9697,3.9697,3.9697,3.9697,3.9697,3.9697,3.9697,3.9697,3.9697,3.9697,3.9645,3.8502,3.8003,3.8082,3.9232,3.9697,3.9594,3.8425,3.8003,3.787,3.678,3.6375,3.6375,3.6375,3.6375,3.6375,3.6375,3.7126,3.8188,3.9362,3.9697,0.0,0.0,4.0074,4.0449,4.0449,4.0826,4.1227,4.1227,4.1227,4.1227,4.1227,4.1227,4.0926,0.0,3.9697,3.9697,3.9697,0.0,3.9697,3.9697,3.9697,3.9697,3.9697,3.9697,3.9697,3.9697,3.9697,3.9697,3.9697,3.9697,3.9697,3.9697,3.9697,3.9697,3.9697,3.9697,3.9697,3.9697,3.9697,0.0,0.0,0.0,0.0,0.0,0.0,0.0,0.0,0.0,0.0,0.0,0.0,0.0,0.0,0.0,0.0,0.0,0.0,0.0,0.0,0.0,0.0,0.0,0.0,0.0,0.0,0.0,0.0,3.9645,3.8999,0.0,3.962,3.9024,3.8868,3.9645,3.9697,3.9848,4.0199,4.0224,4.0349,4.0725,4.0374,3.9859,3.9147,3.8751,3.8161,3.7447,3.7753,3.7892,3.7916,3.8193,3.8359,3.8331,3.7895,3.7701,3.7729,3.8194,3.7983,3.7394,3.6969,3.6831,3.6777,3.6348,3.6392,3.6663,3.6663,3.6842,3.7089,3.7089,3.7368,3.7784,3.8221,3.8905,3.9528,3.9528,4.0238,4.1026,4.1026,4.1177,4.1302,4.1302,4.1302,4.1302,4.1302,4.1302,4.1202,4.08,4.0725,4.0725,4.0725,4.0725,4.0725,4.0725,4.0725,4.0725,4.0725,4.0725,4.0725,4.0725,4.0725,4.0725,4.0725,4.0725,4.0725,4.0725,4.0425,4.0224,4.0224,3.9873,3.9697,3.9697,3.9697,3.9697,0.0,0.0,0.0,0.0,0.0,0.0,0.0,0.0,0.0,0.0,0.0,0.0,0.0,0.0,0.0,0.0,0.0,0.0,0.0,0.0,0.0,0.0,0.0,0.0,0.0,0.0,3.8082,3.8451,3.7793,3.7705,3.8666,3.8027,3.8126,3.9491,3.9224,3.9271,3.9894,3.9665,3.9667,4.0032,3.9834,3.9427,3.8847,3.8461,3.7858,3.7107,3.745,3.7582,3.7582,3.7897,3.8057,3.8028,3.7624,3.7479,3.745,3.7043,3.6469,3.5934,3.6022,3.6077,3.6021,3.563,3.569,3.595,3.595,3.615,3.6496,3.6869,3.6984,3.7069,3.7497,3.8152,3.882,3.8981,4.0089,4.1277,4.1447,4.1925,4.2431,4.2431,4.2431,4.2431,4.2431,4.2431,4.2431,4.2431,4.1829,4.1302,4.1302,4.1302,4.1302,4.1302,4.1302,4.1302,4.1302,4.1302,4.1302,4.1302,4.1302,4.1302,4.1302,4.1302,4.1302,4.1302,4.0976,4.0775,4.0775,4.0424,4.0149,3.9973,3.9557,3.9238,3.8985,0.0,0.0,0.0,0.0,0.0,0.0,0.0,0.0,0.0,0.0,0.0,0.0,0.0,0.0,0.0,0.0,0.0,0.0,0.0,0.0,0.0,0.0,0.0,3.5968,3.5223,3.4969,3.61,3.6208,3.6415,3.6865,3.6911,3.759,3.9244,3.8288,3.799,3.8785,3.8078,3.7679,3.7702,3.8051,3.8443,3.8885,3.8862,3.8833,3.8803,3.8826,3.8826,3.8826,3.8848,3.8819,3.8759,3.7668,3.7184,3.7102,3.5932,3.5428,3.5469,3.5677,3.578,3.5663,3.4538,3.4143,3.4164,3.4185,3.4185,3.4363,3.5472,3.5823,3.6056,3.7217,3.7617,3.7708,3.8101,3.9627,4.124,4.171,4.3207,4.4589,4.4589,4.4589,4.4589,4.4589,4.4589,4.4589,4.4589,4.2883,4.1403,4.1403,4.1403,4.1403,4.1403,4.1403,0.0,4.1403,4.1403,4.1403,4.1403,4.1403,4.1403,4.1403,4.1403,4.1378,4.1378,4.1352,4.13,4.1274,4.1274,4.0971,4.0419,3.9201,3.8272,3.761,0.0,0.0,0.0,0.0,0.0,0.0,0.0,0.0,0.0,0.0,0.0,0.0,0.0,0.0,0.0,0.0,0.0,0.0,0.0,0.0,0.0,0.0,3.4005,3.4847,3.5416,3.5991,3.6635,3.6709,3.6888,3.7336,3.7404,3.7701,3.8464,3.8223,3.8476,3.9476,3.9315,3.9359,3.9755,3.9519,3.9002,3.826,3.7868,3.7231,3.638,3.6721,3.686,3.686,3.72,3.737,3.737,3.7045,3.6918,3.6887,3.6538,3.6432,3.636,3.5736,3.5533,3.5451,3.5167,3.5252,3.5604,3.5935,3.6059,3.6101,3.6415,3.654,3.6603,3.6925,3.7647,3.8415,3.8516,4.0324,4.2219,4.2334,4.3477,4.4589,4.4589,4.4589,4.4589,4.4589,4.4589,4.4589,4.4589,4.4113,4.3686,4.3686,4.3686,4.3686,4.3686,4.3686,0.0,4.3686,4.3686,4.3686,4.3686,4.3686,4.3686,4.3686,4.3335,4.3112,4.3112,4.2384,4.1524,4.0616,4.0172,3.9441,3.8413,3.8027,3.776,0.0,0.0,0.0,0.0,0.0,0.0,0.0,0.0,0.0,0.0,0.0,0.0,0.0,0.0,0.0,0.0,0.0,0.0,0.0,0.0,0.0,0.0,3.3542,3.3901,3.4545,3.5019,3.5489,3.5973,3.6039,3.6274,3.6897,3.6963,3.7369,3.8335,3.7929,3.8023,3.9008,3.8741,3.8675,3.8991,3.8894,3.8593,3.8082,3.7762,3.7276,3.6577,3.6846,3.697,3.6991,3.726,3.7384,0.0,3.7384,3.7384,3.7384,3.7384,3.7384,0.0,0.0,0.0,0.0,0.0,3.6163,3.6432,3.6701,3.6804,3.6804,3.6804,3.6804,3.6804,3.6804,3.7328,3.7954,3.8146,3.9717,4.1353,4.1553,4.3034,4.4472,4.4472,4.4883,4.5292,4.5292,4.5292,4.5292,4.5292,4.5292,0.0,4.5292,4.4916,4.4589,4.4589,4.4589,4.4589,4.4589,4.4589,4.4589,4.4589,4.4589,4.4589,4.4589,4.4288,0.0,0.0,0.0,4.1776,4.0481,3.9847,0.0,0.0,0.0,3.7577,3.724,0.0,0.0,0.0,3.6786,3.6668,0.0,0.0,0.0,0.0,0.0,0.0,0.0,0.0,0.0,0.0,0.0,0.0,0.0,0.0,0.0,0.0,3.4185,3.4392,3.4806,3.4599,3.4537,3.4889,3.4951,3.5283,3.6101,3.6183,3.6824,3.8438,3.7519,3.7212,3.7981,0.0,0.0,0.0,0.0,3.7777,3.8204,3.8191,3.8191,3.8191,3.8191,3.8191,3.8191,3.8191,3.8191,3.8191,3.8191,3.8191,3.8191,3.8191,3.8191,3.8109,3.7281,3.697,3.697,3.697,3.697,3.697,3.697,0.0,0.0,3.697,3.697,3.697,3.697,3.697,3.7032,3.7446,3.8539,3.9678,4.0083,4.2129,4.4065,4.4065,4.5098,4.609,4.609,4.618,4.6301,4.6301,4.6301,4.6301,4.6301,4.5443,4.479,4.479,4.479,4.479,4.479,4.479,4.479,4.479,0.0,0.0,4.479,4.4598,4.4461,4.4461,4.3009,4.1613,4.0448,3.9802,3.9168,3.8499,3.8015,3.7453,3.6804,3.6804,3.6804,3.6827,3.7294,3.6945,0.0,0.0,0.0,0.0,0.0,0.0,0.0,0.0,0.0,0.0,0.0,0.0,0.0,0.0,0.0,3.4081,3.4693,3.519,3.5273,3.5852,3.6163,3.5894,3.5852,3.6059,3.6618,3.666,3.6963,3.7659,3.7505,3.7618,3.8118,3.7992,3.7922,3.7922,3.8005,3.8088,3.8191,3.8191,3.8191,3.8191,0.0,0.0,3.8191,3.8191,3.8191,3.8191,3.8191,3.8191,3.8191,3.8191,3.8191,3.8171,3.7984,3.7922,3.7922,3.7922,3.7922,3.7922,3.7922,3.7922,3.7922,3.7922,3.7922,3.7922,3.7922,3.7922,0.0,3.8026,3.9028,4.0083,4.017,4.1396,4.2635,4.2635,4.3669,4.4706,4.4706,4.5525,4.6301,4.6301,4.6301,4.6301,4.6301,4.6125,4.5974,4.5974,4.5974,4.5974,4.5974,4.5974,4.5974,4.5974,4.5974,4.5974,4.5974,4.4539,4.3639,4.3639,4.1,3.9343,3.9063,3.7984,3.7287,3.7168,3.7085,3.6925,3.6804,3.6804,3.6804,3.6804,3.6908,3.6834,0.0,0.0,0.0,0.0,0.0,0.0,0.0,0.0,0.0,0.0,0.0,3.4164,0.0,0.0,3.4817,3.5045,3.5666,3.6183,3.6432,3.6867,3.7053,3.6825,3.6804,3.6991,3.7446,3.7488,3.7591,3.7819,3.7839,3.7943,3.8171,3.8191,3.8295,3.8468,3.8523,3.8592,3.8854,3.8854,3.8854,3.8854,3.8854,3.8854,3.8854,3.8854,3.8854,3.8854,3.8854,3.8854,3.8854,3.8854,3.8854,3.8854,3.8854,3.8585,3.8191,3.8191,3.8191,3.8191,3.8191,3.8191,3.8191,3.8191,3.8191,3.8191,3.8191,3.8191,3.8191,3.8191,3.8681,3.9188,3.9188,4.0192,4.1203,4.1203,4.2256,4.3263,4.3263,4.4312,4.5312,4.5312,4.5823,4.6301,4.6301,4.6301,4.6301,4.6301,4.6301,4.6301,4.6301,4.6301,4.6301,4.6301,4.6301,4.6301,4.6301,4.4768,4.3258,4.1888,4.0336,3.9141,3.8486,3.7847,3.7488,3.7488,3.7488,3.7488,3.7488,3.7488,3.7389,3.7225,3.7225,3.7077,0.0,0.0,0.0,0.0,0.0,0.0,0.0,0.0,3.4226,3.4226,3.4371,3.4599,3.4993,3.5397,3.5811,3.6152,3.6639,3.7074,3.7446,3.757,3.7632,3.7632,3.7632,3.7777,3.815,3.8191,3.8212,3.8316,3.8316,3.8357,3.844,3.844,3.8605,3.8944,3.8944,3.913,3.9502,3.9502,3.9502,3.9502,3.9502,3.9502,3.9502,3.9502,3.9502,3.9502,3.9502,3.9502,3.9502,3.9502,3.9502,3.9502,3.9502,3.9047,3.844,3.844,3.844,3.844,3.844,3.844,3.844,3.844,3.844,3.844,3.844,3.844,3.844,3.844,3.844,3.844,3.844,3.9233,4.0071,4.0071,4.1106,4.2084,4.2084,4.3411,4.4594,4.4594,4.5693,4.6627,4.6627,4.6359,4.6218,4.6291,4.6301,4.6301,4.6301,4.6301,4.6301,4.6301,4.609,4.5702,4.5159,4.4127,4.2446,3.9986,3.9757,3.9254,3.8258,3.8058,3.8045,3.8215,3.8148,3.8156,3.8238,3.8238,3.807,3.7746,3.7746,3.7445,3.2698,3.3016,3.3439,3.3895,3.4019,3.404,0.0,0.0,3.4703,3.4703,3.5345,3.5894,3.5956,3.6349,3.666,3.6722,3.7115,3.7446,3.7488,3.7839,3.8109,3.8109,3.8109,3.8129,3.8171,3.8191,3.8357,3.8716,3.8737,3.8923,3.9337,3.9358,3.9378,3.942,3.942,3.9461,3.9502,3.9502,3.9502,3.9502,3.9502,3.9502,3.9502,3.9502,3.9502,3.9502,3.9502,3.9502,3.9502,3.9502,3.9502,3.9502,3.9502,3.944,3.9358,3.9358,3.9358,3.9358,3.9358,3.9358,3.9358,3.9358,3.9358,3.9358,3.9358,3.9358,3.9358,3.9358,3.9358,3.9358,3.9358,3.9495,3.9577,3.9577,4.0626,4.1648,4.1648,4.3775,4.5638,4.5638,4.6746,4.7732,4.7732,4.6676,4.5956,4.627,4.6301,4.6301,4.6301,4.6301,4.6301,4.6301,4.522,4.3537,4.1097,4.0743,4.0018,3.8536,3.8083,3.7983,3.8191,3.7569,3.755,3.8276,3.7935,3.7966,3.8355,3.8355,3.8355,3.832,3.832,3.7872,3.343,0.0,0.0,0.0,3.4495,3.4558,3.4797,3.5004,3.5231,3.55,3.5852,3.6183,3.6473,3.6887,3.7198,0.0,3.7591,3.7902,3.7902,3.8295,3.853,3.853,3.8778,3.8874,3.8572,3.8812,3.9027,3.9192,3.9213,3.9296,3.9502,3.9502,3.9626,3.9895,3.9916,4.0019,4.0323,4.0323,4.0323,4.0323,4.0323,4.0323,4.0323,4.0323,4.0323,4.0323,4.0323,4.0323,4.0323,4.0323,4.0323,4.0323,4.0323,4.0323,4.0261,3.9688,3.9502,3.9502,3.9502,3.9502,3.9502,3.9502,3.9502,3.9502,3.9502,3.9364,3.9226,3.9226,3.9226,3.9226,3.9226,3.9364,3.9502,3.9502,3.9792,4.0114,4.0341,4.1768,4.3091,4.3311,4.4978,4.6037,4.5204,4.5806,4.5972,4.4602,4.4563,4.4746,4.4746,4.4746,4.4746,4.4746,4.4244,4.3096,4.1176,4.0789,4.0076,3.8753,3.8295,3.8158,3.8295,3.8021,3.8033,3.8352,3.818,3.8211,3.8412,3.8412,3.8287,3.8042,3.8042,3.7739,3.4045,0.0,0.0,3.4817,3.4972,3.5096,3.5521,3.5573,3.5749,3.6204,3.6411,3.6597,3.6929,3.7384,3.7674,3.7674,3.8067,3.8378,3.8378,3.8716,3.9006,3.9006,3.942,3.9564,3.9233,3.9378,3.9564,3.9688,3.9688,3.9751,3.9875,3.9875,4.0019,4.0406,4.0371,4.0551,4.0918,4.1042,4.1104,4.1104,4.1229,4.1291,4.1291,4.1291,4.1291,4.1291,4.1291,4.1291,4.1291,4.1291,4.1291,4.1255,4.1147,4.1075,4.0992,4.0212,3.9836,3.9735,3.9735,3.9665,3.9561,3.9561,3.9561,3.9561,3.9561,3.9386,3.921,3.921,3.921,3.921,3.921,3.9386,3.9561,3.9561,3.9386,3.9281,3.9526,4.0437,4.1345,4.164,4.3398,4.4559,4.3498,4.4549,4.4902,4.2962,4.2614,4.2772,4.3499,4.3608,4.3443,4.308,4.3047,4.2471,4.1013,4.0639,3.999,3.8914,3.8461,3.8287,3.8412,3.8182,3.8207,3.8397,3.8327,3.8376,3.8615,3.8615,3.8533,3.8366,3.8366,3.8259,3.4156,0.0,3.4472,3.5201,3.5366,3.549,3.5945,3.6101,3.6225,3.668,3.7136,3.7446,3.7467,3.786,3.8171,3.8171,3.851,3.8799,3.8799,3.9192,3.9482,3.9482,3.9895,4.0164,0.0,3.9771,3.9688,4.0143,4.0185,4.0386,4.0856,4.0877,4.0877,4.0897,4.0897,4.0897,4.0918,4.1353,4.1581,4.1581,4.2037,4.2244,4.2244,4.2244,4.2244,4.2244,4.2244,4.2244,4.2244,4.2244,4.2244,4.2207,4.1764,4.1579,4.1542,4.1113,4.0658,4.0269,4.0269,4.0018,3.9674,3.9674,3.9674,3.9674,3.9674,3.9674,3.9674,3.9674,3.9674,3.9674,3.9674,3.9674,3.9674,3.9674,3.9674,3.9674,3.9674,4.085,4.189,4.189,4.3105,4.414,4.4071,4.2953,4.2031,4.1961,4.0743,4.073,4.326,4.3608,4.308,4.179,4.1655,4.0945,3.9205,3.9087,3.8879,3.8447,3.8042,3.8007,3.8377,3.7727,3.7712,3.8482,3.8125,3.832,3.9178,3.9178,3.9412,3.9862,3.9862,3.9824,3.4872,0.0,3.4912,3.5676,3.5842,3.5934,3.6186,3.6417,3.6637,3.6831,3.7221,3.7591,3.7902,3.8316,3.8696,3.9006,3.9171,3.9378,3.9688,3.9854,3.9957,3.9972,4.0655,0.0,0.0,0.0,0.0,4.1089,4.111,4.1317,4.1809,4.183,4.183,4.183,4.183,4.183,4.183,4.1995,4.2058,4.2058,4.2223,4.2285,4.2285,4.2285,4.2285,4.2285,4.2285,4.2285,4.2285,4.2285,4.2101,4.1805,4.1657,4.1434,4.1174,4.1045,4.0733,4.0378,4.0656,4.0693,4.0546,4.0546,4.0546,4.0546,4.0546,4.0378,4.0156,4.0156,4.0156,4.0156,4.0156,4.0341,4.0546,4.0546,4.0341,4.023,4.0489,4.0747,4.0984,4.124,4.2312,4.2848,4.182,4.2668,4.3243,4.2544,4.0874,4.0024,4.0878,4.1011,4.0857,4.0386,4.035,4.0226,3.9946,3.9698,3.9601,3.9719,3.9372,3.9244,3.9391,3.9171,3.9156,3.9423,3.9312,3.9375,3.9668,3.9668,3.9746,3.9902,3.9902,3.9902,3.4766,3.4825,3.4945,3.5597,3.5845,3.6027,3.6282,3.6481,3.6701,3.692,3.7187,3.7496,3.7947,3.8486,3.8945,3.9288,3.9562,3.99,4.0185,4.0513,4.0668,4.0503,4.1431,4.1869,0.0,0.0,0.0,4.183,4.185,4.1975,4.2285,4.2285,4.2285,4.2285,4.2285,4.2285,4.2285,4.2451,4.2617,4.2745,4.2745,4.2745,4.2745,4.2745,4.2745,4.2745,4.2596,4.2559,4.2559,4.2409,4.2164,4.1864,4.1713,4.1487,4.1281,4.1129,4.0902,4.0691,4.0771,4.0689,4.0596,4.0596,4.0596,4.0596,4.0596,4.0447,4.0202,4.0202,4.0202,4.0202,4.0202,4.0409,4.0596,4.0596,4.0409,4.0277,4.0559,4.0389,4.0314,4.0559,4.1191,4.1377,4.0389,4.1596,4.2496,4.1801,4.0596,3.9868,4.0124,4.0161,4.0161,4.0161,4.0161,4.0245,4.0378,4.0139,4.0055,4.0219,4.0033,3.9902,3.9902,3.9902,3.9902,3.9902,3.9902,3.9961,4.0117,4.0117,4.0195,4.0351,4.0351,4.0351,3.3942,3.4259,3.4692,3.5083,3.5437,3.5859,3.6301,3.6402,3.6576,3.6998,3.7099,3.724,0.0,0.0,3.9044,3.9044,3.9744,4.03,4.0286,4.1043,4.1494,0.0,0.0,0.0,0.0,0.0,0.0,4.2331,0.0,4.2311,4.2331,4.2368,4.2368,4.2368,4.2368,4.2368,4.2368,4.2745,4.318,4.3615,4.3577,4.3577,4.3577,4.3539,4.3539,4.3539,4.3119,4.2966,4.2927,4.2562,4.237,4.2331,4.1966,4.1773,4.1734,4.1327,4.1211,4.1132,4.0632,4.0243,3.9961,3.9961,3.9961,3.9961,3.9961,3.9961,3.9961,3.9961,3.9961,3.9961,3.9961,3.9961,3.9961,3.9961,3.9961,3.9961,3.9961,3.9961,3.9961,3.9961,3.9961,3.9961,3.9961,3.9961,3.9961,3.9961,3.9961,4.0205,4.0858,4.0933,4.0933,4.0933,4.0933,4.0821,4.0447,4.0409,4.0279,3.9999,3.9961,3.9961,3.9961,3.9961,3.9961,3.9961,3.9961,4.0156,4.0566,4.0566,4.0762,4.1211,4.1211,4.1211,3.4635,3.4688,3.4831,3.5814,3.6153,3.6288,3.6462,3.6696,3.6871,3.6702,3.7117,3.7602,0.0,0.0,0.0,3.9535,4.0,0.0,4.1242,4.1002,0.0,4.1456,0.0,4.1988,4.1979,4.2398,0.0,0.0,4.2652,4.2461,4.2809,4.3112,4.3263,4.3263,4.3263,4.3263,4.3263,4.3387,4.3491,4.3615,4.331,4.3157,4.3119,4.283,4.2715,4.2677,4.26,4.2562,4.2544,4.2447,4.2216,4.1966,4.185,4.1618,4.1327,4.125,4.1211,4.1191,4.1034,4.0955,4.0878,4.0878,4.0878,4.0878,4.0878,4.0878,4.0878,4.0878,4.0878,4.0878,4.0878,4.0878,4.0878,4.0878,4.0878,4.0878,4.0878,4.0878,4.0878,4.0878,4.0878,4.0878,4.0878,4.0878,4.0878,4.0878,4.0878,4.0702,4.0244,4.0184,4.0184,4.0184,4.0184,4.0284,4.0484,4.0466,4.0603,4.0859,4.0878,4.0878,4.0878,4.0878,4.0878,4.0878,4.0878,4.0937,4.1016,4.1016,4.1074,4.1211,4.1211,4.1211,3.4799,3.4947,3.5126,3.5785,3.611,3.6241,3.6276,3.6471,3.6598,3.6592,3.6966,0.0,3.7723,0.0,0.0,0.0,0.0,0.0,4.1065,4.1053,4.1196,0.0,4.205,0.0,4.2104,4.2487,4.2749,0.0,4.2843,4.3005,4.3251,4.3462,4.3615,4.3615,4.3615,4.3615,4.3615,4.361,4.3598,4.3598,4.3398,4.3305,4.3285,4.3051,4.2973,4.2973,0.0,4.2719,4.268,4.2484,4.2249,4.2073,4.2073,4.1916,4.1719,4.1719,4.1719,4.1719,4.1719,4.1719,4.166,4.1289,4.1211,4.1211,4.1211,4.1211,4.1211,4.1211,4.1211,4.1211,4.1211,4.1211,4.1211,4.1211,4.1211,4.1211,4.1211,4.1211,4.1211,4.1211,4.1211,4.1211,4.1211,4.1211,4.1211,4.1211,4.1211,4.1035,4.0508,4.0449,4.0449,4.0449,4.0449,4.0547,4.0781,4.0801,4.0918,4.1191,4.1211,4.1211,4.1211,4.1211,4.1211,4.1211,4.1211,4.1211,4.1211,4.1211,4.1308,4.1445,4.1445,4.1543,3.4766,3.5078,3.541,3.5469,3.5742,3.5982,3.5982,3.604,3.6211,3.6636,0.0,3.7051,3.7793,3.8629,3.9182,3.9182,0.0,4.0482,4.0515,4.1211,4.1731,4.1719,4.2436,4.2659,4.193,4.2249,4.2388,4.2092,4.3005,4.3589,4.3589,4.3589,4.361,4.361,4.361,4.361,4.361,4.3594,4.3603,4.3603,4.3616,4.3599,4.3599,4.3579,4.3519,4.3519,0.0,0.0,4.2982,4.2582,4.2382,4.2382,4.2382,4.2382,4.2382,4.2382,4.2382,4.2382,4.2382,4.2382,4.2265,4.1582,4.1387,4.1387,4.1387,4.1387,4.1367,4.1308,4.1289,4.1289,4.123,4.1211,4.1211,4.1211,4.1211,4.1211,4.1211,4.1211,4.1211,4.1211,4.1211,4.1211,4.1211,4.1211,4.1211,4.1211,4.1211,4.1211,4.1211,4.1211,4.1211,4.1211,4.1211,4.1211,4.1211,4.1211,4.1211,4.1211,4.1211,4.123,4.1289,4.1289,4.1289,4.1387,4.1387,4.1387,4.1387,4.1387,4.1523,4.1894,4.1894,4.207,3.5256,3.5332,3.5488,3.582,3.5942,3.5982,3.5982,3.6289,0.0,0.0,3.7226,3.7718,3.7855,3.8611,3.9212,3.9212,3.9957,4.0622,0.0,0.0,4.1425,0.0,0.0,0.0,0.0,0.0,0.0,0.0,0.0,4.3694,4.3693,4.3674,4.3694,4.3694,4.3694,4.3694,4.3694,4.3696,4.3696,4.3696,4.336,4.3201,4.3201,4.2802,4.2642,4.2622,4.2542,0.0,4.2502,4.2422,4.2382,4.2382,4.2382,4.2382,4.2382,4.2382,4.2382,4.2382,4.2382,4.2382,4.2362,4.2266,4.2207,4.2207,4.2207,4.2207,4.2129,4.1797,4.1699,4.1621,4.1308,4.1211,4.1211,4.1211,4.1211,4.1211,4.1211,4.1211,4.1211,4.1211,4.1211,4.1211,4.1211,4.1211,4.1211,4.1211,4.1211,4.1211,4.1211,4.1211,4.1211,4.1211,4.1211,4.1211,4.1211,4.1211,4.1211,4.1211,4.1211,4.1367,4.168,4.1699,4.1855,4.2207,4.2207,4.2207,4.2207,4.2207,4.2246,4.2324,4.2324,4.2323,3.572,3.5723,3.5762,3.5942,3.6191,3.6348,3.6348,0.0,0.0,0.0,3.7637,3.7952,3.8223,3.8769,0.0,3.9199,4.0137,4.0859,4.084,0.0,0.0,0.0,0.0,0.0,0.0,0.0,0.0,0.0,0.0,4.3718,4.3698,4.3678,4.3698,4.3698,4.3698,4.3698,4.3698,4.368,4.3719,4.3719,4.3515,4.3411,4.3411,4.3167,4.3086,4.3086,4.3086,0.0,4.3086,4.3086,4.3086,4.3086,4.3086,4.3086,4.3086,4.3086,4.3086,4.3086,4.3086,4.3086,4.3086,4.3086,4.2752,4.2382,4.2382,4.2382,4.2343,4.2187,4.2129,4.207,4.1875,4.1816,4.1816,4.1816,4.1816,4.1816,4.1816,4.1816,4.1816,4.1816,4.1816,4.1816,4.1816,4.1816,4.1816,4.1816,4.1816,4.1816,4.1816,4.1816,4.1738,4.1523,4.1699,4.1816,4.1816,4.1816,4.1816,4.1816,4.1816,4.1914,4.2109,4.2129,4.2187,4.2382,4.2382,4.2382,4.2382,4.2382,4.2539,4.2754,4.2754,4.2891,3.6087,3.5982,3.6001,3.6133,3.6426,3.6734,3.6812,3.7129,0.0,0.0,3.7972,3.8164,3.8552,3.8926,3.9238,0.0,4.0449,4.1152,4.0723,4.1406,4.1896,0.0,0.0,0.0,0.0,0.0,0.0,0.0,0.0,0.0,4.3679,4.382,4.38,4.368,4.368,4.368,4.368,4.3716,4.3712,4.3691,4.3719,4.3711,4.3711,4.3711,4.3711,4.3711,4.3711,0.0,0.0,4.3711,4.3711,4.3711,4.3711,4.3711,4.3711,4.3711,4.3711,4.3711,4.3711,4.3711,4.3711,4.3711,4.3242,4.2695,4.2695,4.2695,4.2635,4.2557,4.2558,4.2539,4.2421,4.2382,4.2382,4.2382,4.2382,4.2382,4.2382,4.2382,4.2382,4.2382,4.2382,4.2382,4.2382,4.2382,4.2382,4.2382,4.2382,4.2382,4.2382,4.25,4.2441,4.2109,4.2285,4.2382,4.2382,4.2382,4.2382,4.2382,4.2382,4.2461,4.2558,4.2558,4.2617,4.2695,4.2695,4.2695,4.2695,4.2695,4.2871,4.3223,4.3223,4.3398,3.6098,3.5982,3.6113,3.6538,3.6675,3.6812,3.7148,0.0,0.0,3.7874,3.8242,3.8571,3.8611,3.8926,3.9336,3.9766,4.0898,4.1601,4.1172,4.1836,4.2207,4.1836,0.0,0.0,0.0,0.0,0.0,0.0,0.0,0.0,4.3717,4.4087,4.4128,4.3717,4.3717,4.3717,4.3717,4.3715,4.3693,4.3693,4.3691,4.3711,4.3711,4.3711,4.3711,4.3711,4.3711,0.0,0.0,4.3711,4.3711,4.3711,4.3711,4.3711,4.3711,4.3711,4.3711,4.3711,4.3711,4.3711,4.3711,4.3711,4.3652,4.3594,4.3594,4.3594,4.3516,4.3125,4.3068,4.293,4.2519,4.2382,4.2382,4.2382,4.2382,4.2382,4.2382,4.2382,4.2382,4.2382,4.2382,4.2382,4.2382,4.2382,4.2382,4.2382,4.2382,4.2382,4.2382,4.2773,4.3008,4.2969,4.2637,4.2382,4.2382,4.2382,4.2382,4.2382,4.2382,4.2598,4.3008,4.3068,4.3203,4.3574,4.3594,4.3594,4.3594,4.3594,4.3613,4.3652,4.3652,4.3672,3.6219,3.6348,3.672,3.669,3.7051,3.7461,3.7637,0.0,3.832,3.832,3.8457,3.8652,3.8906,3.9316,3.9766,4.0195,4.1133,4.166,4.1269,4.168,4.1992,4.1816,0.0,0.0,0.0,0.0,0.0,0.0,0.0,0.0,4.3711,4.3876,4.3917,4.3711,4.3711,4.3711,4.3711,4.3711,4.3711,4.3711,4.3711,4.3711,4.3711,4.3711,4.3711,4.3711,4.3711,0.0,0.0,4.3711,4.3711,4.3711,4.3711,4.3711,4.3711,4.3711,4.3711,4.3711,4.3711,4.3711,4.3711,4.3711,4.3711,4.3711,4.3711,4.3711,4.3672,4.3496,4.3457,4.3418,4.3242,4.3183,4.3183,4.3183,4.3183,4.3183,4.3183,4.3183,4.3183,4.3183,4.3183,4.3183,4.3183,4.3183,4.3183,4.3183,4.3183,4.3183,4.3183,4.334,4.3457,4.3457,4.3301,4.3183,4.3183,4.3183,4.3183,4.3183,4.3183,4.3281,4.3437,4.3457,4.3535,4.3691,4.3711,4.3711,4.3711,4.3711,4.3711,4.3711,4.3711,4.3711,3.6403,3.6671,3.7149,3.6921,3.7402,3.7933,0.0,0.0,3.872,3.8611,3.8683,3.8894,3.9325,3.9665,4.0077,4.0602,4.1328,4.166,4.1269,4.1543,4.1836,0.0,0.0,0.0,0.0,0.0,0.0,0.0,0.0,0.0,4.3711,4.3711,4.3711,4.3711,4.3711,4.3711,4.3711,4.3711,4.3711,4.3711,4.3711,4.3711,4.3711,4.3711,4.3711,4.3711,0.0,0.0,0.0,4.3711,4.3711,4.3711,4.3711,4.3711,4.3711,4.3711,4.3711,4.3711,4.3711,4.3711,4.3711,4.3711,4.3711,4.3711,4.3711,4.3711,4.3711,4.3711,4.3711,4.3711,4.3711,4.3711,4.3711,4.3711,4.3711,4.3711,4.3711,4.3711,4.3711,4.3711,4.3711,4.3711,4.3711,4.3711,4.3711,4.3711,4.3711,4.3711,4.3711,4.3711,4.3711,4.3711,4.3711,4.3711,4.3711,4.3711,4.3711,4.3711,4.3711,4.3711,4.3711,4.3711,4.3711,4.3711,4.3711,4.3711,4.3711,4.3711,4.3711,4.3711,4.3711,4.3769,3.6688,3.6822,3.7228,3.7293,3.7617,3.8027,0.0,3.8902,3.9067,3.8683,3.8921,3.9314,3.9731,3.9851,4.0171,4.0963,4.1503,4.166,4.1269,4.1543,4.1953,0.0,0.0,0.0,0.0,0.0,0.0,0.0,0.0,0.0,4.3711,4.3711,4.3711,4.3711,4.3711,4.3711,4.3711,4.3711,4.3711,4.3711,4.3711,4.3711,4.3711,4.3711,4.3711,0.0,0.0,0.0,0.0,4.3711,4.3711,4.3711,4.3711,4.3711,4.3711,4.3711,4.3711,4.3711,4.3711,4.3711,4.3711,4.3711,4.3711,4.3711,4.3711,4.3711,4.3711,4.3711,4.3711,4.3711,4.3711,4.3711,4.3711,4.3711,4.3711,4.3711,4.3711,4.3711,4.3711,4.3711,4.3711,4.3711,4.3711,4.3711,4.3711,4.3711,4.3711,4.3711,4.3711,4.3711,4.3711,4.3711,4.3711,4.3711,4.3711,4.3711,4.3711,4.3711,4.3711,4.3711,4.3711,4.3711,4.3711,4.3711,4.3711,4.3711,4.3711,4.3711,4.3711,4.3711,4.3711,4.3945,3.7495,3.7898,3.8396,3.8169,3.8461,3.8744,3.8627,3.8683,3.8756,3.8611,3.8918,3.9325,3.9796,4.0115,4.0507,4.1091,4.1308,4.1367,4.123,0.0,0.0,4.2304,4.2949,4.3418,0.0,0.0,0.0,0.0,0.0,0.0,4.3711,4.3711,4.3711,4.3711,4.3711,4.3711,4.3711,4.3711,4.3711,4.3711,4.3711,4.3711,4.3711,4.3711,0.0,0.0,0.0,0.0,0.0,4.3711,4.3711,4.3711,4.3711,4.3711,4.3711,4.3711,4.3906,4.418,4.418,4.4375,4.4609,4.4609,4.4609,4.4551,4.4258,4.3965,4.3711,4.3711,4.3711,4.3711,4.3711,4.3711,4.3711,4.3711,4.3711,4.3711,4.3711,4.3711,4.3711,4.3711,4.3711,4.3711,4.3711,4.3711,4.3711,4.3711,4.3711,4.3711,4.3711,4.3711,4.3711,4.3711,4.3711,4.3711,4.3711,4.3711,4.3711,4.3711,4.3711,4.3711,4.3711,4.3711,4.3711,4.3711,4.3711,4.3867,4.418,4.418,4.4473,4.5058,4.5351,4.5566,3.8051,3.8499,3.8911,3.858,3.8838,0.0,3.8885,3.8849,3.8888,3.9009,3.9244,3.9618,4.0246,4.0408,4.0702,4.1326,4.1288,4.1211,0.0,0.0,0.0,4.2284,0.0,0.0,0.0,0.0,0.0,0.0,0.0,0.0,4.3965,4.3965,4.4043,4.4199,4.4043,4.4043,4.4199,4.4199,4.4199,4.4199,4.4199,4.4199,4.4199,4.4199,0.0,0.0,0.0,0.0,0.0,4.4199,4.4199,4.4199,4.4199,4.4199,4.4199,4.4199,4.4394,4.4629,4.4629,4.4805,4.4977,4.4977,4.4977,4.4938,4.4707,4.4199,4.3711,4.3711,4.3711,4.3711,4.3711,4.3711,4.3711,4.3711,4.3711,4.3711,4.3711,4.3711,4.3711,4.3711,4.3711,4.3711,4.3711,4.3711,4.3711,4.3711,4.3711,4.3711,4.3711,4.3711,4.3711,4.3711,4.3711,4.3769,4.3945,4.3808,4.3711,4.3711,4.3711,4.3789,4.3965,4.4121,4.4277,4.4453,4.4609,4.4824,4.5117,4.5117,4.5391,4.5918,4.6016,4.6152,0.0,3.8691,0.0,0.0,0.0,0.0,3.9176,3.9195,0.0,3.9694,3.9833,4.011,4.0922,4.0757,4.0818,4.1636,4.1444,0.0,0.0,4.1269,0.0,0.0,4.3203,0.0,0.0,0.0,0.0,0.0,0.0,0.0,4.4473,4.4492,4.4687,4.5094,4.4785,4.4746,4.5058,4.5035,4.5035,4.5074,4.5074,4.5074,4.5074,4.5074,0.0,0.0,0.0,0.0,0.0,4.5074,4.5074,4.5074,4.5074,4.5074,4.5074,4.5074,4.5094,4.5156,4.5156,4.5133,4.5153,4.5153,4.5153,4.5156,4.5156,4.4512,4.3789,4.3789,4.3789,4.3789,4.3789,4.3789,4.3789,4.3789,4.3789,4.3789,4.3769,4.375,4.375,4.3711,4.373,4.375,4.375,4.3808,4.3848,4.3848,4.3867,4.3887,4.3887,4.3887,4.3887,4.3887,4.3867,4.4023,4.4453,4.4062,4.3808,4.3848,4.3867,4.4082,4.4512,4.4883,4.5254,4.5664,4.6055,4.625,4.625,4.6308,4.6348,4.6328,4.5976,4.6016,3.911,0.0,3.9376,0.0,0.0,3.9806,0.0,3.9214,3.9617,3.9365,3.9859,4.0387,4.0583,4.0878,4.1093,4.1308,4.125,4.1211,4.1211,0.0,0.0,4.2851,0.0,0.0,0.0,0.0,0.0,0.0,0.0,4.457,4.5332,4.5371,4.5723,4.6421,4.6343,4.6074,4.5527,4.5527,4.5683,4.5996,4.5996,4.5996,4.5996,4.5996,0.0,0.0,0.0,0.0,4.5996,4.5996,4.5996,4.5996,4.5996,4.5996,4.5996,4.5996,4.6211,4.644,4.644,4.6699,4.6973,4.6973,4.6758,4.644,4.644,4.5621,4.4665,4.4665,4.4665,4.4665,4.4665,4.4665,4.4665,4.4665,4.4665,4.4629,4.4297,4.4238,4.4141,4.3769,4.3984,4.4238,4.4238,4.4785,4.5215,4.5215,4.5488,4.5683,4.5683,4.5683,4.5683,4.5683,4.541,4.5254,4.5371,4.4961,4.4863,4.5195,4.5508,4.5742,4.5859,4.5644,4.5566,4.5727,4.5781,4.582,4.582,4.6465,4.6777,4.6797,4.7031,4.7187,3.9378,3.9668,3.9838,3.9947,4.013,4.0191,3.9778,3.9761,3.9966,4.0512,4.0555,4.0624,4.1012,4.117,4.1211,0.0,4.1211,0.0,0.0,0.0,4.2812,4.3087,4.3457,0.0,0.0,0.0,0.0,0.0,0.0,4.5351,4.6211,4.625,4.6543,4.7207,4.7226,4.7012,4.6606,4.6587,4.666,4.6894,4.6894,4.6894,4.6875,4.668,4.6582,0.0,0.0,0.0,4.6308,4.6308,4.6308,4.6308,4.6308,4.6308,4.6308,4.6308,4.6445,4.6596,4.6596,4.6797,4.6992,4.6992,4.6836,4.6596,4.6596,4.6152,4.5605,4.5605,4.5605,4.5605,4.5605,4.5605,4.5605,4.5605,4.5605,4.5547,4.5312,4.5273,4.5195,4.4941,4.5098,4.5273,4.5273,4.5664,4.5957,4.5957,4.5996,4.6016,4.6016,4.584,4.5723,4.5723,4.5508,4.5449,4.5707,4.5644,4.5547,4.5391,4.5586,4.5801,4.6016,4.5976,4.6152,4.6543,4.6587,4.6587,4.6543,4.7012,4.7226,4.7226,4.7266,4.7285,3.9482,3.9937,4.0321,4.03,4.0407,4.055,4.0756,4.0482,4.0524,4.1754,4.133,4.0915,4.1597,4.1444,0.0,0.0,0.0,0.0,4.1836,4.2578,4.3105,4.3164,4.3496,0.0,0.0,0.0,0.0,0.0,0.0,4.623,4.7026,4.7026,4.7226,4.7656,4.7617,4.7578,4.7578,4.7578,4.7578,4.7578,4.7578,4.7578,4.7578,4.7187,4.7031,0.0,0.0,0.0,4.6504,4.6504,4.6504,4.6504,4.6504,4.6504,4.6504,4.6504,4.6504,4.6504,4.6504,4.6504,4.6504,4.6504,4.6504,4.6504,4.6504,4.6504,4.6504,4.6504,4.6406,4.6308,4.6308,4.6308,4.6308,4.6308,4.6308,4.6289,4.623,4.6211,4.6191,4.6133,4.6172,4.6211,4.6211,4.6308,4.6406,4.6406,4.6152,4.6,4.6,4.5644,4.541,4.541,4.5309,4.5469,4.584,4.6133,4.5996,4.5273,4.5309,4.5547,4.5859,4.6211,4.6699,4.7363,4.7383,4.7383,4.7383,4.7383,4.7383,4.7383,4.7012,4.6792,3.9957,4.0448,4.0728,4.0361,4.0848,4.1156,4.0195,4.0982,4.1716,4.0946,4.1224,4.1539,4.1346,4.125,4.1211,0.0,0.0,4.1855,0.0,0.0,4.3203,4.3574,0.0,4.4023,0.0,0.0,0.0,0.0,0.0,4.7109,4.7969,4.7676,4.7676,4.8105,4.7773,4.7578,4.7578,4.7578,4.7578,4.7578,4.7578,4.7578,4.7578,4.7519,4.748,4.748,0.0,4.7383,4.7383,4.7383,4.7383,4.7383,4.7383,4.7383,4.7383,4.7383,4.7383,4.7383,4.7383,4.7383,4.7383,4.7383,4.7383,4.7383,4.7383,4.7383,4.7383,4.7383,4.6855,4.6308,4.6308,4.6308,4.6308,4.6308,4.6308,4.6211,4.584,4.5781,4.5664,4.5293,4.5527,4.5781,4.5781,4.6367,4.6792,4.6792,4.709,4.733,4.733,4.7226,4.7187,4.7187,4.6855,4.6616,4.6738,4.6465,4.625,4.6113,4.6777,4.7051,4.6738,4.6797,4.6719,4.6504,4.6504,4.6504,4.6504,4.6504,4.6504,4.6504,4.6426,4.6406,4.0143,4.0737,4.1183,4.0786,4.1131,4.1508,4.1225,4.1595,4.1882,4.1569,4.1518,4.1483,4.1521,0.0,4.1289,4.1484,0.0,4.2285,4.2715,0.0,0.0,0.0,0.0,0.0,0.0,0.0,0.0,0.0,0.0,0.0,4.8164,4.7812,4.7676,4.7851,4.7676,4.7461,4.7226,4.7226,4.7344,4.7578,4.7578,4.7578,4.7578,4.7344,4.7226,4.7207,0.0,4.6894,4.6894,4.6894,4.6894,4.6894,4.6894,4.6894,4.6894,4.6894,4.6894,4.6894,4.6894,4.6894,4.6894,4.6894,4.6894,4.6894,4.6894,4.6894,4.6894,4.6894,4.6933,4.6992,4.6992,4.6992,4.6992,4.6992,4.6992,4.6933,4.6758,4.6743,4.6641,4.6445,4.6562,4.6743,4.6743,4.7031,4.7285,4.7285,4.7246,4.7226,4.7226,4.7031,4.6894,4.6894,4.6719,4.6601,4.6601,4.6406,4.6308,4.6308,4.668,4.6797,4.6601,4.6601,4.6504,4.6308,4.6308,4.6308,4.6308,4.6308,4.6308,4.6308,4.6308,4.6308,4.0489,4.1048,4.1591,4.1469,4.1677,4.1915,4.1979,4.1996,4.2026,4.2079,4.1695,4.1405,4.1618,4.1483,0.0,4.1758,4.2246,4.2695,0.0,0.0,0.0,0.0,0.0,0.0,0.0,0.0,0.0,0.0,0.0,0.0,4.8047,4.7656,4.7422,4.7422,4.7324,4.7109,4.6733,4.6777,4.6953,4.7285,4.7285,4.7285,4.7266,4.6933,4.6777,4.6714,4.6445,4.6308,4.6308,4.6308,4.6308,4.6308,4.6308,4.6308,4.6308,4.6308,4.6308,4.6308,4.6308,4.6308,4.6308,4.6308,4.6308,4.6308,4.6308,4.6308,4.6308,4.6308,4.6777,4.7285,4.7285,4.7285,4.7285,4.7285,4.7285,4.7285,4.7285,4.7285,4.7285,4.7285,4.7285,4.7285,4.7285,4.7285,4.7285,4.7285,4.6992,4.6777,4.6777,4.6504,4.6308,4.6308,4.6308,4.6308,4.6308,4.6308,4.6308,4.6308,4.6308,4.6308,4.6308,4.6308,4.6308,4.6308,4.6308,4.6308,4.6308,4.6308,4.6308,4.6308,4.6308,4.6308,4.1234,4.156,4.1809,4.2584,4.2791,4.2529,4.1441,4.2086,4.26,4.1502,0.0,0.0,0.0,4.1523,4.1758,4.1797,4.25,4.3047,4.3107,0.0,0.0,0.0,0.0,0.0,0.0,0.0,0.0,0.0,0.0,0.0,4.7617,4.7207,4.6928,4.6928,4.6601,4.6387,4.6348,4.6348,4.6367,4.6387,4.6387,4.6387,4.6387,4.6367,4.6348,4.6348,4.6308,4.6308,4.6308,4.6308,4.6308,4.6308,4.6308,4.6308,4.6308,4.6308,4.6308,4.6308,4.6308,4.6308,4.6308,4.6308,4.6308,4.6308,4.6308,4.6308,4.6308,4.6308,4.6348,4.6387,4.6387,4.6387,4.6387,4.6387,4.6387,4.6387,4.6387,4.6387,4.6387,4.6387,4.6387,4.6387,4.6387,4.6387,4.6387,4.6387,4.6367,4.6348,4.6348,4.6328,4.6308,4.6308,4.6308,4.6308,4.6308,4.6308,4.6308,4.6308,4.6308,4.6308,4.6308,4.6308,4.6308,4.6308,4.6308,4.6308,4.6308,4.6308,4.6308,4.6308,4.6308,4.6308,4.1519,4.2016,4.2423,4.2512,4.2912,4.308,4.2128,4.2287,4.2428,4.1695,4.1521,0.0,0.0,0.0,4.1973,4.25,4.2871,4.3302,4.3828,4.418,0.0,0.0,0.0,0.0,0.0,0.0,0.0,0.0,0.0,0.0,4.7168,4.6777,4.6543,4.6543,4.6387,4.6308,4.6308,4.6308,4.6308,4.6308,4.6308,4.6308,4.6308,4.6308,4.6308,4.6308,4.6308,4.6308,4.6308,4.6308,4.6308,4.6308,4.6308,4.6308,4.6308,4.6308,4.6308,4.6308,4.6308,4.6308,4.6308,4.6308,4.6308,4.6308,4.6308,4.6308,4.6308,4.6308,4.6308,4.6308,4.6308,4.6308,4.6308,4.6308,4.6308,4.6308,4.6308,4.6308,4.6308,4.6308,4.6308,4.6308,4.6308,4.6308,4.6308,4.6308,4.6308,4.6308,4.6308,4.6308,4.6308,4.6308,4.6308,4.6308,4.6308,4.6308,4.6308,4.6308,4.6308,4.6308,4.6308,4.6308,4.6308,4.6308,4.6308,4.6308,4.6308,4.6308,4.6308,4.6308,4.6308,4.6308,4.1954,4.2456,4.284,4.259,4.3046,4.3348,4.2408,4.2408,4.2408,4.1734,4.1503,4.1465,4.1758,0.0,0.0,0.0,4.332,4.3711,4.4316,4.4629,0.0,0.0,0.0,0.0,0.0,0.0,0.0,0.0,0.0,0.0,0.0,4.6465,4.6308,4.6308,4.6308,4.6308,4.6308,4.6308,4.6367,4.6504,4.6504,4.6426,4.6308,4.6308,4.6308,4.6308,4.6308,4.6308,4.6308,4.6308,4.6308,4.6308,4.6308,4.6308,4.6308,4.6308,4.6308,4.6308,4.6308,4.6308,4.6308,4.6308,4.6387,4.6504,4.6504,4.6601,4.6699,4.6699,4.6699,4.6699,4.6699,4.6504,4.6308,4.6308,4.6308,4.6308,4.6308,4.6308,4.6308,4.6308,4.6308,4.6308,4.6308,4.6308,4.6348,4.6484,4.6504,4.6543,4.668,4.6699,4.6699,4.6699,4.6699,4.6699,4.6699,4.6699,4.6699,4.6699,4.6699,4.6641,4.6504,4.6641,4.6699,4.6699,4.6699,4.6699,4.6699,4.6699,4.6699,4.6699,4.6699,4.6699,4.2683,4.2894,4.2922,4.2978,4.331,4.3272,4.2082,4.2428,4.2659,4.1444,4.1523,4.1816,4.1816,0.0,0.0,0.0,0.0,4.4394,4.4414,4.5137,4.5683,0.0,0.0,0.0,0.0,0.0,0.0,0.0,0.0,0.0,0.0,4.6308,4.6308,4.6308,4.6308,4.6308,4.6308,4.6308,4.6523,4.6889,4.6889,4.6719,4.6308,4.6308,4.6308,4.6308,4.6308,4.6308,4.6308,4.6308,4.6308,4.6308,4.6308,4.6308,4.6308,4.6308,4.6308,4.6308,4.6308,4.6308,4.6308,4.6308,4.6601,4.6889,4.6889,4.7246,4.7578,4.7578,4.7578,4.7578,4.7578,4.6953,4.6308,4.6308,4.6308,4.6308,4.6308,4.6308,4.6308,4.6308,4.6308,4.6308,4.6308,4.6308,4.6465,4.6831,4.6889,4.709,4.7519,4.7578,4.7578,4.7578,4.7578,4.7578,4.7578,4.7578,4.7578,4.7578,4.7578,4.7383,4.6909,4.7344,4.7578,4.7578,4.7578,4.7578,4.7578,4.7578,4.7578,4.7578,4.7578,4.7578,4.2849,4.2933,4.3031,4.3345,4.331,4.3004,4.239,4.2408,4.2393,4.1739,4.2191,4.2703,4.2717,0.0,0.0,0.0,0.0,0.0,4.5215,4.5551,4.5898,4.6484,0.0,0.0,0.0,0.0,0.0,0.0,0.0,0.0,0.0,4.6308,4.6308,4.6308,4.6582,4.6738,4.6738,4.7051,4.7266,4.7383,4.7383,4.7324,4.7207,4.7207,4.7207,4.7207,4.7207,4.7207,4.7207,4.7207,4.7207,4.7207,4.7207,4.7207,4.7207,4.7207,4.7207,4.7207,4.7207,4.7207,4.7207,4.7207,4.7285,4.7383,4.7383,4.748,4.7578,4.7578,4.7578,4.7578,4.7578,4.7402,4.7207,4.7207,4.7207,4.7207,4.7207,4.7207,4.7207,4.7207,4.7207,4.7207,4.7207,4.7207,4.7246,4.7363,4.7383,4.7441,4.7558,4.7578,4.7578,4.7578,4.7578,4.7578,4.7578,4.7578,4.7578,4.7578,4.7851,4.7832,4.7402,4.7519,4.7578,4.7578,4.7578,4.7578,4.7578,4.7578,4.7578,4.7578,4.7578,4.7578,4.3063,4.3104,4.3004,4.3119,4.3042,4.2891,4.2475,4.2283,0.0,0.0,4.2743,4.3096,4.3109,4.3359,0.0,0.0,0.0,0.0,0.0,4.582,4.6113,4.6621,4.668,0.0,0.0,0.0,0.0,0.0,0.0,0.0,0.0,4.6308,4.6367,4.6543,4.6753,4.7012,4.7187,4.7441,4.7656,4.7832,4.7832,4.793,4.8112,4.7779,4.7578,4.7578,4.7578,4.7578,4.7578,4.7578,4.7578,4.7578,4.7578,4.7578,4.7578,4.7578,4.7578,4.7578,4.7578,4.7578,4.7578,4.7578,4.7695,4.7832,4.7832,4.7949,4.8131,4.8131,4.8131,4.8131,4.8131,4.8131,4.8053,4.7656,4.7578,4.7578,4.7578,4.7578,4.7578,4.7578,4.7578,4.7578,4.7578,4.7578,4.7637,4.7793,4.7988,4.8131,4.8131,4.8131,4.8131,4.8131,4.8131,4.8131,4.8131,4.8131,4.8131,4.8131,4.832,4.8359,4.8151,4.8131,4.8131,4.8131,4.8131,4.8131,4.8131,4.8131,4.8131,4.8131,4.8131,4.8131,4.3377,4.3272,4.2851,4.2524,4.2718,4.2918,4.2584,4.223,4.219,4.2922,0.0,4.3185,4.3183,4.3848,4.4414,4.4512,0.0,0.0,0.0,0.0,4.6308,4.6308,4.6308,0.0,0.0,0.0,0.0,0.0,0.0,0.0,0.0,4.6328,4.6543,4.687,4.6967,4.7226,4.7637,4.7676,4.7891,4.8262,4.8262,4.8476,4.8874,4.8092,4.774,4.774,4.774,4.774,4.774,4.774,4.774,4.774,4.774,4.774,4.774,4.774,4.774,4.774,4.774,4.774,4.774,4.774,4.7949,4.8262,4.8262,4.8535,4.8913,4.8913,4.8913,4.8913,4.8913,4.8913,4.8698,4.7936,4.774,4.774,4.774,4.774,4.774,4.774,4.774,4.774,4.774,4.774,4.7832,4.8203,4.8659,4.8913,4.8913,4.8913,4.8913,4.8913,4.8913,4.8913,4.8913,4.8913,4.8913,4.8913,4.8913,4.8913,4.8913,4.8913,4.8913,4.8913,4.8913,4.8913,4.8913,4.8913,4.8913,4.8913,4.8913,4.8913,4.3556,4.3081,4.2562,4.2812,4.2961,4.3153,4.336,4.3358,4.3257,4.3113,4.3363,4.3691,4.4043,4.4277,4.4609,4.5293,4.559,4.5781,0.0,0.0,0.0,4.6308,4.6308,0.0,0.0,0.0,0.0,0.0,0.0,0.0,4.6308,4.6621,4.6792,4.6889,4.7578,4.7969,4.8066,4.8464,4.8679,0.0,4.8757,4.8815,4.8894,4.8718,4.864,4.864,4.864,4.864,4.864,4.864,4.864,4.864,4.864,4.864,4.864,4.864,4.864,4.864,4.864,4.864,4.864,4.864,4.8698,4.8757,4.8757,4.8835,4.8913,4.8913,4.8913,4.8913,4.8913,4.8913,4.8855,4.8679,4.864,4.864,4.864,4.864,4.864,4.864,4.864,4.864,4.864,4.864,4.8659,4.8757,4.8855,4.8913,4.8913,4.8913,4.8913,4.8913,4.8913,4.8913,4.8913,4.8913,4.8913,4.8913,4.8913,4.8913,4.8913,4.8913,4.8913,4.8913,4.8913,4.8913,4.8913,4.8913,4.8913,4.8913,4.8913,4.8913,4.3539,4.3157,4.2776,4.3251,4.3034,4.2942,4.3577,4.3712,4.3724,4.3693,4.3887,4.4101,4.4355,4.4726,4.5156,4.5648,4.584,4.6055,4.6269,0.0,0.0,4.6308,4.6308,0.0,0.0,0.0,0.0,0.0,0.0,4.6387,4.6601,4.6816,4.7065,4.7519,4.7969,4.8301,4.8516,4.8796,4.8913,4.8913,4.8913,4.8913,4.8913,4.8913,4.8913,4.8913,4.8913,4.8913,4.8913,4.8913,4.8913,4.8913,4.8913,4.8913,4.8913,4.8913,4.8913,4.8913,4.8913,4.8913,4.8913,4.8913,4.8913,4.8913,4.8913,4.8913,4.8913,4.8913,4.8913,4.8913,4.8913,4.8913,4.8913,4.8913,4.8913,4.8913,4.8913,4.8913,4.8913,4.8913,4.8913,4.8913,4.8913,4.8913,4.8913,4.8913,4.8913,4.8913,4.8913,4.8913,4.8913,4.8913,4.8913,4.8913,4.8913,4.8913,4.8913,4.8913,4.8913,4.8913,4.8913,4.8913,4.8913,4.8913,4.8913,4.8913,4.8913,4.8913,4.8913,4.8913,4.8913,4.8913,4.35,4.3371,4.321,4.3542,4.318,4.2918,4.3635,4.3865,4.4009,4.4316,4.4394,4.4453,4.459,4.5195,4.5703,4.5781,4.6074,4.6308,4.6308,4.6308,4.6308,4.6308,4.6308,0.0,0.0,0.0,0.0,0.0,0.0,4.6562,4.687,4.7026,4.7435,4.8183,4.8281,4.8496,4.8894,4.8913,4.8913,4.8913,4.8913,4.8913,4.8913,4.8913,4.8913,4.8913,4.8913,4.8913,4.8913,4.8913,4.8913,4.8913,4.8913,4.8913,4.8913,4.8913,4.8913,4.8913,4.8913,4.8913,4.8913,4.8913,4.8913,4.8913,4.8913,4.8913,4.8913,4.8913,4.8913,4.8913,4.8913,4.8913,4.8913,4.8913,4.8913,4.8913,4.8913,4.8913,4.8913,4.8913,4.8913,4.8913,4.8913,4.8913,4.8913,4.8913,4.8913,4.8913,4.8913,4.8913,4.8913,4.8913,4.8913,4.8913,4.8913,4.8913,4.8913,4.8913,4.8913,4.8913,4.8913,4.8913,4.8913,4.8913,4.8913,4.8913,4.8913,4.8913,4.8913,4.8913,4.8913,4.8913,4.3577,4.3598,4.3563,4.324,4.366,4.414,4.4253,4.4586,4.4776,0.0,4.4394,4.4629,4.5371,4.5605,4.5801,4.6152,4.6269,4.6308,4.6308,4.6308,4.6308,4.6308,4.6308,4.6308,0.0,0.0,0.0,0.0,4.6641,4.6831,4.6889,4.7637,4.8086,4.8203,4.8574,4.8855,4.8913,4.8913,4.8913,4.8913,4.8913,4.8913,4.8913,4.8913,4.8913,4.8913,4.8913,4.8913,4.8913,4.8913,4.8913,4.8913,4.8913,4.8913,4.8913,4.8913,4.8913,4.8913,4.8913,4.8913,4.8913,4.8913,4.8913,4.8913,4.8913,4.8913,4.8913,4.8913,4.8913,4.8913,4.8913,4.8913,4.8913,4.8913,4.8913,4.8913,4.8913,4.8913,4.8913,4.8913,4.8913,4.8913,4.8913,4.8913,4.8913,4.8913,4.8913,4.8913,4.8913,4.8913,4.8913,4.8913,4.8913,4.8913,4.8913,4.8913,4.8913,4.8913,4.8913,4.8913,4.8913,4.8913,4.8913,4.8913,4.8913,4.8913,4.8913,4.8913,4.8913,4.8913,4.8913,4.8913,4.4612,4.4782,4.4785,4.4032,4.392,4.4219,4.4959,4.4905,4.4741,4.5062,4.5117,4.5234,4.5648,4.5859,4.6094,4.6269,4.6308,4.6308,4.6308,4.6308,4.6308,4.6308,4.6308,4.6308,0.0,0.0,0.0,0.0,4.6772,4.7084,4.7617,4.8008,4.832,4.8555,4.8796,4.8913,4.8913,4.8913,4.8913,4.8913,4.8913,4.8913,4.8913,4.8913,4.8913,4.8913,4.8913,4.8913,4.8913,4.8913,4.8913,4.8913,4.8913,4.8913,4.8913,4.8913,4.8913,4.8913,4.8913,4.8913,4.8913,4.8913,4.8913,4.8913,4.8913,4.8913,4.8913,4.8913,4.8913,4.8913,4.8913,4.8913,4.8913,4.8913,4.8913,4.8913,4.8913,4.8913,4.8913,4.8913,4.8913,4.8913,4.8913,4.8913,4.8913,4.8913,4.8913,4.8913,4.8913,4.8913,4.8913,4.8913,4.8913,4.8913,4.8913,4.8913,4.8913,4.8913,4.8913,4.8913,4.8913,4.8913,4.8913,4.8913,4.8913,4.8913,4.8913,4.8913,4.8913,4.8913,4.8913,4.8913,4.5394,4.6148,4.6654,4.5347,4.4818,4.4866,4.5528,4.5101,4.4766,4.5527,4.5762,4.584,4.584,4.6094,4.6308,4.6308,4.6308,4.6308,4.6308,4.6308,4.6308,4.6308,4.6308,4.6308,4.6308,0.0,0.0,0.0,4.7084,4.7539,4.8164,4.832,4.8516,4.8894,4.8913,4.8913,4.8913,4.8913,4.8913,4.8913,4.8913,4.8913,4.8913,4.8913,4.8913,4.8913,4.8913,4.8913,4.8913,4.8913,4.8913,4.8913,4.8913,4.8913,4.8913,4.8913,4.8913,4.8913,4.8913,4.8913,4.8913,4.8913,4.8913,4.8913,4.8913,4.8913,4.8913,4.8913,4.8913,4.8913,4.8913,4.8913,4.8913,4.8913,4.8913,4.8913,4.8913,4.8913,4.8913,4.8913,4.8913,4.8913,4.8913,4.8913,4.8913,4.8913,4.8913,4.8913,4.8913,4.8913,4.8913,4.8913,4.8913,4.8913,4.8913,4.8913,4.8913,4.8913,4.8913,4.8913,4.8913,4.8913,4.8913,4.8913,4.8913,4.8913,4.8913,4.8913,4.8913,4.8913,4.8913,4.8913,4.5394,4.7417,4.9118,4.7088,4.6944,4.7033,4.5961,4.5339,4.5117,4.5586,4.5996,4.6269,4.6269,4.6289,4.6308,4.6308,4.6308,4.6308,4.6308,4.6308,4.6308,4.6308,4.6308,4.6308,4.6308,0.0,0.0,0.0,4.7676,4.8164,4.8203,4.8594,4.8874,4.8913,4.8913,4.8913,4.8913,4.8913,4.8913,4.8913,4.8913,4.8913,4.8913,4.8913,4.8913,4.8913,4.8913,4.8913,4.8913,4.8913,4.8913,4.8913,4.8913,4.8913,4.8913,4.8913,4.8913,4.8913,4.8913,4.8913,4.8913,4.8913,4.8913,4.8913,4.8913,4.8913,4.8913,4.8913,4.8913,4.8913,4.8913,4.8913,4.8913,4.8913,4.8913,4.8913,4.8913,4.8913,4.8913,4.8913,4.8913,4.8913,4.8913,4.8913,4.8913,4.8913,4.8913,4.8913,4.8913,4.8913,4.8913,4.8913,4.8913,4.8913,4.8913,4.8913,4.8913,4.8913,4.8913,4.8913,4.8913,4.8913,4.8913,4.8913,4.8913,4.8913,4.8913,4.8913,4.8913,4.8913,4.8913,4.8913,4.689,4.8236,4.9553,4.8575,4.7922,4.754,4.7669,4.6296,4.5234,4.5937,4.6191,4.6308,4.6308,4.6308,4.6308,4.6308,4.6308,4.6308,4.6308,4.6308,4.6308,4.6308,4.6308,4.6308,4.6308,4.6635,0.0,0.0,0.0,4.832,4.8613,4.8815,4.8913,4.8913,4.8913,4.8913,4.8913,4.8913,4.8913,4.8913,4.8913,4.8913,4.8913,4.8913,4.8913,4.8913,4.8913,4.8913,4.8913,4.8913,4.8913,4.8913,4.8913,4.8913,4.8913,4.8913,4.8913,4.8913,4.8913,4.8913,4.8913,4.8913,4.8913,4.8913,4.8913,4.8913,4.8913,4.8913,4.8913,4.8913,4.8913,4.8913,4.8913,4.8913,4.8913,4.8913,4.8913,4.8913,4.8913,4.8913,4.8913,4.8913,4.8913,4.8913,4.8913,4.8913,4.8913,4.8913,4.8913,4.8913,4.8913,4.8913,4.8913,4.8913,4.8913,4.8913,4.8913,4.8913,4.8913,4.8913,4.8913,4.8913,4.8913,4.8913,4.8913,4.8913,4.8913,4.8913,4.8913,4.8913,4.8913,4.8913,4.7826,4.9223,5.0569,5.0322,4.9288,4.8402,4.8556,4.6733,4.5273,4.6133,4.6308,4.6308,4.6308,4.6308,4.6308,4.6308,4.6308,4.6308,4.6308,4.6308,4.6308,4.6308,4.6308,4.6308,4.6308,4.6816,0.0,0.0,0.0,0.0,4.8894,4.8913,4.8913,4.8913,4.8913,4.8913,4.8913,4.8913,4.8913,4.8913,4.8913,4.8913,4.8913,4.8913,4.8913,4.8913,4.8913,4.8913,4.8913,4.8913,4.8913,4.8913,4.8913,4.8913,4.8913,4.8913,4.8913,4.8913,4.8913,4.8913,4.8913,4.8913,4.8913,4.8913,4.8913,4.8913,4.8913,4.8913,4.8913,4.8913,4.8913,4.8913,4.8913,4.8913,4.8913,4.8913,4.8913,4.8913,4.8913,4.8913,4.8913,4.8913,4.8913,4.8913,4.8913,4.8913,4.8913,4.8913,4.8913,4.8913,4.8913,4.8913,4.8913,4.8913,4.8913,4.8913,4.8913,4.8913,4.8913,4.8913,4.8913,4.8913,4.8913,4.8913,4.8913,4.8913,4.8913,4.8913,4.8913,4.8913,4.8913,4.8913,0.0,0.0,0.0,5.2281,5.1109,4.9666,4.8474,4.6585,4.5297,4.6113,4.6289,4.6308,4.6308,4.6308,4.6308,4.6308,4.6308,4.6308,4.6308,4.6308,4.6308,4.6308,4.6308,4.6308,4.6328,4.709,4.7578,0.0,4.8424,4.8913,4.8913,4.8913,4.8913,4.8913,4.8913,4.8913,4.8913,4.8913,4.8913,4.8913,4.8913,4.8913,4.8913,4.8913,4.8913,4.8913,4.8913,4.8913,4.8913,4.8913,4.8913,4.8913,4.8913,4.8913,4.8913,4.8913,4.8913,4.8913,4.8913,4.8913,4.8913,4.8913,4.8913,4.8913,4.8913,4.8913,4.8913,4.8913,4.8913,4.8913,4.8913,4.8913,4.8913,4.8913,4.8913,4.8913,4.8913,4.8913,4.8913,4.8913,4.8913,4.8913,4.8913,4.8913,4.8913,4.8913,4.8913,4.8913,4.8913,4.8913,4.8913,4.8913,4.8913,4.8913,4.8913,4.8913,4.8913,4.8913,4.8913,4.8913,4.8913,4.8913,4.8913,4.8913,4.8913,4.8913,4.8913,4.8913,4.8913,4.8913,4.8913,4.8913,4.7716,0.0,0.0,0.0,0.0,0.0,4.7989,4.7217,4.6643,4.5981,4.6094,4.6308,4.6308,4.6308,4.6308,4.6308,4.6308,4.6308,4.6308,4.6308,4.6308,4.6308,4.6308,4.6426,4.6719,4.7266,4.7715,0.0,4.86,4.8913,4.8913,4.8913,4.8913,4.8913,4.8913,4.8913,4.8913,4.8913,4.8913,4.8913,4.8913,4.8913,4.8913,4.8913,4.8913,4.8913,4.8913,4.8913,4.8913,4.8913,4.8913,4.8913,4.8913,4.8913,4.8913,4.8913,4.8913,4.8913,4.8913,4.8913,4.8913,4.8913,4.8913,4.8913,4.8913,4.8913,4.8913,4.8913,4.8913,4.8913,4.8913,4.8913,4.8913,4.8913,4.8913,4.8913,4.8913,4.8913,4.8913,4.8913,4.8913,4.8913,4.8913,4.8913,4.8913,4.8913,4.8913,4.8913,4.8913,4.8913,4.8913,4.8913,4.8913,4.8913,4.8913,4.8913,4.8913,4.8913,4.8913,4.8913,4.8913,4.8913,4.8913,4.8913,4.8913,4.8913,4.8913,4.8913,4.8913,4.8913,4.8913,4.8913,0.0,0.0,0.0,0.0,0.0,0.0,4.7576,4.7361,4.7148,4.5953,4.6016,4.6308,4.6308,4.6308,4.6308,4.6308,4.6308,4.6308,4.6308,4.6308,4.6308,4.6308,4.6308,4.6465,4.685,4.7324,4.7754,4.8164,4.8613,4.8913,4.8913,4.8913,4.8913,4.8913,4.8913,4.8913,4.8913,4.8913,4.8913,4.8913,4.8913,4.8913,4.8913,4.8913,4.8913,4.8913,4.8913,4.8913,4.8913,4.8913,4.8913,4.8913,4.8913,4.8913,4.8913,4.8913,4.8913,4.8913,4.8913,4.8913,4.8913,4.8913,4.8913,4.8913,4.8913,4.8913,4.8913,4.8913,4.8913,4.8913,4.8913,4.8913,4.8913,4.8913,4.8913,4.8913,4.8913,4.8913,4.8913,4.8913,4.8913,4.8913,4.8913,4.8913,4.8913,4.8913,4.8913,4.8913,4.8913,4.8913,4.8913,4.8913,4.8913,4.8913,4.8913,4.8913,4.8913,4.8913,4.8913,4.8913,4.8913,4.8913,4.8913,4.8913,4.8913,4.8913,4.8913,4.8913,4.8913,4.8913,4.8913,4.8913,0.0,0.0,0.0,0.0,0.0,0.0,4.6944,4.7052,4.7128,4.5894,4.5976,4.6308,4.6308,4.6308,4.6308,4.6308,4.6308,4.6308,4.6308,4.6308,4.6308,4.6308,4.6308,4.6465,4.685,4.7324,4.7754,4.8164,4.8613,4.8913,4.8913,4.8913,4.8913,4.8913,4.8913,4.8913,4.8913,4.8913,4.8913,4.8913,4.8913,4.8913,4.8913,4.8913,4.8913,4.8913,4.8913,4.8913,4.8913,4.8913,4.8913,4.8913,4.8913,4.8913,4.8913,4.8913,4.8913,4.8913,4.8913,4.8913,4.8913,4.8913,4.8913,4.8913,4.8913,4.8913,4.8913,4.8913,4.8913,4.8913,4.8913,4.8913,4.8913,4.8913,4.8913,4.8913,4.8913,4.8913,4.8913,4.8913,4.8913,4.8913,4.8913,4.8913,4.8913,4.8913,4.8913,4.8913,4.8913,4.8913,4.8913,4.8913,4.8913,4.8913,4.8913,4.8913,4.8913,4.8913,4.8913,4.8913,4.8913,4.8913,4.8913,4.8913,4.8913,4.8913,4.8913,4.8913,4.8913,4.8913,4.8913,4.8913,0.0,0.0,0.0,0.0,0.0,0.0,4.4737,4.5978,4.7046,4.5458,4.5762,4.6308,4.6308,4.6308,4.6308,4.6308,4.6308,4.6308,4.6308,4.6308,4.6308,4.6308,4.6308,4.6465,4.685,4.7324,4.7754,4.8164,4.8613,4.8913,4.8913,4.8913,4.8913,4.8913,4.8913,4.8913,4.8913,4.8913,4.8913,4.8913,4.8913,4.8913,4.8913,4.8913,4.8913,4.8913,4.8913,4.8913,4.8913,4.8913,4.8913,4.8913,4.8913,4.8913,4.8913,4.8913,4.8913,4.8913,4.8913,4.8913,4.8913,4.8913,4.8913,4.8913,4.8913,4.8913,4.8913,4.8913,4.8913,4.8913,4.8913,4.8913,4.8913,4.8913,4.8913,4.8913,4.8913,4.8913,4.8913,4.8913,4.8913,4.8913,4.8913,4.8913,4.8913,4.8913,4.8913,4.8913,4.8913,4.8913,4.8913,4.8913,4.8913,4.8913,4.8913,4.8913,4.8913,4.8913,4.8913,4.8913,4.8913,4.8913,4.8913,4.8913,4.8913,4.8913,4.8913,4.8913,4.8913,4.8913,4.8913,4.8913,0.0,0.0,0.0,4.5251,0.0,0.0,0.0,4.5669,4.7005,4.5359,4.5703,4.6308,4.6308,4.6308,4.6308,4.6308,4.6308,4.6308,4.6308,4.6308,4.6308,4.6308,4.6308,4.6465,4.685,4.7129,4.7519,4.8164,4.8613,4.8913,4.8913,4.8913,4.8913,4.8913,4.8913,4.8913,4.8913,4.8913,4.8913,4.8913,4.8913,4.8913,4.8913,4.8913,4.8913,4.8913,4.8913,4.8913,4.8913,4.8913,4.8913,4.8913,4.8913,4.8913,4.8913,4.8913,4.8913,4.8913,4.8913,4.8913,4.8913,4.8913,4.8913,4.8913,4.8913,4.8913,4.8913,4.8913,4.8913,4.8913,4.8913,4.8913,4.8913,4.8913,4.8913,4.8913,4.8913,4.8913,4.8913,4.8913,4.8913,4.8913,4.8913,4.8913,4.8913,4.8913,4.8913,4.8913,4.8913,4.8913,4.8913,4.8913,4.8913,4.8913,4.8913,4.8913,4.8913,4.8913,4.8913,4.8913,4.8913,4.8913,4.8913,4.8913,4.8913,4.8913,4.8913,4.8913,4.8913,4.8913,4.8913,4.8913,0.0,0.0,0.0,0.0,0.0,4.5556,0.0,0.0,0.0,4.5392,4.5762,4.6308,4.6308,4.6308,0.0,4.6074,0.0,0.0,0.0,4.6191,0.0,4.6308,4.6308,4.6426,4.6733,4.6953,4.7363,4.8144,4.8613,4.8913,4.8913,4.8913,4.8913,4.8913,4.8913,4.8913,4.8913,4.8913,4.8913,4.8913,4.8913,4.8913,4.8913,4.8913,4.8913,4.8913,4.8913,4.8913,4.8913,4.8913,4.8913,4.8913,4.8913,4.8913,4.8913,4.8913,4.8913,4.8913,4.8913,4.8913,4.8913,4.8913,4.8913,4.8913,4.8913,4.8913,4.8913,4.8913,4.8913,4.8913,4.8913,4.8913,4.8913,4.8913,4.8913,4.8913,4.8913,4.8913,4.8913,4.8913,4.8913,4.8913,4.8913,4.8913,4.8913,4.8913,4.8913,4.8913,4.8913,4.8913,4.8913,4.8913,4.8913,4.8913,4.8913,4.8913,4.8913,4.8913,4.8913,4.8913,4.8913,4.8913,4.8913,4.8913,4.8913,4.8913,4.8913,4.8913,4.8913,4.8913,4.8913,4.8913,0.0,0.0,0.0,0.0,4.417,0.0,0.0,0.0,4.5844,4.5648,0.0,0.0,0.0,0.0,0.0,0.0,0.0,0.0,4.5273,4.582,4.6308,4.6308,4.6308,4.6328,4.6367,4.707,4.7695,4.8164,4.8613,4.8913,4.8913,4.8913,4.8913,4.8913,4.8913,4.8913,4.8913,4.8913,4.8913,4.8913,4.8913,4.8913,4.8913,4.8913,4.8913,4.8913,4.8913,4.8913,4.8913,4.8913,4.8913,4.8913,4.8913,4.8913,4.8913,4.8913,4.8913,4.8913,4.8913,4.8913,4.8913,4.8913,4.8913,4.8913,4.8913,4.8913,4.8913,4.8913,4.8913,4.8913,4.8913,4.8913,4.8913,4.8913,4.8913,4.8913,4.8913,4.8913,4.8913,4.8913,4.8913,4.8913,4.8913,4.8913,4.8913,4.8913,4.8913,4.8913,4.8913,4.8913,4.8913,4.8913,4.8913,4.8913,4.8913,4.8913,4.8913,4.8913,4.8913,4.8913,4.8913,4.8913,4.8913,4.8913,4.8913,4.8913,4.8913,4.8913,4.8913,4.8913,4.8913,4.8913,0.0,0.0,0.0,0.0,0.0,0.0,0.0,0.0,4.5727,0.0,0.0,0.0,0.0,0.0,0.0,0.0,4.6074,0.0,0.0,0.0,4.6308,0.0,0.0,0.0,4.6308,4.707,4.7656,4.7832,4.8522,4.8913,4.8913,4.8913,4.8913,4.8913,4.8913,4.8913,4.8913,4.8913,4.8913,4.8913,4.8913,4.8913,4.8913,4.8913,4.8913,4.8913,4.8913,4.8913,4.8913,4.8913,4.8913,4.8913,4.8913,4.8913,4.8913,4.8913,4.8913,4.8913,4.8913,4.8913,4.8913,4.8913,4.8913,4.8913,4.8913,4.8913,4.8913,4.8913,4.8913,4.8913,4.8913,4.8913,4.8913,4.8913,4.8913,4.8913,4.8913,4.8913,4.8913,4.8913,4.8913,4.8913,4.8913,4.8913,4.8913,4.8913,4.8913,4.8913,4.8913,4.8913,4.8913,4.8913,4.8913,4.8913,4.8913,4.8913,4.8913,4.8913,4.8913,4.8913,4.8913,4.8913,4.8913,4.8913,4.8913,4.8913,4.8913,4.8913,4.8913,4.8913,4.8913,4.8913,4.5195,0.0,0.0,0.0,0.0,0.0,0.0,0.0,0.0,0.0,0.0,0.0,0.0,0.0,0.0,0.0,0.0,4.623,0.0,4.6152,0.0,0.0,0.0,0.0,0.0,4.6973,4.7441,4.7578,4.8307,4.8776,4.8894,4.8913,4.8913,4.8913,4.8913,4.8913,4.8913,4.8913,4.8913,4.8913,4.8913,4.8913,4.8913,4.8913,4.8913,4.8913,4.8913,4.8913,4.8913,4.8913,4.8913,4.8913,4.8913,4.8913,4.8913,4.8913,4.8913,4.8913,4.8913,4.8913,4.8913,4.8913,4.8913,4.8913,4.8913,4.8913,4.8913,4.8913,4.8913,4.8913,4.8913,4.8913,4.8913,4.8913,4.8913,4.8913,4.8913,4.8913,4.8913,4.8913,4.8913,4.8913,4.8913,4.8913,4.8913,4.8913,4.8913,4.8913,4.8913,4.8913,4.8913,4.8913,4.8913,4.8913,4.8913,4.8913,4.8913,4.8913,4.8913,4.8913,4.8913,4.8913,4.8913,4.8913,4.8913,4.8913,4.8913,4.8913,4.8913,4.8913,4.8913,4.8913,0.0,0.0,0.0,0.0,0.0,0.0,0.0,0.0,4.6289,0.0,0.0,0.0,0.0,0.0,0.0,0.0,0.0,0.0,0.0,0.0,0.0,0.0,0.0,0.0,0.0,4.6699,4.7129,4.7558,4.7988,4.8418,4.8874,4.8913,4.8913,4.8913,4.8913,4.8913,4.8913,4.8913,4.8913,4.8913,4.8913,4.8913,4.8913,4.8913,4.8913,4.8913,4.8913,4.8913,4.8913,4.8913,4.8913,4.8913,4.8913,4.8913,4.8913,4.8913,4.8913,4.8913,4.8913,4.8913,4.8913,4.8913,4.8913,4.8913,4.8913,4.8913,4.8913,4.8913,4.8913,4.8913,4.8913,4.8913,4.8913,4.8913,4.8913,4.8913,4.8913,4.8913,4.8913,4.8913,4.8913,4.8913,4.8913,4.8913,4.8913,4.8913,4.8913,4.8913,4.8913,4.8913,4.8913,4.8913,4.8913,4.8913,4.8913,4.8913,4.8913,4.8913,4.8913,4.8913,4.8913,4.8913,4.8913,4.8913,4.8913,4.8913,4.8913,4.8913,4.8913,4.8913,4.8913,4.8913,0.0,0.0,4.5879,4.5879,0.0,0.0,0.0,0.0,0.0,0.0,0.0,0.0,0.0,0.0,0.0,0.0,0.0,0.0,0.0,0.0,0.0,0.0,0.0,0.0,0.0,0.0,4.7109,4.7539,4.7969,4.8398,4.8874,4.8913,4.8913,4.8913,4.8913,4.8913,4.8913,4.8913,4.8913,4.8913,4.8913,4.8913,4.8913,4.8913,4.8913,4.8913,4.8913,4.8913,4.8913,4.8913,4.8913,4.8913,4.8913,4.8913,4.8913,4.8913,4.8913,4.8913,4.8913,4.8913,4.8913,4.8913,4.8913,4.8913,4.8913,4.8913,4.8913,4.8913,4.8913,4.8913,4.8913,4.8913,4.8913,4.8913,4.8913,4.8913,4.8913,4.8913,4.8913,4.8913,4.8913,4.8913,4.8913,4.8913,4.8913,4.8913,4.8913,4.8913,4.8913,4.8913,4.8913,4.8913,4.8913,4.8913,4.8913,4.8913,4.8913,4.8913,4.8913,4.8913,4.8913,4.8913,4.8913,4.8913,4.8913,4.8913,4.8913,4.8913,4.8913,4.8913,4.8913,4.8913,4.6562,4.6523,0.0,4.6348,4.6308,0.0,4.6308,0.0,0.0,0.0,0.0,0.0,0.0,0.0,0.0,0.0,0.0,0.0,0.0,4.6308,0.0,0.0,0.0,0.0,0.0,0.0,4.6953,4.7539,4.7832,4.8242,0.0,4.8913,4.8913,4.8913,4.8913,4.8913,4.8913,4.8913,4.8913,4.8913,4.8913,4.8913,4.8913,4.8913,4.8913,4.8913,4.8913,4.8913,4.8913,4.8913,4.8913,4.8913,4.8913,4.8913,4.8913,4.8913,4.8913,4.8913,4.8913,4.8913,4.8913,4.8913,4.8913,4.8913,4.8913,4.8913,4.8933,4.9043,4.9031,4.8933,4.9109,4.9031,4.8913,4.8913,4.8913,4.8913,4.8913,4.8913,4.8913,4.8913,4.8913,4.8913,4.8913,4.8913,4.8913,4.8913,4.8913,4.8913,4.8913,4.8913,4.8913,4.8913,4.8913,4.8913,4.8913,4.8913,4.8913,4.8913,4.8913,4.8913,4.8913,4.8913,4.8972,4.9101,4.8991,4.8991,4.9101,4.8991,4.8913,4.8913,4.8913,4.8913]},{"header":{"parameterUnit":"m.s-1","parameterCategory":1,"la1":30.6,"la2":29.2853,"lo1":-89.7004,"lo2":-87.6739,"dy":0.0162,"dx":0.0183,"nx":112,"ny":82,"refTime":"2023-11-09T06:00:00:Z","depth":0,"parameterNumber":3,"parameterNumberName":"V-component_of_WINDS"},"data":[0.0,0.0,0.0,0.0,0.0,0.0,0.0,0.0,0.0,0.0,0.0,0.0,0.0,0.0,0.0,0.0,0.0,0.0,0.0,0.0,0.0,0.0,0.0,0.0,0.0,0.0,0.0,0.0,0.0,0.0,0.0,0.0,0.0,0.0,0.0,0.0,0.0,0.0,0.0,0.0,0.0,0.0,0.0,0.0,0.0,0.0,0.0,0.0,0.0,0.0,0.0,0.0,0.0,0.0,0.0,0.0,0.0,0.0,0.0,0.0,0.0,0.0,0.0,0.0,0.0,0.0,0.0,0.0,0.0,0.0,0.0,0.0,0.0,0.0,0.0,0.0,0.0,0.0,0.0,0.0,0.0,0.0,0.0,0.0,0.0,0.0,0.0,0.0,0.0,0.0,0.0,3.6922,3.6803,3.6992,3.7505,3.7667,3.7828,3.808,0.0,0.0,0.0,0.0,0.0,0.0,0.0,0.0,0.0,0.0,0.0,0.0,0.0,0.0,0.0,0.0,0.0,0.0,0.0,0.0,0.0,0.0,0.0,0.0,0.0,0.0,0.0,0.0,0.0,0.0,0.0,0.0,0.0,0.0,0.0,0.0,0.0,0.0,0.0,0.0,0.0,0.0,0.0,0.0,0.0,0.0,0.0,0.0,0.0,0.0,0.0,0.0,0.0,0.0,0.0,0.0,0.0,0.0,0.0,0.0,0.0,0.0,0.0,0.0,0.0,0.0,0.0,0.0,0.0,0.0,0.0,0.0,0.0,0.0,0.0,0.0,0.0,0.0,0.0,0.0,0.0,0.0,0.0,0.0,0.0,0.0,0.0,0.0,0.0,0.0,0.0,0.0,0.0,0.0,0.0,0.0,0.0,0.0,0.0,0.0,0.0,0.0,0.0,0.0,3.7505,3.7716,3.732,3.7248,3.7785,3.8349,3.8796,3.8988,0.0,0.0,0.0,0.0,0.0,0.0,0.0,0.0,0.0,0.0,0.0,0.0,0.0,0.0,0.0,0.0,0.0,0.0,0.0,0.0,0.0,0.0,0.0,0.0,0.0,0.0,0.0,0.0,0.0,0.0,0.0,0.0,0.0,0.0,0.0,0.0,0.0,0.0,0.0,0.0,0.0,0.0,0.0,0.0,0.0,0.0,0.0,0.0,0.0,0.0,0.0,0.0,0.0,0.0,0.0,0.0,0.0,0.0,0.0,0.0,0.0,0.0,0.0,0.0,0.0,0.0,0.0,0.0,0.0,0.0,0.0,0.0,0.0,0.0,0.0,0.0,0.0,0.0,0.0,0.0,0.0,0.0,0.0,0.0,0.0,0.0,0.0,0.0,0.0,0.0,0.0,0.0,0.0,0.0,0.0,0.0,0.0,0.0,0.0,0.0,0.0,0.0,0.0,3.8459,3.7779,3.8526,3.7825,3.7664,3.8526,3.8462,3.8594,3.9166,3.9694,0.0,0.0,0.0,0.0,0.0,0.0,0.0,0.0,0.0,0.0,0.0,0.0,0.0,0.0,0.0,0.0,0.0,0.0,0.0,0.0,0.0,0.0,0.0,0.0,0.0,0.0,0.0,0.0,0.0,0.0,0.0,0.0,0.0,0.0,0.0,0.0,0.0,0.0,0.0,0.0,0.0,0.0,0.0,0.0,0.0,0.0,0.0,0.0,0.0,0.0,0.0,0.0,0.0,0.0,0.0,0.0,0.0,0.0,0.0,0.0,0.0,0.0,0.0,0.0,0.0,0.0,0.0,0.0,0.0,0.0,0.0,0.0,0.0,0.0,0.0,0.0,0.0,0.0,0.0,0.0,0.0,0.0,0.0,0.0,0.0,0.0,0.0,0.0,0.0,0.0,0.0,0.0,0.0,0.0,0.0,0.0,0.0,0.0,0.0,0.0,0.0,0.0,3.9037,3.8323,3.9409,3.8545,3.8345,3.9453,3.9104,3.9064,3.9519,4.0597,0.0,0.0,0.0,0.0,0.0,0.0,0.0,0.0,0.0,0.0,0.0,0.0,0.0,0.0,0.0,0.0,0.0,0.0,0.0,0.0,0.0,0.0,0.0,0.0,0.0,0.0,0.0,0.0,0.0,0.0,0.0,0.0,0.0,0.0,0.0,0.0,0.0,0.0,0.0,0.0,0.0,0.0,0.0,0.0,0.0,0.0,0.0,0.0,0.0,0.0,0.0,0.0,0.0,0.0,0.0,0.0,0.0,0.0,0.0,0.0,0.0,0.0,0.0,0.0,0.0,0.0,0.0,0.0,0.0,0.0,0.0,0.0,0.0,0.0,0.0,0.0,0.0,0.0,0.0,0.0,0.0,0.0,0.0,0.0,0.0,0.0,0.0,0.0,0.0,0.0,0.0,0.0,0.0,0.0,0.0,0.0,0.0,0.0,0.0,0.0,0.0,0.0,3.9716,3.9453,4.041,3.9651,3.9475,4.0432,4.1268,4.1373,4.056,4.214,0.0,0.0,0.0,0.0,0.0,0.0,0.0,0.0,0.0,0.0,0.0,0.0,0.0,0.0,0.0,0.0,0.0,0.0,0.0,0.0,0.0,0.0,0.0,0.0,0.0,0.0,0.0,0.0,0.0,0.0,0.0,0.0,0.0,0.0,0.0,0.0,0.0,0.0,0.0,0.0,0.0,0.0,0.0,0.0,0.0,0.0,0.0,0.0,0.0,0.0,0.0,0.0,0.0,0.0,0.0,0.0,0.0,0.0,0.0,0.0,0.0,0.0,0.0,0.0,0.0,0.0,0.0,0.0,0.0,0.0,0.0,0.0,0.0,0.0,0.0,0.0,0.0,0.0,0.0,0.0,0.0,0.0,0.0,0.0,0.0,0.0,0.0,0.0,0.0,0.0,0.0,0.0,0.0,0.0,0.0,0.0,0.0,0.0,0.0,0.0,0.0,0.0,4.1007,4.0432,0.0,4.0646,4.0453,4.1394,4.1239,4.1218,4.1478,0.0,0.0,0.0,0.0,0.0,0.0,0.0,0.0,0.0,0.0,0.0,0.0,0.0,0.0,0.0,0.0,0.0,0.0,0.0,0.0,0.0,0.0,0.0,0.0,0.0,0.0,0.0,0.0,0.0,0.0,0.0,0.0,0.0,0.0,0.0,0.0,0.0,0.0,0.0,0.0,0.0,0.0,0.0,0.0,0.0,0.0,0.0,0.0,0.0,0.0,0.0,0.0,0.0,0.0,0.0,0.0,0.0,0.0,0.0,0.0,0.0,0.0,0.0,0.0,0.0,0.0,0.0,0.0,0.0,0.0,0.0,0.0,0.0,0.0,0.0,0.0,0.0,0.0,0.0,0.0,0.0,0.0,0.0,0.0,0.0,0.0,0.0,0.0,0.0,0.0,0.0,0.0,0.0,0.0,0.0,0.0,0.0,0.0,0.0,0.0,0.0,0.0,4.3529,4.2461,4.2009,0.0,4.2199,4.203,4.296,4.2278,4.1933,4.2295,0.0,0.0,0.0,0.0,0.0,0.0,0.0,0.0,0.0,0.0,0.0,0.0,0.0,0.0,0.0,0.0,0.0,0.0,0.0,0.0,0.0,0.0,0.0,0.0,0.0,0.0,0.0,0.0,0.0,0.0,0.0,0.0,0.0,0.0,0.0,0.0,0.0,0.0,0.0,0.0,0.0,0.0,0.0,0.0,0.0,0.0,0.0,0.0,0.0,0.0,0.0,0.0,0.0,0.0,0.0,0.0,0.0,0.0,0.0,0.0,0.0,0.0,0.0,0.0,0.0,0.0,0.0,0.0,0.0,0.0,0.0,0.0,0.0,0.0,0.0,0.0,0.0,0.0,0.0,0.0,0.0,0.0,0.0,0.0,0.0,0.0,0.0,0.0,0.0,0.0,0.0,0.0,0.0,0.0,0.0,0.0,0.0,0.0,0.0,0.0,0.0,0.0,4.4296,4.4078,4.427,4.5191,4.4461,4.4291,4.5212,4.4706,4.395,0.0,0.0,0.0,0.0,0.0,0.0,0.0,0.0,0.0,0.0,0.0,0.0,0.0,0.0,0.0,0.0,0.0,0.0,0.0,0.0,0.0,0.0,0.0,0.0,0.0,0.0,0.0,0.0,0.0,0.0,0.0,0.0,0.0,0.0,0.0,0.0,0.0,0.0,0.0,0.0,0.0,0.0,0.0,0.0,0.0,0.0,0.0,0.0,0.0,0.0,0.0,0.0,0.0,0.0,0.0,0.0,0.0,0.0,0.0,0.0,0.0,0.0,0.0,0.0,0.0,0.0,0.0,0.0,0.0,0.0,0.0,0.0,0.0,0.0,0.0,0.0,0.0,0.0,0.0,0.0,0.0,0.0,0.0,0.0,0.0,0.0,0.0,0.0,0.0,0.0,0.0,0.0,0.0,0.0,0.0,0.0,0.0,0.0,0.0,0.0,0.0,0.0,0.0,4.5005,4.4947,4.5004,4.5284,4.5046,4.5004,4.5284,4.5125,4.4902,4.4623,0.0,0.0,0.0,0.0,0.0,0.0,0.0,0.0,0.0,0.0,0.0,0.0,0.0,0.0,0.0,0.0,0.0,0.0,0.0,0.0,0.0,0.0,0.0,0.0,0.0,0.0,0.0,0.0,0.0,0.0,0.0,0.0,0.0,0.0,0.0,0.0,0.0,0.0,0.0,0.0,0.0,0.0,0.0,0.0,0.0,0.0,0.0,0.0,0.0,0.0,0.0,0.0,0.0,0.0,0.0,0.0,0.0,0.0,0.0,0.0,0.0,0.0,0.0,0.0,0.0,0.0,0.0,0.0,0.0,0.0,0.0,0.0,0.0,0.0,0.0,0.0,0.0,0.0,0.0,0.0,0.0,0.0,0.0,0.0,0.0,0.0,0.0,0.0,0.0,0.0,0.0,0.0,0.0,0.0,0.0,0.0,0.0,0.0,0.0,0.0,0.0,0.0,4.5693,4.5933,4.6112,4.6112,4.6112,4.6112,4.6112,4.5843,4.5693,4.5693,0.0,0.0,0.0,0.0,0.0,0.0,0.0,0.0,0.0,0.0,0.0,0.0,0.0,0.0,0.0,0.0,0.0,0.0,0.0,0.0,0.0,0.0,0.0,0.0,0.0,0.0,0.0,0.0,0.0,0.0,0.0,0.0,0.0,0.0,0.0,0.0,0.0,0.0,0.0,0.0,0.0,0.0,0.0,0.0,0.0,0.0,0.0,0.0,0.0,0.0,0.0,0.0,0.0,0.0,0.0,0.0,0.0,0.0,0.0,0.0,0.0,0.0,0.0,0.0,0.0,0.0,0.0,0.0,0.0,0.0,0.0,0.0,0.0,0.0,0.0,0.0,0.0,0.0,0.0,0.0,0.0,0.0,0.0,0.0,0.0,0.0,0.0,0.0,0.0,0.0,0.0,0.0,0.0,0.0,0.0,0.0,0.0,0.0,0.0,0.0,0.0,0.0,4.639,4.6899,4.7309,4.7309,4.7309,4.7309,4.7309,4.6719,4.639,4.639,0.0,0.0,0.0,0.0,0.0,0.0,0.0,0.0,0.0,0.0,0.0,0.0,0.0,0.0,0.0,0.0,0.0,0.0,0.0,0.0,0.0,0.0,0.0,0.0,0.0,0.0,0.0,0.0,0.0,0.0,0.0,0.0,0.0,0.0,0.0,0.0,0.0,0.0,0.0,0.0,0.0,0.0,0.0,0.0,0.0,0.0,0.0,0.0,0.0,0.0,0.0,0.0,0.0,0.0,0.0,0.0,0.0,0.0,0.0,0.0,4.5454,0.0,0.0,0.0,0.0,0.0,0.0,0.0,0.0,0.0,0.0,0.0,0.0,0.0,0.0,0.0,0.0,0.0,0.0,0.0,0.0,0.0,0.0,0.0,0.0,0.0,0.0,0.0,0.0,0.0,0.0,0.0,0.0,0.0,0.0,0.0,0.0,0.0,0.0,0.0,0.0,0.0,4.71,4.7219,4.7309,4.7309,4.7309,4.7309,4.7309,4.7189,4.71,4.71,0.0,0.0,0.0,0.0,0.0,0.0,0.0,0.0,0.0,0.0,0.0,0.0,0.0,0.0,0.0,0.0,0.0,0.0,0.0,0.0,0.0,0.0,0.0,0.0,0.0,0.0,0.0,0.0,0.0,0.0,0.0,0.0,0.0,0.0,0.0,0.0,0.0,0.0,0.0,0.0,0.0,0.0,0.0,0.0,0.0,0.0,0.0,0.0,0.0,0.0,0.0,0.0,0.0,0.0,0.0,0.0,0.0,0.0,0.0,0.0,0.0,4.5484,0.0,0.0,0.0,0.0,0.0,0.0,0.0,0.0,0.0,0.0,0.0,0.0,0.0,0.0,0.0,0.0,0.0,0.0,0.0,0.0,0.0,0.0,0.0,0.0,0.0,0.0,0.0,0.0,0.0,0.0,0.0,0.0,0.0,0.0,0.0,0.0,0.0,0.0,0.0,0.0,4.7309,4.7309,4.7309,4.7309,4.7309,4.7309,4.7309,4.7309,4.7309,4.7309,4.6958,0.0,0.0,0.0,0.0,0.0,0.0,0.0,0.0,0.0,0.0,0.0,0.0,0.0,0.0,0.0,0.0,0.0,0.0,0.0,0.0,0.0,0.0,0.0,0.0,0.0,0.0,0.0,0.0,0.0,0.0,0.0,0.0,0.0,0.0,0.0,0.0,0.0,0.0,0.0,0.0,0.0,0.0,0.0,0.0,0.0,0.0,0.0,0.0,0.0,0.0,0.0,0.0,0.0,4.7309,4.7309,4.7309,4.7309,4.7309,4.7249,4.6112,4.5963,4.642,0.0,0.0,0.0,0.0,0.0,0.0,0.0,0.0,0.0,0.0,0.0,0.0,0.0,0.0,0.0,0.0,0.0,0.0,0.0,0.0,0.0,0.0,0.0,0.0,0.0,4.7309,4.7309,0.0,0.0,0.0,0.0,0.0,0.0,0.0,0.0,0.0,0.0,0.0,0.0,4.7309,4.7309,4.7309,4.7309,4.7309,4.7309,4.7309,4.7309,4.7309,4.7309,4.7309,4.7309,0.0,0.0,0.0,0.0,0.0,0.0,0.0,0.0,0.0,0.0,0.0,0.0,0.0,0.0,0.0,0.0,0.0,0.0,0.0,0.0,0.0,0.0,0.0,0.0,0.0,0.0,0.0,0.0,0.0,0.0,0.0,0.0,4.5185,4.5274,0.0,0.0,0.0,0.0,0.0,0.0,0.0,0.0,0.0,0.0,0.0,0.0,0.0,4.7189,4.7189,4.7249,4.7309,4.7309,4.7309,4.7309,4.7309,4.7309,4.7309,4.7309,4.713,0.0,4.716,4.707,0.0,0.0,0.0,0.0,0.0,0.0,0.0,0.0,0.0,0.0,0.0,0.0,0.0,0.0,0.0,0.0,0.0,0.0,0.0,0.0,0.0,0.0,4.7309,4.7309,4.7309,4.7309,0.0,4.7309,4.7309,4.7309,0.0,0.0,0.0,0.0,0.0,0.0,0.0,0.0,4.7309,4.7309,4.7309,4.7309,4.7309,4.7309,4.7309,4.7309,4.7309,4.7309,4.7309,4.7309,4.7309,4.7309,0.0,0.0,0.0,0.0,0.0,0.0,0.0,0.0,0.0,0.0,0.0,0.0,0.0,0.0,0.0,0.0,0.0,0.0,0.0,0.0,0.0,0.0,0.0,0.0,0.0,0.0,0.0,0.0,0.0,4.5852,4.6001,4.6381,4.6845,4.697,0.0,0.0,0.0,0.0,0.0,0.0,0.0,0.0,0.0,4.7309,4.7309,4.7309,4.7309,4.7309,4.7309,4.7309,4.7309,4.7309,4.7309,4.7309,4.7309,4.7309,4.7309,4.7309,4.7309,4.7309,4.7309,4.7309,0.0,0.0,0.0,0.0,4.7309,4.7309,4.7309,4.7309,0.0,0.0,0.0,0.0,0.0,0.0,0.0,0.0,0.0,0.0,0.0,0.0,0.0,4.7309,4.7309,4.7309,4.7309,4.7309,4.7309,0.0,4.7309,4.7309,4.7309,0.0,0.0,0.0,0.0,0.0,4.7309,4.7309,4.7309,4.7309,4.7309,4.7309,4.7309,4.7309,4.7309,4.7309,4.7309,4.7309,4.7309,4.7309,4.7309,0.0,0.0,0.0,0.0,0.0,0.0,0.0,0.0,0.0,0.0,0.0,0.0,0.0,0.0,0.0,0.0,0.0,0.0,0.0,0.0,0.0,0.0,0.0,0.0,0.0,0.0,0.0,0.0,4.6752,4.6996,4.7271,4.787,4.8019,0.0,0.0,0.0,0.0,0.0,0.0,4.7309,4.7309,4.7309,4.7309,4.7309,4.7309,4.7309,4.7309,4.7309,4.7309,4.7309,4.7309,4.7309,4.7309,4.7309,4.7309,4.7538,4.7645,4.7624,4.7366,4.7309,4.7331,4.7538,4.7645,4.7666,4.7849,4.7934,4.7934,4.7934,4.7934,4.7934,4.7934,0.0,4.7581,4.7374,0.0,0.0,0.0,0.0,4.7549,4.7549,4.7668,4.7818,4.7818,4.7818,4.7818,4.7818,4.7818,4.7698,0.0,4.7309,4.7309,4.7309,0.0,0.0,0.0,0.0,4.7309,4.7309,4.7309,4.7309,4.7309,4.7309,4.7309,4.7309,4.7309,4.7309,4.7309,4.7309,4.7309,4.7309,4.7309,4.7309,4.7309,0.0,0.0,0.0,0.0,0.0,0.0,0.0,0.0,0.0,0.0,0.0,0.0,0.0,0.0,0.0,0.0,0.0,0.0,0.0,0.0,0.0,0.0,0.0,0.0,0.0,0.0,0.0,0.0,0.0,4.7387,4.7352,0.0,0.0,0.0,0.0,4.7309,4.7309,4.7309,4.7309,4.7309,4.7309,4.7309,4.7309,4.7309,4.7309,4.7309,4.7309,4.7309,4.7309,4.7309,4.7309,4.7309,4.7309,4.7352,4.8187,4.8532,4.847,4.7645,4.7309,4.7396,4.8198,4.8532,4.8635,4.9367,4.9666,4.9666,4.9666,4.9666,4.9666,4.9666,4.9157,4.8386,4.7538,4.7309,0.0,0.0,4.7758,4.8259,4.8259,4.8708,4.9187,4.9187,4.9187,4.9187,4.9187,4.9187,4.8828,0.0,4.7309,4.7309,4.7309,0.0,4.7309,4.7309,4.7309,4.7309,4.7309,4.7309,4.7309,4.7309,4.7309,4.7309,4.7309,4.7309,4.7309,4.7309,4.7309,4.7309,4.7309,4.7309,4.7309,4.7309,4.7309,0.0,0.0,0.0,0.0,0.0,0.0,0.0,0.0,0.0,0.0,0.0,0.0,0.0,0.0,0.0,0.0,0.0,0.0,0.0,0.0,0.0,0.0,0.0,0.0,0.0,0.0,0.0,0.0,4.7352,4.7785,0.0,4.7374,4.7816,4.7892,4.7352,4.7309,4.7489,4.7908,4.7938,4.8139,4.8588,4.8169,4.8191,4.8721,4.8337,4.8407,4.8913,4.9367,4.9605,4.9636,5.0113,5.033,5.0351,5.0632,5.0776,5.0755,5.0455,4.9781,4.8953,4.9226,4.9378,4.9419,4.9686,5.0089,5.052,5.052,5.0825,5.1225,5.1225,5.1022,5.0714,5.0434,4.9909,4.9417,4.9417,4.9194,4.8947,4.8947,4.9127,4.9277,4.9277,4.9277,4.9277,4.9277,4.9277,4.9157,4.8678,4.8588,4.8588,4.8588,4.8588,4.8588,4.8588,4.8588,4.8588,4.8588,4.8588,4.8588,4.8588,4.8588,4.8588,4.8588,4.8588,4.8588,4.8588,4.8177,4.7938,4.7938,4.7519,4.7309,4.7309,4.7309,4.7309,0.0,0.0,0.0,0.0,0.0,0.0,0.0,0.0,0.0,0.0,0.0,0.0,0.0,0.0,0.0,0.0,0.0,0.0,0.0,0.0,0.0,0.0,0.0,0.0,0.0,0.0,4.847,4.8177,4.8646,4.8862,4.8556,4.9058,4.9129,4.8443,4.8709,4.8822,4.8719,4.9257,4.9756,5.0214,5.0022,5.0294,5.1087,5.0694,5.0756,5.1308,5.1783,5.2025,5.2025,5.2521,5.2742,5.2763,5.3052,5.3154,5.3175,5.3459,5.3001,5.2041,5.1266,5.0988,5.1028,5.1301,5.1688,5.2125,5.2125,5.2414,5.2793,5.2533,5.2452,5.2391,5.2086,5.156,5.1108,5.1378,5.0967,5.0464,5.0729,5.069,5.0624,5.0624,5.0624,5.0624,5.0624,5.0624,5.0624,5.0624,4.9905,4.9277,4.9277,4.9277,4.9277,4.9277,4.9277,4.9277,4.9277,4.9277,4.9277,4.9277,4.9277,4.9277,4.9277,4.9277,4.9277,4.9277,4.8887,4.8648,4.8648,4.8229,4.7848,4.7638,4.7934,4.8347,4.8901,0.0,0.0,0.0,0.0,0.0,0.0,0.0,0.0,0.0,0.0,0.0,0.0,0.0,0.0,0.0,0.0,0.0,0.0,0.0,0.0,0.0,0.0,0.0,4.9962,5.0538,5.0761,4.9915,4.9837,5.0121,5.0857,5.092,5.0858,5.0684,5.1508,5.134,4.9755,5.1226,5.2099,5.2131,5.2795,5.3523,5.4264,5.4232,5.4253,5.4274,5.4306,5.4306,5.4306,5.4338,5.4359,5.4401,5.5258,5.5584,5.5592,5.6402,5.6766,5.6556,5.4287,5.3422,5.35,5.4279,5.4574,5.4607,5.4641,5.4641,5.4528,5.372,5.3487,5.333,5.2478,5.2193,5.232,5.3047,5.2946,5.2844,5.3567,5.3476,5.3198,5.3198,5.3198,5.3198,5.3198,5.3198,5.3198,5.3198,5.1163,4.9396,4.9396,4.9396,4.9396,4.9396,4.9396,0.0,4.9396,4.9396,4.9396,4.9396,4.9396,4.9396,4.9396,4.9396,4.9366,4.9366,4.9337,4.9329,4.9352,4.9352,4.9044,4.8437,4.9228,5.0445,5.2005,0.0,0.0,0.0,0.0,0.0,0.0,0.0,0.0,0.0,0.0,0.0,0.0,0.0,0.0,0.0,0.0,0.0,0.0,0.0,0.0,0.0,0.0,5.23,5.094,5.0403,5.0283,5.054,5.0583,5.0888,5.1625,5.172,5.1891,5.2398,5.267,5.3018,5.3593,5.405,5.4548,5.5033,5.477,5.4996,5.5799,5.5357,5.5458,5.602,5.6545,5.6827,5.6827,5.7351,5.7613,5.7613,5.7869,5.795,5.797,5.819,5.8303,5.8118,5.6433,5.5776,5.5781,5.6007,5.6415,5.6978,5.7508,5.7707,5.7634,5.7437,5.7357,5.7317,5.7064,5.6543,5.6024,5.6239,5.5248,5.416,5.4368,5.381,5.3198,5.3198,5.3198,5.3198,5.3198,5.3198,5.3198,5.3198,5.263,5.2121,5.2121,5.2121,5.2121,5.2121,5.2121,0.0,5.2121,5.2121,5.2121,5.2121,5.2121,5.2121,5.2121,5.1702,5.1379,5.1379,5.0511,5.0261,5.0947,5.0503,5.0482,5.0975,5.1215,5.1557,0.0,0.0,0.0,0.0,0.0,0.0,0.0,0.0,0.0,0.0,0.0,0.0,0.0,0.0,0.0,0.0,0.0,0.0,0.0,0.0,0.0,0.0,5.3614,5.3665,5.3067,5.2286,5.2062,5.2772,5.2869,5.3276,5.4317,5.4414,5.4563,5.4939,5.5316,5.5583,5.5709,5.6369,5.6935,5.7334,5.7258,5.7555,5.8362,5.801,5.8092,5.8535,5.8966,5.9164,5.9198,5.9628,5.9827,0.0,5.9827,5.9827,5.9827,5.9827,5.9827,0.0,0.0,0.0,0.0,0.0,5.7873,5.8303,5.8734,5.8899,5.8899,5.8899,5.8899,5.8899,5.8899,5.8523,5.8165,5.846,5.7452,5.6334,5.6672,5.5704,5.4613,5.4613,5.4326,5.4037,5.4037,5.4037,5.4037,5.4037,5.4037,0.0,5.4037,5.3588,5.3198,5.3198,5.3198,5.3198,5.3198,5.3198,5.3198,5.3198,5.3198,5.3198,5.3198,5.2839,0.0,0.0,0.0,5.252,5.3476,5.2878,0.0,0.0,0.0,5.423,5.4887,0.0,0.0,0.0,5.3399,5.2673,0.0,0.0,0.0,0.0,0.0,0.0,0.0,0.0,0.0,0.0,0.0,0.0,0.0,0.0,0.0,0.0,5.4641,5.4972,5.5634,5.5303,5.5204,5.5767,5.5866,5.6396,5.7773,5.7906,5.7871,5.78,5.854,5.8411,5.6978,0.0,0.0,0.0,0.0,6.0456,6.1065,6.1119,6.1119,6.1119,6.1119,6.1119,6.1119,6.1119,6.1119,6.1119,6.1119,6.1119,6.1119,6.1119,6.1119,6.0986,5.9661,5.9164,5.9164,5.9164,5.9164,5.9164,5.9164,0.0,0.0,5.9164,5.9164,5.9164,5.9164,5.9164,5.9264,5.9926,5.9416,5.8756,5.9425,5.8185,5.6783,5.6783,5.6066,5.5355,5.5355,5.528,5.5179,5.5179,5.5179,5.5179,5.5179,5.4216,5.3438,5.3438,5.3438,5.3438,5.3438,5.3438,5.3438,5.3438,0.0,0.0,5.3438,5.3446,5.3458,5.3458,5.4434,5.5411,5.6315,5.5865,5.6264,5.7618,5.7096,5.7466,5.8899,5.8899,5.8899,5.8793,5.4709,5.3194,0.0,0.0,0.0,0.0,0.0,0.0,0.0,0.0,0.0,0.0,0.0,0.0,0.0,0.0,0.0,5.4475,5.5521,5.6316,5.6448,5.7376,5.7873,5.7442,5.7376,5.7707,5.8601,5.8668,5.8938,5.947,5.9659,5.9911,6.0196,6.0506,6.0688,6.0688,6.0821,6.0953,6.1119,6.1119,6.1119,6.1119,0.0,0.0,6.1119,6.1119,6.1119,6.1119,6.1119,6.1119,6.1119,6.1119,6.1119,6.1086,6.0788,6.0688,6.0688,6.0688,6.0688,6.0688,6.0688,6.0688,6.0688,6.0688,6.0688,6.0688,6.0688,6.0688,0.0,6.0854,6.017,5.9425,5.9555,5.8709,5.7816,5.7816,5.7039,5.6329,5.6329,5.572,5.5179,5.5179,5.5179,5.5179,5.5179,5.497,5.479,5.479,5.479,5.479,5.479,5.479,5.479,5.479,5.479,5.479,5.479,5.5062,5.5231,5.5231,5.6302,5.7045,5.7237,5.7866,5.8317,5.8624,5.8492,5.8593,5.8899,5.8899,5.8899,5.8899,5.8003,5.7679,0.0,0.0,0.0,0.0,0.0,0.0,0.0,0.0,0.0,0.0,0.0,5.4607,0.0,0.0,5.5719,5.6084,5.7077,5.7906,5.8303,5.8999,5.9297,5.8933,5.8899,5.9198,5.9926,5.9993,6.0158,6.0523,6.0556,6.0721,6.1086,6.1119,6.1285,6.1637,6.1649,6.1836,6.2179,6.2179,6.2179,6.2179,6.2179,6.2179,6.2179,6.2179,6.2179,6.2179,6.2179,6.2179,6.2179,6.2179,6.2179,6.2179,6.2179,6.1748,6.1119,6.1119,6.1119,6.1119,6.1119,6.1119,6.1119,6.1119,6.1119,6.1119,6.1119,6.1119,6.1119,6.1119,6.0717,6.0345,6.0345,5.9587,5.8844,5.8844,5.8093,5.7347,5.7347,5.659,5.5893,5.5893,5.5526,5.5179,5.5179,5.5179,5.5179,5.5179,5.5179,5.5179,5.5179,5.5179,5.5179,5.5179,5.5179,5.5179,5.5179,5.578,5.6566,5.7588,5.8211,5.8787,5.9264,5.9767,5.9993,5.9993,5.9993,5.9993,5.9993,5.9993,6.0054,6.0156,6.0156,5.9696,0.0,0.0,0.0,0.0,0.0,0.0,0.0,0.0,5.4707,5.4707,5.4939,5.5303,5.5932,5.6647,5.7309,5.7925,5.8634,5.933,5.9926,6.0125,6.0225,6.0225,6.0225,6.0456,6.1053,6.1119,6.1152,6.1318,6.1318,6.1384,6.1516,6.1516,6.1781,6.2399,6.2399,6.2697,6.3294,6.3294,6.3294,6.3294,6.3294,6.3294,6.3294,6.3294,6.3294,6.3294,6.3294,6.3294,6.3294,6.3294,6.3294,6.3294,6.3294,6.2565,6.1516,6.1516,6.1516,6.1516,6.1516,6.1516,6.1516,6.1516,6.1516,6.1516,6.1516,6.1516,6.1516,6.1516,6.1516,6.1516,6.1516,6.0921,6.0326,6.0326,5.9531,5.8795,5.8795,5.7871,5.7014,5.7014,5.6238,5.5568,5.5568,5.5741,5.5757,5.5289,5.5179,5.5179,5.5179,5.5179,5.5179,5.5179,5.5355,5.5626,5.6017,5.6735,5.7955,5.9772,5.9925,6.0302,6.1077,6.1202,6.1256,6.138,6.1422,6.1509,6.1642,6.1642,6.1746,6.1899,6.1899,6.103,5.2391,5.2837,5.3448,5.4177,5.4376,5.4409,0.0,0.0,5.5468,5.5468,5.6495,5.7442,5.7541,5.8171,5.8668,5.8767,5.9396,5.9926,5.9993,6.0556,6.0986,6.0986,6.0986,6.102,6.1086,6.1119,6.1384,6.2034,6.2068,6.2366,6.3029,6.3062,6.3095,6.3161,6.3161,6.3227,6.3294,6.3294,6.3294,6.3294,6.3294,6.3294,6.3294,6.3294,6.3294,6.3294,6.3294,6.3294,6.3294,6.3294,6.3294,6.3294,6.3294,6.3194,6.3062,6.3062,6.3062,6.3062,6.3062,6.3062,6.3062,6.3062,6.3062,6.3062,6.3062,6.3062,6.3062,6.3062,6.3062,6.3062,6.3062,6.2976,6.2878,6.2878,6.2112,6.1384,6.1384,5.9838,5.8479,5.8479,5.7597,5.6885,5.6885,5.7704,5.7581,5.551,5.5179,5.5179,5.5179,5.5179,5.5179,5.5179,5.5967,5.7189,5.8966,5.9212,5.9751,6.0856,6.1094,6.1157,6.1119,6.1458,6.1881,6.2307,6.2515,6.2953,6.3676,6.3676,6.3676,6.3697,6.3697,6.2873,5.35,0.0,0.0,0.0,5.5137,5.5237,5.5686,5.6017,5.6382,5.6812,5.7376,5.7906,5.8369,5.9032,5.9529,0.0,6.0158,6.0655,6.0655,6.1285,6.1736,6.1736,6.2134,6.2212,6.1803,6.2113,6.2532,6.2797,6.283,6.2962,6.3294,6.3294,6.3493,6.3923,6.3957,6.4122,6.4531,6.4531,6.4531,6.4531,6.4531,6.4531,6.4531,6.4531,6.4531,6.4531,6.4531,6.4531,6.4531,6.4531,6.4531,6.4531,6.4531,6.4531,6.4432,6.3592,6.3294,6.3294,6.3294,6.3294,6.3294,6.3294,6.3294,6.3294,6.3294,6.338,6.3466,6.3466,6.3466,6.3466,6.3466,6.338,6.3294,6.3294,6.3066,6.2815,6.2716,6.1633,6.062,6.0511,5.9283,5.8464,5.9111,5.8695,5.8316,5.839,5.8273,5.8182,5.8182,5.8182,5.8182,5.8182,5.8515,5.9317,6.076,6.0974,6.1491,6.2472,6.2799,6.2883,6.2799,6.2966,6.3141,6.3359,6.3463,6.3672,6.4007,6.4007,6.4036,6.4182,6.4182,6.3908,5.4682,0.0,0.0,5.5719,5.5899,5.6098,5.6846,5.6998,5.721,5.7939,5.827,5.8568,5.9098,5.9827,6.0291,6.0291,6.092,6.1417,6.1417,6.2034,6.2498,6.2498,6.3161,6.3393,6.2863,6.3095,6.3393,6.3592,6.3592,6.3691,6.389,6.389,6.4122,6.4664,6.4686,6.4895,6.5403,6.5602,6.5701,6.5701,6.59,6.5999,6.5999,6.5999,6.5999,6.5999,6.5999,6.5999,6.5999,6.5999,6.5999,6.6022,6.6089,6.6134,6.6001,6.506,6.4374,6.3977,6.3977,6.402,6.4085,6.4085,6.4085,6.4085,6.4085,6.4193,6.43,6.43,6.43,6.43,6.43,6.4193,6.4085,6.4085,6.4193,6.4257,6.4107,6.3397,6.2762,6.2613,6.1264,6.0425,6.1193,6.0481,6.0268,6.1571,6.1859,6.1513,6.0424,6.0297,6.0416,6.0676,6.0699,6.1151,6.2185,6.243,6.2848,6.3657,6.3932,6.4036,6.4007,6.4099,6.422,6.438,6.4422,6.4665,6.5068,6.5068,6.5253,6.5623,6.5623,6.5686,5.5669,0.0,5.5979,5.6539,5.6666,5.6865,5.7594,5.7773,5.7972,5.8701,5.9429,5.9926,5.996,6.0589,6.1086,6.1086,6.1703,6.2167,6.2167,6.2797,6.3261,6.3261,6.3923,6.4354,0.0,6.3725,6.3592,6.4321,6.4387,6.463,6.5304,6.5337,6.5337,6.537,6.537,6.537,6.5403,6.6099,6.6463,6.6463,6.7191,6.7523,6.7523,6.7523,6.7523,6.7523,6.7523,6.7523,6.7523,6.7523,6.7523,6.7546,6.782,6.7934,6.7957,6.8171,6.7168,6.5713,6.5713,6.5866,6.6029,6.6029,6.6029,6.6029,6.6029,6.6029,6.6029,6.6029,6.6029,6.6029,6.6029,6.6029,6.6029,6.6029,6.6029,6.6029,6.6029,6.5215,6.4505,6.4505,6.3606,6.2892,6.294,6.3756,6.4414,6.446,6.5282,6.4553,6.0788,6.0297,6.0676,6.1666,6.1757,6.223,6.3432,6.3551,6.3679,6.3986,6.4182,6.4203,6.4028,6.4368,6.4829,6.5329,6.5538,6.6373,6.7772,6.7772,6.8178,6.8956,6.8956,6.8977,5.6421,0.0,5.6763,5.7302,5.7428,5.7647,5.8548,5.8635,5.8774,5.9664,5.9929,6.0158,6.0655,6.1318,6.2001,6.2498,6.2764,6.3095,6.3592,6.3857,6.4023,6.3968,6.5061,0.0,0.0,0.0,0.0,6.5757,6.579,6.6121,6.6827,6.686,6.686,6.686,6.686,6.686,6.686,6.7125,6.7224,6.7224,6.7489,6.7589,6.7589,6.7589,6.7589,6.7589,6.7589,6.7589,6.7589,6.7589,6.7704,6.7887,6.7978,6.8114,6.8272,6.8395,6.8127,6.7701,6.758,6.7558,6.7646,6.7646,6.7646,6.7646,6.7646,6.7701,6.7833,6.7833,6.7833,6.7833,6.7833,6.7723,6.7646,6.7646,6.7723,6.7789,6.7635,6.748,6.7291,6.7134,6.6417,6.598,6.6682,6.6096,6.5721,6.6222,6.6213,6.5634,6.432,6.4143,6.4287,6.463,6.4652,6.5005,6.591,6.6151,6.6482,6.7093,6.7343,6.7462,6.7377,6.7505,6.7649,6.7855,6.792,6.8199,6.8707,6.8707,6.8842,6.9113,6.9113,6.9113,5.7082,5.732,5.7659,5.7947,5.8208,5.8646,5.9498,5.9605,5.9745,6.0618,6.0684,6.0815,6.1546,6.2269,6.2858,6.3335,6.3854,6.4243,6.4387,6.515,6.5559,6.5293,6.6464,6.725,0.0,0.0,0.0,6.686,6.6893,6.7092,6.7589,6.7589,6.7589,6.7589,6.7589,6.7589,6.7589,6.7854,6.8119,6.8407,6.8407,6.8407,6.8407,6.8407,6.8407,6.8407,6.85,6.8523,6.8523,6.8616,6.8721,6.8904,6.8995,6.9132,6.9301,6.939,6.9525,6.9513,6.8786,6.8562,6.8662,6.8662,6.8662,6.8662,6.8662,6.875,6.8849,6.8849,6.8849,6.8849,6.8849,6.8772,6.8662,6.8662,6.8772,6.8805,6.8684,6.8739,6.8783,6.8684,6.8216,6.8103,6.8739,6.7878,6.7271,6.7798,6.748,6.7096,6.6943,6.6921,6.6921,6.6921,6.6921,6.7144,6.7701,6.7889,6.8255,6.8793,6.8992,6.9113,6.9113,6.9113,6.9113,6.9113,6.9113,6.9214,6.9485,6.9485,6.962,6.9891,6.9891,6.9891,5.7621,5.816,5.8675,5.8533,5.905,5.9753,6.049,6.0658,6.0872,6.1575,6.1743,6.1977,0.0,0.0,6.3715,6.3715,6.4935,6.5603,6.4785,6.6567,6.7711,0.0,0.0,0.0,0.0,0.0,0.0,6.7744,0.0,6.7711,6.7744,6.7721,6.7721,6.7721,6.7721,6.7721,6.7721,6.8407,6.9103,6.9798,6.9822,6.9822,6.9822,6.9846,6.9846,6.9846,7.0106,7.02,7.0223,7.0399,7.0515,7.0538,7.0802,7.0916,7.0939,7.1222,7.1289,7.1064,6.9411,6.9005,6.9214,6.9214,6.9214,6.9214,6.9214,6.9214,6.9214,6.9214,6.9214,6.9214,6.9214,6.9214,6.9214,6.9214,6.9214,6.9214,6.9214,6.9214,6.9214,6.9214,6.9214,6.9214,6.9214,6.9214,6.9214,6.9214,6.9214,6.9027,6.8506,6.8462,6.8462,6.8462,6.8462,6.8529,6.875,6.8772,6.8894,6.9192,6.9214,6.9214,6.9214,6.9214,6.9214,6.9214,6.9214,6.9553,7.0263,7.0263,7.0601,7.1289,7.1289,7.1289,5.8073,5.8451,5.8911,5.9826,6.0169,6.0543,6.144,6.1528,6.1515,6.1843,6.2233,6.258,0.0,0.0,0.0,6.5474,6.6243,0.0,6.8048,6.7736,0.0,6.874,0.0,6.9194,6.8925,6.9356,0.0,0.0,6.8925,6.8951,6.9517,6.9329,6.9235,6.9235,6.9235,6.9235,6.9235,6.9434,6.9599,6.9798,6.9988,7.0082,7.0106,7.0236,7.0306,7.033,7.0376,7.0399,7.0456,7.0469,7.0608,7.0802,7.087,7.1007,7.1222,7.1267,7.1289,7.1255,7.0805,7.067,7.0714,7.0714,7.0714,7.0714,7.0714,7.0714,7.0714,7.0714,7.0714,7.0714,7.0714,7.0714,7.0714,7.0714,7.0714,7.0714,7.0714,7.0714,7.0714,7.0714,7.0714,7.0714,7.0714,7.0714,7.0714,7.0714,7.0714,7.032,6.9095,6.8904,6.8904,6.8904,6.8904,6.9162,6.9769,6.9825,7.0061,7.068,7.0714,7.0714,7.0714,7.0714,7.0714,7.0714,7.0714,7.0816,7.1041,7.1041,7.1142,7.1289,7.1289,7.1289,5.893,5.9477,6.0006,6.0751,6.115,6.1526,6.2048,6.207,6.2131,6.2588,6.2912,0.0,6.3962,0.0,0.0,0.0,0.0,0.0,6.8428,6.8663,6.8987,0.0,7.0069,0.0,6.99,7.0536,7.0971,0.0,7.0,6.9579,6.9978,6.9893,6.9798,6.9798,6.9798,6.9798,6.9798,7.0216,7.0453,7.0453,7.108,7.1365,7.1332,7.1473,7.152,7.152,0.0,7.1626,7.165,7.1766,7.1904,7.2053,7.2053,7.2145,7.2259,7.2259,7.2259,7.2259,7.2259,7.2259,7.2157,7.1515,7.1289,7.1289,7.1289,7.1289,7.1289,7.1289,7.1289,7.1289,7.1289,7.1289,7.1289,7.1289,7.1289,7.1289,7.1289,7.1289,7.1289,7.1289,7.1289,7.1289,7.1289,7.1289,7.1289,7.1289,7.1289,7.0985,7.0161,7.006,7.006,7.006,7.006,7.0229,7.0635,7.0669,7.0872,7.1255,7.1289,7.1289,7.1289,7.1289,7.1289,7.1289,7.1289,7.1289,7.1289,7.1289,7.1458,7.1785,7.1785,7.1954,5.999,6.0757,6.1332,6.1434,6.1907,6.24,6.24,6.2502,6.2719,6.3376,0.0,6.4174,6.5459,6.6238,6.6684,6.6684,0.0,6.8639,6.7847,6.9615,7.0669,6.9949,7.0976,7.1526,7.1095,7.1724,7.2231,7.2449,7.1045,7.0182,7.0182,7.0182,7.0216,7.0216,7.0216,7.0216,7.0216,7.1052,7.1504,7.1504,7.241,7.283,7.283,7.2887,7.2878,7.2878,0.0,0.0,7.3151,7.3384,7.35,7.35,7.35,7.35,7.35,7.35,7.35,7.35,7.35,7.35,7.3297,7.2022,7.1594,7.1594,7.1594,7.1594,7.156,7.1458,7.1424,7.1424,7.1323,7.1289,7.1289,7.1289,7.1289,7.1289,7.1289,7.1289,7.1289,7.1289,7.1289,7.1289,7.1289,7.1289,7.1289,7.1289,7.1289,7.1289,7.1289,7.1289,7.1289,7.1289,7.1289,7.1289,7.1289,7.1289,7.1289,7.1289,7.1289,7.1323,7.1424,7.1424,7.1515,7.1594,7.1594,7.1594,7.1594,7.1594,7.1921,7.2563,7.2563,7.2868,6.0835,6.1197,6.1467,6.2042,6.2333,6.24,6.24,6.2854,0.0,0.0,6.4478,6.5412,6.5649,6.6791,6.7662,6.7662,6.8946,7.0095,0.0,0.0,7.1391,0.0,0.0,0.0,0.0,0.0,0.0,0.0,0.0,7.2271,7.2181,7.2238,7.2271,7.2271,7.2271,7.2271,7.2271,7.2453,7.2544,7.2544,7.2882,7.3067,7.3067,7.3301,7.3394,7.3361,7.3407,0.0,7.343,7.3477,7.35,7.35,7.35,7.35,7.35,7.35,7.35,7.35,7.35,7.35,7.3466,7.3206,7.3105,7.3105,7.3105,7.3105,7.2969,7.2394,7.2225,7.209,7.1458,7.1289,7.1289,7.1289,7.1289,7.1289,7.1289,7.1289,7.1289,7.1289,7.1289,7.1289,7.1289,7.1289,7.1289,7.1289,7.1289,7.1289,7.1289,7.1289,7.1289,7.1289,7.1289,7.1289,7.1289,7.1289,7.1289,7.1289,7.1289,7.156,7.2191,7.2225,7.2496,7.3105,7.3105,7.3105,7.3105,7.3105,7.3172,7.3308,7.3308,7.3398,6.1559,6.1873,6.1941,6.2333,6.2685,6.2956,6.2956,0.0,0.0,0.0,6.5189,6.5818,6.6203,6.7151,0.0,6.7895,6.9519,7.077,7.0737,0.0,0.0,0.0,0.0,0.0,0.0,0.0,0.0,0.0,0.0,7.385,7.2816,7.2782,7.2816,7.2816,7.2816,7.2816,7.2816,7.3328,7.3577,7.3577,7.4151,7.4438,7.4438,7.458,7.4627,7.4627,7.4627,0.0,7.4627,7.4627,7.4627,7.4627,7.4627,7.4627,7.4627,7.4627,7.4627,7.4627,7.4627,7.4627,7.4627,7.4627,7.4143,7.35,7.35,7.35,7.3432,7.3071,7.2969,7.2868,7.2529,7.2428,7.2428,7.2428,7.2428,7.2428,7.2428,7.2428,7.2428,7.2428,7.2428,7.2428,7.2428,7.2428,7.2428,7.2428,7.2428,7.2428,7.2428,7.2428,7.2293,7.1921,7.2225,7.2428,7.2428,7.2428,7.2428,7.2428,7.2428,7.2597,7.2935,7.2969,7.3161,7.35,7.35,7.35,7.35,7.35,7.368,7.4052,7.4052,7.4289,6.2113,6.24,6.2434,6.2584,6.3091,6.3545,6.368,6.4309,0.0,0.0,6.5852,6.6102,6.669,6.7421,6.7963,0.0,7.006,7.1278,7.0534,7.1718,7.2292,0.0,0.0,0.0,0.0,0.0,0.0,0.0,0.0,0.0,7.351,7.3381,7.3347,7.3419,7.3419,7.3419,7.3419,7.4214,7.4579,7.4637,7.5344,7.5709,7.5709,7.5709,7.5709,7.5709,7.5709,0.0,0.0,7.5709,7.5709,7.5709,7.5709,7.5709,7.5709,7.5709,7.5709,7.5709,7.5709,7.5709,7.5709,7.5709,7.4897,7.395,7.395,7.395,7.394,7.3804,7.3713,7.368,7.3567,7.35,7.35,7.35,7.35,7.35,7.35,7.35,7.35,7.35,7.35,7.35,7.35,7.35,7.35,7.35,7.35,7.35,7.35,7.3612,7.351,7.2935,7.324,7.35,7.35,7.35,7.35,7.35,7.35,7.3544,7.3713,7.3713,7.3815,7.395,7.395,7.395,7.395,7.395,7.4255,7.4864,7.4864,7.5168,6.2288,6.24,6.255,6.3207,6.3443,6.368,6.4343,0.0,0.0,6.5683,6.6237,6.6724,6.6791,6.7421,6.8132,6.8876,7.0838,7.2056,7.1312,7.2462,7.3105,7.2371,0.0,0.0,0.0,0.0,0.0,0.0,0.0,0.0,7.5435,7.5219,7.5195,7.5435,7.5435,7.5435,7.5435,7.5526,7.5584,7.5584,7.5676,7.5709,7.5709,7.5709,7.5709,7.5709,7.5709,0.0,0.0,7.5709,7.5709,7.5709,7.5709,7.5709,7.5709,7.5709,7.5709,7.5709,7.5709,7.5709,7.5709,7.5709,7.5608,7.5506,7.5506,7.5506,7.5371,7.4695,7.4502,7.4356,7.3646,7.35,7.35,7.35,7.35,7.35,7.35,7.35,7.35,7.35,7.35,7.35,7.35,7.35,7.35,7.35,7.35,7.35,7.35,7.4086,7.4492,7.4424,7.3849,7.35,7.35,7.35,7.35,7.35,7.35,7.3781,7.4492,7.4502,7.483,7.5473,7.5506,7.5506,7.5506,7.5506,7.554,7.5608,7.5608,7.5642,6.2263,6.264,6.2965,6.3389,6.4174,6.4884,6.5189,0.0,6.6373,6.6373,6.6609,6.6948,6.7387,6.8098,6.8876,6.962,7.1244,7.2157,7.1391,7.2191,7.2732,7.2428,0.0,0.0,0.0,0.0,0.0,0.0,0.0,0.0,7.5709,7.5614,7.559,7.5709,7.5709,7.5709,7.5709,7.5709,7.5709,7.5709,7.5709,7.5709,7.5709,7.5709,7.5709,7.5709,7.5709,0.0,0.0,7.5709,7.5709,7.5709,7.5709,7.5709,7.5709,7.5709,7.5709,7.5709,7.5709,7.5709,7.5709,7.5709,7.5709,7.5709,7.5709,7.5709,7.5642,7.5337,7.527,7.5202,7.4897,7.4796,7.4796,7.4796,7.4796,7.4796,7.4796,7.4796,7.4796,7.4796,7.4796,7.4796,7.4796,7.4796,7.4796,7.4796,7.4796,7.4796,7.4796,7.5067,7.527,7.527,7.4999,7.4796,7.4796,7.4796,7.4796,7.4796,7.4796,7.4965,7.5236,7.527,7.5405,7.5676,7.5709,7.5709,7.5709,7.5709,7.5709,7.5709,7.5709,7.5709,6.211,6.2723,6.3303,6.3707,6.4783,6.5784,0.0,0.0,6.6728,6.6791,6.6749,6.6943,6.7686,6.8528,6.9328,6.9972,7.1402,7.2157,7.1391,7.1954,7.2462,0.0,0.0,0.0,0.0,0.0,0.0,0.0,0.0,0.0,7.5709,7.5709,7.5709,7.5709,7.5709,7.5709,7.5709,7.5709,7.5709,7.5709,7.5709,7.5709,7.5709,7.5709,7.5709,7.5709,0.0,0.0,0.0,7.5709,7.5709,7.5709,7.5709,7.5709,7.5709,7.5709,7.5709,7.5709,7.5709,7.5709,7.5709,7.5709,7.5709,7.5709,7.5709,7.5709,7.5709,7.5709,7.5709,7.5709,7.5709,7.5709,7.5709,7.5709,7.5709,7.5709,7.5709,7.5709,7.5709,7.5709,7.5709,7.5709,7.5709,7.5709,7.5709,7.5709,7.5709,7.5709,7.5709,7.5709,7.5709,7.5709,7.5709,7.5709,7.5709,7.5709,7.5709,7.5709,7.5709,7.5709,7.5709,7.5709,7.5709,7.5709,7.5709,7.5709,7.5709,7.5709,7.5709,7.5709,7.5709,7.5811,6.1897,6.2589,6.3438,6.435,6.5155,6.5865,0.0,6.6622,6.6571,6.6749,6.6656,6.6742,6.7449,6.842,6.9228,6.9715,7.1255,7.2157,7.1391,7.1954,7.2665,0.0,0.0,0.0,0.0,0.0,0.0,0.0,0.0,0.0,7.5709,7.5709,7.5709,7.5709,7.5709,7.5709,7.5709,7.5709,7.5709,7.5709,7.5709,7.5709,7.5709,7.5709,7.5709,0.0,0.0,0.0,0.0,7.5709,7.5709,7.5709,7.5709,7.5709,7.5709,7.5709,7.5709,7.5709,7.5709,7.5709,7.5709,7.5709,7.5709,7.5709,7.5709,7.5709,7.5709,7.5709,7.5709,7.5709,7.5709,7.5709,7.5709,7.5709,7.5709,7.5709,7.5709,7.5709,7.5709,7.5709,7.5709,7.5709,7.5709,7.5709,7.5709,7.5709,7.5709,7.5709,7.5709,7.5709,7.5709,7.5709,7.5709,7.5709,7.5709,7.5709,7.5709,7.5709,7.5709,7.5709,7.5709,7.5709,7.5709,7.5709,7.5709,7.5709,7.5709,7.5709,7.5709,7.5709,7.5709,7.6115,6.2325,6.2994,6.3743,6.4878,6.5703,6.6352,6.6736,6.6749,6.6707,6.6791,6.7155,6.7686,6.8497,6.9306,7.0072,7.0726,7.1278,7.156,7.1323,0.0,0.0,7.3364,7.439,7.5202,0.0,0.0,0.0,0.0,0.0,0.0,7.5709,7.5709,7.5709,7.5709,7.5709,7.5709,7.5709,7.5709,7.5709,7.5709,7.5709,7.5709,7.5709,7.5709,0.0,0.0,0.0,0.0,0.0,7.5709,7.5709,7.5709,7.5709,7.5709,7.5709,7.5709,7.6048,7.6521,7.6521,7.686,7.7266,7.7266,7.7266,7.7164,7.6657,7.6149,7.5709,7.5709,7.5709,7.5709,7.5709,7.5709,7.5709,7.5709,7.5709,7.5709,7.5709,7.5709,7.5709,7.5709,7.5709,7.5709,7.5709,7.5709,7.5709,7.5709,7.5709,7.5709,7.5709,7.5709,7.5709,7.5709,7.5709,7.5709,7.5709,7.5709,7.5709,7.5709,7.5709,7.5709,7.5709,7.5709,7.5709,7.5709,7.5709,7.598,7.6521,7.6521,7.7029,7.8044,7.8551,7.8923,6.2399,6.3133,6.3888,6.5089,6.5935,0.0,6.6677,6.6698,6.6766,6.7057,6.7462,6.8104,6.9184,6.9813,7.041,7.1041,7.1244,7.1289,0.0,0.0,0.0,7.3331,0.0,0.0,0.0,0.0,0.0,0.0,0.0,0.0,7.6149,7.6149,7.6284,7.6555,7.6284,7.6284,7.6555,7.6555,7.6555,7.6555,7.6555,7.6555,7.6555,7.6555,0.0,0.0,0.0,0.0,0.0,7.6555,7.6555,7.6555,7.6555,7.6555,7.6555,7.6555,7.6893,7.7299,7.7299,7.7604,7.8,7.8,7.8,7.7933,7.7435,7.6555,7.5709,7.5709,7.5709,7.5709,7.5709,7.5709,7.5709,7.5709,7.5709,7.5709,7.5709,7.5709,7.5709,7.5709,7.5709,7.5709,7.5709,7.5709,7.5709,7.5709,7.5709,7.5709,7.5709,7.5709,7.5709,7.5709,7.5709,7.5811,7.6115,7.5879,7.5709,7.5709,7.5709,7.5845,7.6149,7.642,7.669,7.6995,7.7266,7.7638,7.8145,7.8145,7.8619,7.9532,7.9701,7.9938,0.0,6.3061,0.0,0.0,0.0,0.0,6.6507,6.6541,0.0,6.7471,6.7707,6.8178,6.9558,7.0062,7.0433,7.086,7.1154,0.0,0.0,7.1391,0.0,0.0,7.483,0.0,0.0,0.0,0.0,0.0,0.0,0.0,7.7029,7.7063,7.7401,7.8204,7.757,7.7502,7.8044,7.8102,7.8102,7.817,7.817,7.817,7.817,7.817,0.0,0.0,0.0,0.0,0.0,7.817,7.817,7.817,7.817,7.817,7.817,7.817,7.8204,7.8213,7.8213,7.8271,7.8305,7.8305,7.8305,7.8213,7.8213,7.7096,7.5845,7.5845,7.5845,7.5845,7.5845,7.5845,7.5845,7.5845,7.5845,7.5845,7.5811,7.5777,7.5777,7.5709,7.5743,7.5777,7.5777,7.5879,7.5946,7.5946,7.598,7.6014,7.6014,7.6014,7.6014,7.6014,7.598,7.6251,7.6995,7.6318,7.5879,7.5946,7.598,7.6352,7.7096,7.7739,7.8382,7.9092,7.9769,8.0107,8.0107,8.0209,8.0276,8.0242,7.9634,7.9701,6.2894,0.0,6.3786,0.0,0.0,6.6086,0.0,6.7073,6.7425,6.7754,6.8777,6.9689,7.0027,7.0624,7.1086,7.1188,7.1267,7.1289,7.1289,0.0,0.0,7.4221,0.0,0.0,0.0,0.0,0.0,0.0,0.0,7.7198,7.8517,7.8585,7.9194,8.0505,8.0369,7.9803,7.8855,7.8855,7.9126,7.9667,7.9667,7.9667,7.9667,7.9667,0.0,0.0,0.0,0.0,7.9667,7.9667,7.9667,7.9667,7.9667,7.9667,7.9667,7.9667,8.004,8.0538,8.0538,8.0885,8.1359,8.1359,8.0987,8.0538,8.0538,7.9117,7.7459,7.7459,7.7459,7.7459,7.7459,7.7459,7.7459,7.7459,7.7459,7.7299,7.6724,7.6623,7.6454,7.5811,7.6183,7.6623,7.6623,7.757,7.8314,7.8314,7.8788,7.9126,7.9126,7.9126,7.9126,7.9126,7.8653,7.8382,7.8585,7.7874,7.7705,7.828,7.8822,7.9228,7.9431,7.9058,7.8923,7.9101,7.9295,7.9363,7.9363,8.0479,8.1021,8.1054,8.146,8.1731,6.3095,6.3559,6.4143,6.5589,6.5889,6.5989,6.6695,6.725,6.7764,6.8349,6.9366,7.0275,7.0501,7.0951,7.1289,0.0,7.1289,0.0,0.0,0.0,7.4153,7.4536,7.527,0.0,0.0,0.0,0.0,0.0,0.0,7.8551,8.004,8.0107,8.0615,8.1765,8.1799,8.1426,8.0623,8.0589,8.0818,8.1224,8.1224,8.1224,8.119,8.0851,8.0682,0.0,0.0,0.0,8.0209,8.0209,8.0209,8.0209,8.0209,8.0209,8.0209,8.0209,8.0445,8.0809,8.0809,8.1054,8.1393,8.1393,8.1122,8.0809,8.0809,7.9938,7.8991,7.8991,7.8991,7.8991,7.8991,7.8991,7.8991,7.8991,7.8991,7.8889,7.8483,7.8416,7.828,7.7841,7.8111,7.8416,7.8416,7.9092,7.96,7.96,7.9667,7.9701,7.9701,7.9397,7.9194,7.9194,7.8822,7.872,7.9067,7.9058,7.8889,7.8619,7.8957,7.9329,7.9701,7.9634,7.9938,8.0615,8.0589,8.0589,8.0615,8.1426,8.1799,8.1799,8.1866,8.19,6.3261,6.399,6.4763,6.5603,6.5858,6.6091,6.6835,6.7457,6.8115,6.9062,6.9816,7.0422,7.0883,7.1154,0.0,0.0,0.0,0.0,7.2462,7.3747,7.4661,7.4762,7.5337,0.0,0.0,0.0,0.0,0.0,0.0,8.0073,8.1554,8.1554,8.1799,8.2543,8.2475,8.2408,8.2408,8.2408,8.2408,8.2408,8.2408,8.2408,8.2408,8.1731,8.146,0.0,0.0,0.0,8.0547,8.0547,8.0547,8.0547,8.0547,8.0547,8.0547,8.0547,8.0547,8.0547,8.0547,8.0547,8.0547,8.0547,8.0547,8.0547,8.0547,8.0547,8.0547,8.0547,8.0378,8.0209,8.0209,8.0209,8.0209,8.0209,8.0209,8.0175,8.0073,8.004,8.0006,7.9904,7.9972,8.004,8.004,8.0209,8.0378,8.0378,7.9938,7.9575,7.9575,7.9058,7.8653,7.8653,7.8576,7.8754,7.9397,7.9904,7.9667,7.8416,7.8576,7.8889,7.9431,8.004,8.0885,8.2035,8.2069,8.2069,8.2069,8.2069,8.2069,8.2069,8.1426,8.1148,6.4023,6.473,6.5337,6.5702,6.6091,6.6589,6.731,6.8205,6.9085,6.9861,7.0423,7.0872,7.1165,7.1267,7.1289,0.0,0.0,7.2496,0.0,0.0,7.483,7.5473,0.0,7.6251,0.0,0.0,0.0,0.0,0.0,8.1596,8.3084,8.2577,8.2577,8.3321,8.2746,8.2408,8.2408,8.2408,8.2408,8.2408,8.2408,8.2408,8.2408,8.2306,8.2238,8.2238,0.0,8.2069,8.2069,8.2069,8.2069,8.2069,8.2069,8.2069,8.2069,8.2069,8.2069,8.2069,8.2069,8.2069,8.2069,8.2069,8.2069,8.2069,8.2069,8.2069,8.2069,8.2069,8.1156,8.0209,8.0209,8.0209,8.0209,8.0209,8.0209,8.004,7.9397,7.9295,7.9092,7.845,7.8855,7.9295,7.9295,8.031,8.1148,8.1148,8.1562,8.1874,8.1874,8.1799,8.1731,8.1731,8.1156,8.0843,8.0953,8.0479,8.0107,7.987,8.1021,8.1494,8.0953,8.1054,8.0919,8.0547,8.0547,8.0547,8.0547,8.0547,8.0547,8.0547,8.0412,8.0378,6.4321,6.5194,6.6067,6.6313,6.6467,6.6831,6.8104,6.8884,6.9532,7.022,7.0748,7.1131,7.1109,0.0,7.1424,7.1853,0.0,7.324,7.3984,0.0,0.0,0.0,0.0,0.0,0.0,0.0,0.0,0.0,0.0,0.0,8.3422,8.2813,8.2577,8.2881,8.2577,8.2205,8.1799,8.1799,8.2002,8.2408,8.2408,8.2408,8.2408,8.2002,8.1799,8.1765,0.0,8.1224,8.1224,8.1224,8.1224,8.1224,8.1224,8.1224,8.1224,8.1224,8.1224,8.1224,8.1224,8.1224,8.1224,8.1224,8.1224,8.1224,8.1224,8.1224,8.1224,8.1224,8.1291,8.1393,8.1393,8.1393,8.1393,8.1393,8.1393,8.1291,8.0987,8.086,8.0784,8.0445,8.0648,8.086,8.086,8.146,8.19,8.19,8.1832,8.1799,8.1799,8.146,8.1224,8.1224,8.0919,8.0716,8.0716,8.0378,8.0209,8.0209,8.0851,8.1054,8.0716,8.0716,8.0547,8.0209,8.0209,8.0209,8.0209,8.0209,8.0209,8.0209,8.0209,8.0209,6.4796,6.569,6.6641,6.7176,6.7185,6.7405,6.8925,6.9463,6.9856,7.0553,7.0961,7.1176,7.1007,7.1312,0.0,7.2326,7.3172,7.395,0.0,0.0,0.0,0.0,0.0,0.0,0.0,0.0,0.0,0.0,0.0,0.0,8.3219,8.2543,8.2137,8.2137,8.1968,8.1596,8.1046,8.1021,8.1325,8.19,8.19,8.19,8.1866,8.1291,8.1021,8.1012,8.0445,8.0209,8.0209,8.0209,8.0209,8.0209,8.0209,8.0209,8.0209,8.0209,8.0209,8.0209,8.0209,8.0209,8.0209,8.0209,8.0209,8.0209,8.0209,8.0209,8.0209,8.0209,8.1021,8.19,8.19,8.19,8.19,8.19,8.19,8.19,8.19,8.19,8.19,8.19,8.19,8.19,8.19,8.19,8.19,8.19,8.1393,8.1021,8.1021,8.0547,8.0209,8.0209,8.0209,8.0209,8.0209,8.0209,8.0209,8.0209,8.0209,8.0209,8.0209,8.0209,8.0209,8.0209,8.0209,8.0209,8.0209,8.0209,8.0209,8.0209,8.0209,8.0209,6.5989,6.643,6.6827,6.8231,6.8563,6.8726,6.9569,6.9957,7.0376,7.1075,0.0,0.0,0.0,7.183,7.2326,7.2394,7.3612,7.4559,7.457,0.0,0.0,0.0,0.0,0.0,0.0,0.0,0.0,0.0,0.0,0.0,8.2475,8.1765,8.1384,8.1384,8.0716,8.0344,8.0276,8.0276,8.031,8.0344,8.0344,8.0344,8.0344,8.031,8.0276,8.0276,8.0209,8.0209,8.0209,8.0209,8.0209,8.0209,8.0209,8.0209,8.0209,8.0209,8.0209,8.0209,8.0209,8.0209,8.0209,8.0209,8.0209,8.0209,8.0209,8.0209,8.0209,8.0209,8.0276,8.0344,8.0344,8.0344,8.0344,8.0344,8.0344,8.0344,8.0344,8.0344,8.0344,8.0344,8.0344,8.0344,8.0344,8.0344,8.0344,8.0344,8.031,8.0276,8.0276,8.0242,8.0209,8.0209,8.0209,8.0209,8.0209,8.0209,8.0209,8.0209,8.0209,8.0209,8.0209,8.0209,8.0209,8.0209,8.0209,8.0209,8.0209,8.0209,8.0209,8.0209,8.0209,8.0209,6.6363,6.7158,6.8056,6.8782,6.9177,6.9533,7.0113,7.0291,7.0526,7.0961,7.1109,0.0,0.0,0.0,7.2699,7.3612,7.4255,7.4908,7.5912,7.6521,0.0,0.0,0.0,0.0,0.0,0.0,0.0,0.0,0.0,0.0,8.1697,8.1021,8.0615,8.0615,8.0344,8.0209,8.0209,8.0209,8.0209,8.0209,8.0209,8.0209,8.0209,8.0209,8.0209,8.0209,8.0209,8.0209,8.0209,8.0209,8.0209,8.0209,8.0209,8.0209,8.0209,8.0209,8.0209,8.0209,8.0209,8.0209,8.0209,8.0209,8.0209,8.0209,8.0209,8.0209,8.0209,8.0209,8.0209,8.0209,8.0209,8.0209,8.0209,8.0209,8.0209,8.0209,8.0209,8.0209,8.0209,8.0209,8.0209,8.0209,8.0209,8.0209,8.0209,8.0209,8.0209,8.0209,8.0209,8.0209,8.0209,8.0209,8.0209,8.0209,8.0209,8.0209,8.0209,8.0209,8.0209,8.0209,8.0209,8.0209,8.0209,8.0209,8.0209,8.0209,8.0209,8.0209,8.0209,8.0209,8.0209,8.0209,6.7059,6.7943,6.8808,6.933,6.9646,6.9964,7.0492,7.0492,7.0492,7.0939,7.1345,7.1819,7.2326,0.0,0.0,0.0,7.5033,7.5709,7.6758,7.7299,0.0,0.0,0.0,0.0,0.0,0.0,0.0,0.0,0.0,0.0,0.0,8.0479,8.0209,8.0209,8.0209,8.0209,8.0209,8.0209,8.031,8.0547,8.0547,8.0412,8.0209,8.0209,8.0209,8.0209,8.0209,8.0209,8.0209,8.0209,8.0209,8.0209,8.0209,8.0209,8.0209,8.0209,8.0209,8.0209,8.0209,8.0209,8.0209,8.0209,8.0344,8.0547,8.0547,8.0716,8.0885,8.0885,8.0885,8.0885,8.0885,8.0547,8.0209,8.0209,8.0209,8.0209,8.0209,8.0209,8.0209,8.0209,8.0209,8.0209,8.0209,8.0209,8.0276,8.0513,8.0547,8.0615,8.0851,8.0885,8.0885,8.0885,8.0885,8.0885,8.0885,8.0885,8.0885,8.0885,8.0885,8.0784,8.0547,8.0784,8.0885,8.0885,8.0885,8.0885,8.0885,8.0885,8.0885,8.0885,8.0885,8.0885,6.8307,6.8728,6.8941,6.9963,6.9988,7.0011,7.0733,7.0526,7.0386,7.1154,7.1921,7.2428,7.2428,0.0,0.0,0.0,0.0,7.6893,7.6927,7.8179,7.9126,0.0,0.0,0.0,0.0,0.0,0.0,0.0,0.0,0.0,0.0,8.0209,8.0209,8.0209,8.0209,8.0209,8.0209,8.0209,8.0581,8.1317,8.1317,8.0919,8.0209,8.0209,8.0209,8.0209,8.0209,8.0209,8.0209,8.0209,8.0209,8.0209,8.0209,8.0209,8.0209,8.0209,8.0209,8.0209,8.0209,8.0209,8.0209,8.0209,8.0716,8.1317,8.1317,8.1832,8.2408,8.2408,8.2408,8.2408,8.2408,8.1325,8.0209,8.0209,8.0209,8.0209,8.0209,8.0209,8.0209,8.0209,8.0209,8.0209,8.0209,8.0209,8.0479,8.1215,8.1317,8.1562,8.2306,8.2408,8.2408,8.2408,8.2408,8.2408,8.2408,8.2408,8.2408,8.2408,8.2408,8.2069,8.1351,8.2002,8.2408,8.2408,8.2408,8.2408,8.2408,8.2408,8.2408,8.2408,8.2408,8.2408,6.8572,6.921,6.9793,6.9874,6.9988,7.0176,7.0549,7.0492,7.0729,7.1841,7.2527,7.3133,7.3802,0.0,0.0,0.0,0.0,0.0,7.8314,7.8797,7.9498,8.0513,0.0,0.0,0.0,0.0,0.0,0.0,0.0,0.0,0.0,8.0209,8.0209,8.0209,8.0682,8.0953,8.0953,8.1494,8.1866,8.2069,8.2069,8.1968,8.1765,8.1765,8.1765,8.1765,8.1765,8.1765,8.1765,8.1765,8.1765,8.1765,8.1765,8.1765,8.1765,8.1765,8.1765,8.1765,8.1765,8.1765,8.1765,8.1765,8.19,8.2069,8.2069,8.2238,8.2408,8.2408,8.2408,8.2408,8.2408,8.2103,8.1765,8.1765,8.1765,8.1765,8.1765,8.1765,8.1765,8.1765,8.1765,8.1765,8.1765,8.1765,8.1832,8.2035,8.2069,8.2171,8.2374,8.2408,8.2408,8.2408,8.2408,8.2408,8.2408,8.2408,8.2408,8.2408,8.2881,8.2847,8.2103,8.2306,8.2408,8.2408,8.2408,8.2408,8.2408,8.2408,8.2408,8.2408,8.2408,8.2408,6.9083,6.9656,7.0176,7.0106,7.0153,7.0336,7.0953,7.1159,0.0,0.0,7.32,7.3898,7.4478,7.51,0.0,0.0,0.0,0.0,0.0,7.9363,7.987,8.075,8.0851,0.0,0.0,0.0,0.0,0.0,0.0,0.0,0.0,8.0209,8.031,8.0615,8.108,8.1426,8.1731,8.2171,8.2543,8.2847,8.2847,8.3016,8.3227,8.2652,8.2408,8.2408,8.2408,8.2408,8.2408,8.2408,8.2408,8.2408,8.2408,8.2408,8.2408,8.2408,8.2408,8.2408,8.2408,8.2408,8.2408,8.2408,8.2611,8.2847,8.2847,8.305,8.3261,8.3261,8.3261,8.3261,8.3261,8.3261,8.3126,8.2543,8.2408,8.2408,8.2408,8.2408,8.2408,8.2408,8.2408,8.2408,8.2408,8.2408,8.2509,8.278,8.3118,8.3261,8.3261,8.3261,8.3261,8.3261,8.3261,8.3261,8.3261,8.3261,8.3261,8.3261,8.3693,8.3761,8.3295,8.3261,8.3261,8.3261,8.3261,8.3261,8.3261,8.3261,8.3261,8.3261,8.3261,8.3261,6.967,7.0011,7.027,7.0423,7.0396,7.064,7.1934,7.2414,7.2708,7.314,0.0,7.4705,7.4796,7.5946,7.6927,7.7096,0.0,0.0,0.0,0.0,8.0209,8.0209,8.0209,0.0,0.0,0.0,0.0,0.0,0.0,0.0,0.0,8.0242,8.0615,8.1283,8.1452,8.1799,8.2509,8.2577,8.2949,8.3592,8.3592,8.3964,8.4546,8.3193,8.2584,8.2584,8.2584,8.2584,8.2584,8.2584,8.2584,8.2584,8.2584,8.2584,8.2584,8.2584,8.2584,8.2584,8.2584,8.2584,8.2584,8.2584,8.305,8.3592,8.3592,8.4065,8.4614,8.4614,8.4614,8.4614,8.4614,8.4614,8.4242,8.2923,8.2584,8.2584,8.2584,8.2584,8.2584,8.2584,8.2584,8.2584,8.2584,8.2584,8.2847,8.349,8.4174,8.4614,8.4614,8.4614,8.4614,8.4614,8.4614,8.4614,8.4614,8.4614,8.4614,8.4614,8.4614,8.4614,8.4614,8.4614,8.4614,8.4614,8.4614,8.4614,8.4614,8.4614,8.4614,8.4614,8.4614,8.4614,6.9789,7.0129,7.0399,7.0293,7.0797,7.1731,7.3427,7.3791,7.3895,7.4205,7.4918,7.5676,7.6284,7.669,7.7266,7.845,7.8864,7.9295,0.0,0.0,0.0,8.0209,8.0209,0.0,0.0,0.0,0.0,0.0,0.0,0.0,8.0209,8.075,8.1148,8.1317,8.2408,8.3084,8.3253,8.3836,8.4208,0.0,8.4343,8.4444,8.458,8.4275,8.414,8.414,8.414,8.414,8.414,8.414,8.414,8.414,8.414,8.414,8.414,8.414,8.414,8.414,8.414,8.414,8.414,8.414,8.4242,8.4343,8.4343,8.4478,8.4614,8.4614,8.4614,8.4614,8.4614,8.4614,8.4512,8.4208,8.414,8.414,8.414,8.414,8.414,8.414,8.414,8.414,8.414,8.414,8.4174,8.4343,8.4512,8.4614,8.4614,8.4614,8.4614,8.4614,8.4614,8.4614,8.4614,8.4614,8.4614,8.4614,8.4614,8.4614,8.4614,8.4614,8.4614,8.4614,8.4614,8.4614,8.4614,8.4614,8.4614,8.4614,8.4614,8.4614,6.9846,7.0082,7.0407,7.0666,7.162,7.2811,7.3979,7.4579,7.5069,7.5584,7.6014,7.6386,7.6826,7.7468,7.8213,7.8966,7.9397,7.9769,8.0141,0.0,0.0,8.0209,8.0209,0.0,0.0,0.0,0.0,0.0,0.0,8.0344,8.0716,8.1088,8.1621,8.2306,8.3084,8.3659,8.4031,8.4411,8.4614,8.4614,8.4614,8.4614,8.4614,8.4614,8.4614,8.4614,8.4614,8.4614,8.4614,8.4614,8.4614,8.4614,8.4614,8.4614,8.4614,8.4614,8.4614,8.4614,8.4614,8.4614,8.4614,8.4614,8.4614,8.4614,8.4614,8.4614,8.4614,8.4614,8.4614,8.4614,8.4614,8.4614,8.4614,8.4614,8.4614,8.4614,8.4614,8.4614,8.4614,8.4614,8.4614,8.4614,8.4614,8.4614,8.4614,8.4614,8.4614,8.4614,8.4614,8.4614,8.4614,8.4614,8.4614,8.4614,8.4614,8.4614,8.4614,8.4614,8.4614,8.4614,8.4614,8.4614,8.4614,8.4614,8.4614,8.4614,8.4614,8.4614,8.4614,8.4614,8.4614,8.4614,6.9869,7.0087,7.0599,7.1404,7.2579,7.3685,7.4262,7.5123,7.6034,7.6758,7.6893,7.6995,7.7232,7.828,7.916,7.9295,7.9803,8.0209,8.0209,8.0209,8.0209,8.0209,8.0209,0.0,0.0,0.0,0.0,0.0,0.0,8.0648,8.1283,8.1554,8.2264,8.3456,8.3625,8.3998,8.458,8.4614,8.4614,8.4614,8.4614,8.4614,8.4614,8.4614,8.4614,8.4614,8.4614,8.4614,8.4614,8.4614,8.4614,8.4614,8.4614,8.4614,8.4614,8.4614,8.4614,8.4614,8.4614,8.4614,8.4614,8.4614,8.4614,8.4614,8.4614,8.4614,8.4614,8.4614,8.4614,8.4614,8.4614,8.4614,8.4614,8.4614,8.4614,8.4614,8.4614,8.4614,8.4614,8.4614,8.4614,8.4614,8.4614,8.4614,8.4614,8.4614,8.4614,8.4614,8.4614,8.4614,8.4614,8.4614,8.4614,8.4614,8.4614,8.4614,8.4614,8.4614,8.4614,8.4614,8.4614,8.4614,8.4614,8.4614,8.4614,8.4614,8.4614,8.4614,8.4614,8.4614,8.4614,8.4614,6.9822,7.0453,7.1437,7.2589,7.3294,7.4008,7.494,7.5787,7.6491,0.0,7.6893,7.7299,7.8585,7.8991,7.9329,7.9938,8.0141,8.0209,8.0209,8.0209,8.0209,8.0209,8.0209,8.0209,0.0,0.0,0.0,0.0,8.0784,8.1215,8.1317,8.2509,8.3287,8.349,8.4133,8.4512,8.4614,8.4614,8.4614,8.4614,8.4614,8.4614,8.4614,8.4614,8.4614,8.4614,8.4614,8.4614,8.4614,8.4614,8.4614,8.4614,8.4614,8.4614,8.4614,8.4614,8.4614,8.4614,8.4614,8.4614,8.4614,8.4614,8.4614,8.4614,8.4614,8.4614,8.4614,8.4614,8.4614,8.4614,8.4614,8.4614,8.4614,8.4614,8.4614,8.4614,8.4614,8.4614,8.4614,8.4614,8.4614,8.4614,8.4614,8.4614,8.4614,8.4614,8.4614,8.4614,8.4614,8.4614,8.4614,8.4614,8.4614,8.4614,8.4614,8.4614,8.4614,8.4614,8.4614,8.4614,8.4614,8.4614,8.4614,8.4614,8.4614,8.4614,8.4614,8.4614,8.4614,8.4614,8.4614,8.4614,6.9026,6.9706,7.0723,7.2295,7.3366,7.4325,7.5476,7.6234,7.7008,7.7951,7.8145,7.8348,7.8966,7.9431,7.9837,8.0141,8.0209,8.0209,8.0209,8.0209,8.0209,8.0209,8.0209,8.0209,0.0,0.0,0.0,0.0,8.1114,8.1655,8.2475,8.3152,8.3693,8.4099,8.4411,8.4614,8.4614,8.4614,8.4614,8.4614,8.4614,8.4614,8.4614,8.4614,8.4614,8.4614,8.4614,8.4614,8.4614,8.4614,8.4614,8.4614,8.4614,8.4614,8.4614,8.4614,8.4614,8.4614,8.4614,8.4614,8.4614,8.4614,8.4614,8.4614,8.4614,8.4614,8.4614,8.4614,8.4614,8.4614,8.4614,8.4614,8.4614,8.4614,8.4614,8.4614,8.4614,8.4614,8.4614,8.4614,8.4614,8.4614,8.4614,8.4614,8.4614,8.4614,8.4614,8.4614,8.4614,8.4614,8.4614,8.4614,8.4614,8.4614,8.4614,8.4614,8.4614,8.4614,8.4614,8.4614,8.4614,8.4614,8.4614,8.4614,8.4614,8.4614,8.4614,8.4614,8.4614,8.4614,8.4614,8.4614,6.842,6.8903,6.974,7.1524,7.2958,7.4302,7.5772,7.6662,7.7536,7.8855,7.9261,7.9397,7.9397,7.9837,8.0209,8.0209,8.0209,8.0209,8.0209,8.0209,8.0209,8.0209,8.0209,8.0209,8.0209,0.0,0.0,0.0,8.1655,8.234,8.3422,8.3693,8.4031,8.458,8.4614,8.4614,8.4614,8.4614,8.4614,8.4614,8.4614,8.4614,8.4614,8.4614,8.4614,8.4614,8.4614,8.4614,8.4614,8.4614,8.4614,8.4614,8.4614,8.4614,8.4614,8.4614,8.4614,8.4614,8.4614,8.4614,8.4614,8.4614,8.4614,8.4614,8.4614,8.4614,8.4614,8.4614,8.4614,8.4614,8.4614,8.4614,8.4614,8.4614,8.4614,8.4614,8.4614,8.4614,8.4614,8.4614,8.4614,8.4614,8.4614,8.4614,8.4614,8.4614,8.4614,8.4614,8.4614,8.4614,8.4614,8.4614,8.4614,8.4614,8.4614,8.4614,8.4614,8.4614,8.4614,8.4614,8.4614,8.4614,8.4614,8.4614,8.4614,8.4614,8.4614,8.4614,8.4614,8.4614,8.4614,8.4614,6.842,6.8511,6.894,7.0389,7.2029,7.3738,7.5648,7.7066,7.8145,7.8957,7.9667,8.0141,8.0141,8.0175,8.0209,8.0209,8.0209,8.0209,8.0209,8.0209,8.0209,8.0209,8.0209,8.0209,8.0209,0.0,0.0,0.0,8.2577,8.3422,8.349,8.4167,8.4546,8.4614,8.4614,8.4614,8.4614,8.4614,8.4614,8.4614,8.4614,8.4614,8.4614,8.4614,8.4614,8.4614,8.4614,8.4614,8.4614,8.4614,8.4614,8.4614,8.4614,8.4614,8.4614,8.4614,8.4614,8.4614,8.4614,8.4614,8.4614,8.4614,8.4614,8.4614,8.4614,8.4614,8.4614,8.4614,8.4614,8.4614,8.4614,8.4614,8.4614,8.4614,8.4614,8.4614,8.4614,8.4614,8.4614,8.4614,8.4614,8.4614,8.4614,8.4614,8.4614,8.4614,8.4614,8.4614,8.4614,8.4614,8.4614,8.4614,8.4614,8.4614,8.4614,8.4614,8.4614,8.4614,8.4614,8.4614,8.4614,8.4614,8.4614,8.4614,8.4614,8.4614,8.4614,8.4614,8.4614,8.4614,8.4614,8.4614,6.7356,6.7938,6.8676,6.9372,7.1382,7.3644,7.5278,7.686,7.8348,7.9566,8.0006,8.0209,8.0209,8.0209,8.0209,8.0209,8.0209,8.0209,8.0209,8.0209,8.0209,8.0209,8.0209,8.0209,8.0209,8.0877,0.0,0.0,0.0,8.3693,8.42,8.4444,8.4614,8.4614,8.4614,8.4614,8.4614,8.4614,8.4614,8.4614,8.4614,8.4614,8.4614,8.4614,8.4614,8.4614,8.4614,8.4614,8.4614,8.4614,8.4614,8.4614,8.4614,8.4614,8.4614,8.4614,8.4614,8.4614,8.4614,8.4614,8.4614,8.4614,8.4614,8.4614,8.4614,8.4614,8.4614,8.4614,8.4614,8.4614,8.4614,8.4614,8.4614,8.4614,8.4614,8.4614,8.4614,8.4614,8.4614,8.4614,8.4614,8.4614,8.4614,8.4614,8.4614,8.4614,8.4614,8.4614,8.4614,8.4614,8.4614,8.4614,8.4614,8.4614,8.4614,8.4614,8.4614,8.4614,8.4614,8.4614,8.4614,8.4614,8.4614,8.4614,8.4614,8.4614,8.4614,8.4614,8.4614,8.4614,8.4614,8.4614,6.7127,6.7517,6.8029,6.8552,7.0636,7.3128,7.5128,7.6824,7.8416,7.9904,8.0209,8.0209,8.0209,8.0209,8.0209,8.0209,8.0209,8.0209,8.0209,8.0209,8.0209,8.0209,8.0209,8.0209,8.0209,8.1088,0.0,0.0,0.0,0.0,8.458,8.4614,8.4614,8.4614,8.4614,8.4614,8.4614,8.4614,8.4614,8.4614,8.4614,8.4614,8.4614,8.4614,8.4614,8.4614,8.4614,8.4614,8.4614,8.4614,8.4614,8.4614,8.4614,8.4614,8.4614,8.4614,8.4614,8.4614,8.4614,8.4614,8.4614,8.4614,8.4614,8.4614,8.4614,8.4614,8.4614,8.4614,8.4614,8.4614,8.4614,8.4614,8.4614,8.4614,8.4614,8.4614,8.4614,8.4614,8.4614,8.4614,8.4614,8.4614,8.4614,8.4614,8.4614,8.4614,8.4614,8.4614,8.4614,8.4614,8.4614,8.4614,8.4614,8.4614,8.4614,8.4614,8.4614,8.4614,8.4614,8.4614,8.4614,8.4614,8.4614,8.4614,8.4614,8.4614,8.4614,8.4614,8.4614,8.4614,8.4614,8.4614,0.0,0.0,0.0,6.8057,6.9863,7.218,7.5181,7.6959,7.8357,7.987,8.0175,8.0209,8.0209,8.0209,8.0209,8.0209,8.0209,8.0209,8.0209,8.0209,8.0209,8.0209,8.0209,8.0209,8.0242,8.1562,8.2408,0.0,8.3768,8.4614,8.4614,8.4614,8.4614,8.4614,8.4614,8.4614,8.4614,8.4614,8.4614,8.4614,8.4614,8.4614,8.4614,8.4614,8.4614,8.4614,8.4614,8.4614,8.4614,8.4614,8.4614,8.4614,8.4614,8.4614,8.4614,8.4614,8.4614,8.4614,8.4614,8.4614,8.4614,8.4614,8.4614,8.4614,8.4614,8.4614,8.4614,8.4614,8.4614,8.4614,8.4614,8.4614,8.4614,8.4614,8.4614,8.4614,8.4614,8.4614,8.4614,8.4614,8.4614,8.4614,8.4614,8.4614,8.4614,8.4614,8.4614,8.4614,8.4614,8.4614,8.4614,8.4614,8.4614,8.4614,8.4614,8.4614,8.4614,8.4614,8.4614,8.4614,8.4614,8.4614,8.4614,8.4614,8.4614,8.4614,8.4614,8.4614,8.4614,8.4614,8.4614,8.4614,6.8066,0.0,0.0,0.0,0.0,0.0,7.4517,7.593,7.7244,7.9044,7.9837,8.0209,8.0209,8.0209,8.0209,8.0209,8.0209,8.0209,8.0209,8.0209,8.0209,8.0209,8.0209,8.0412,8.0919,8.1866,8.2644,0.0,8.4072,8.4614,8.4614,8.4614,8.4614,8.4614,8.4614,8.4614,8.4614,8.4614,8.4614,8.4614,8.4614,8.4614,8.4614,8.4614,8.4614,8.4614,8.4614,8.4614,8.4614,8.4614,8.4614,8.4614,8.4614,8.4614,8.4614,8.4614,8.4614,8.4614,8.4614,8.4614,8.4614,8.4614,8.4614,8.4614,8.4614,8.4614,8.4614,8.4614,8.4614,8.4614,8.4614,8.4614,8.4614,8.4614,8.4614,8.4614,8.4614,8.4614,8.4614,8.4614,8.4614,8.4614,8.4614,8.4614,8.4614,8.4614,8.4614,8.4614,8.4614,8.4614,8.4614,8.4614,8.4614,8.4614,8.4614,8.4614,8.4614,8.4614,8.4614,8.4614,8.4614,8.4614,8.4614,8.4614,8.4614,8.4614,8.4614,8.4614,8.4614,8.4614,8.4614,8.4614,0.0,0.0,0.0,0.0,0.0,0.0,7.4411,7.561,7.6845,7.8699,7.9701,8.0209,8.0209,8.0209,8.0209,8.0209,8.0209,8.0209,8.0209,8.0209,8.0209,8.0209,8.0209,8.0479,8.1249,8.1968,8.2712,8.3422,8.42,8.4614,8.4614,8.4614,8.4614,8.4614,8.4614,8.4614,8.4614,8.4614,8.4614,8.4614,8.4614,8.4614,8.4614,8.4614,8.4614,8.4614,8.4614,8.4614,8.4614,8.4614,8.4614,8.4614,8.4614,8.4614,8.4614,8.4614,8.4614,8.4614,8.4614,8.4614,8.4614,8.4614,8.4614,8.4614,8.4614,8.4614,8.4614,8.4614,8.4614,8.4614,8.4614,8.4614,8.4614,8.4614,8.4614,8.4614,8.4614,8.4614,8.4614,8.4614,8.4614,8.4614,8.4614,8.4614,8.4614,8.4614,8.4614,8.4614,8.4614,8.4614,8.4614,8.4614,8.4614,8.4614,8.4614,8.4614,8.4614,8.4614,8.4614,8.4614,8.4614,8.4614,8.4614,8.4614,8.4614,8.4614,8.4614,8.4614,8.4614,8.4614,8.4614,8.4614,0.0,0.0,0.0,0.0,0.0,0.0,7.4673,7.5757,7.6812,7.8597,7.9634,8.0209,8.0209,8.0209,8.0209,8.0209,8.0209,8.0209,8.0209,8.0209,8.0209,8.0209,8.0209,8.0479,8.1249,8.1968,8.2712,8.3422,8.42,8.4614,8.4614,8.4614,8.4614,8.4614,8.4614,8.4614,8.4614,8.4614,8.4614,8.4614,8.4614,8.4614,8.4614,8.4614,8.4614,8.4614,8.4614,8.4614,8.4614,8.4614,8.4614,8.4614,8.4614,8.4614,8.4614,8.4614,8.4614,8.4614,8.4614,8.4614,8.4614,8.4614,8.4614,8.4614,8.4614,8.4614,8.4614,8.4614,8.4614,8.4614,8.4614,8.4614,8.4614,8.4614,8.4614,8.4614,8.4614,8.4614,8.4614,8.4614,8.4614,8.4614,8.4614,8.4614,8.4614,8.4614,8.4614,8.4614,8.4614,8.4614,8.4614,8.4614,8.4614,8.4614,8.4614,8.4614,8.4614,8.4614,8.4614,8.4614,8.4614,8.4614,8.4614,8.4614,8.4614,8.4614,8.4614,8.4614,8.4614,8.4614,8.4614,8.4614,0.0,0.0,0.0,0.0,0.0,0.0,7.5289,7.5957,7.6678,7.7947,7.9261,8.0209,8.0209,8.0209,8.0209,8.0209,8.0209,8.0209,8.0209,8.0209,8.0209,8.0209,8.0209,8.0479,8.1249,8.1968,8.2712,8.3422,8.42,8.4614,8.4614,8.4614,8.4614,8.4614,8.4614,8.4614,8.4614,8.4614,8.4614,8.4614,8.4614,8.4614,8.4614,8.4614,8.4614,8.4614,8.4614,8.4614,8.4614,8.4614,8.4614,8.4614,8.4614,8.4614,8.4614,8.4614,8.4614,8.4614,8.4614,8.4614,8.4614,8.4614,8.4614,8.4614,8.4614,8.4614,8.4614,8.4614,8.4614,8.4614,8.4614,8.4614,8.4614,8.4614,8.4614,8.4614,8.4614,8.4614,8.4614,8.4614,8.4614,8.4614,8.4614,8.4614,8.4614,8.4614,8.4614,8.4614,8.4614,8.4614,8.4614,8.4614,8.4614,8.4614,8.4614,8.4614,8.4614,8.4614,8.4614,8.4614,8.4614,8.4614,8.4614,8.4614,8.4614,8.4614,8.4614,8.4614,8.4614,8.4614,8.4614,8.4614,0.0,0.0,0.0,7.4571,0.0,0.0,0.0,7.6006,7.6612,7.7779,7.916,8.0209,8.0209,8.0209,8.0209,8.0209,8.0209,8.0209,8.0209,8.0209,8.0209,8.0209,8.0209,8.0479,8.1249,8.1629,8.2306,8.3422,8.42,8.4614,8.4614,8.4614,8.4614,8.4614,8.4614,8.4614,8.4614,8.4614,8.4614,8.4614,8.4614,8.4614,8.4614,8.4614,8.4614,8.4614,8.4614,8.4614,8.4614,8.4614,8.4614,8.4614,8.4614,8.4614,8.4614,8.4614,8.4614,8.4614,8.4614,8.4614,8.4614,8.4614,8.4614,8.4614,8.4614,8.4614,8.4614,8.4614,8.4614,8.4614,8.4614,8.4614,8.4614,8.4614,8.4614,8.4614,8.4614,8.4614,8.4614,8.4614,8.4614,8.4614,8.4614,8.4614,8.4614,8.4614,8.4614,8.4614,8.4614,8.4614,8.4614,8.4614,8.4614,8.4614,8.4614,8.4614,8.4614,8.4614,8.4614,8.4614,8.4614,8.4614,8.4614,8.4614,8.4614,8.4614,8.4614,8.4614,8.4614,8.4614,8.4614,8.4614,0.0,0.0,0.0,0.0,0.0,7.4797,0.0,0.0,0.0,7.8031,7.9261,8.0209,8.0209,8.0209,0.0,7.9803,0.0,0.0,0.0,8.0006,0.0,8.0209,8.0209,8.0412,8.1046,8.1325,8.2035,8.3389,8.42,8.4614,8.4614,8.4614,8.4614,8.4614,8.4614,8.4614,8.4614,8.4614,8.4614,8.4614,8.4614,8.4614,8.4614,8.4614,8.4614,8.4614,8.4614,8.4614,8.4614,8.4614,8.4614,8.4614,8.4614,8.4614,8.4614,8.4614,8.4614,8.4614,8.4614,8.4614,8.4614,8.4614,8.4614,8.4614,8.4614,8.4614,8.4614,8.4614,8.4614,8.4614,8.4614,8.4614,8.4614,8.4614,8.4614,8.4614,8.4614,8.4614,8.4614,8.4614,8.4614,8.4614,8.4614,8.4614,8.4614,8.4614,8.4614,8.4614,8.4614,8.4614,8.4614,8.4614,8.4614,8.4614,8.4614,8.4614,8.4614,8.4614,8.4614,8.4614,8.4614,8.4614,8.4614,8.4614,8.4614,8.4614,8.4614,8.4614,8.4614,8.4614,8.4614,8.4614,0.0,0.0,0.0,0.0,7.6121,0.0,0.0,0.0,7.8807,7.8966,0.0,0.0,0.0,0.0,0.0,0.0,0.0,0.0,7.8416,7.9363,8.0209,8.0209,8.0209,8.0242,8.031,8.1528,8.2611,8.3422,8.42,8.4614,8.4614,8.4614,8.4614,8.4614,8.4614,8.4614,8.4614,8.4614,8.4614,8.4614,8.4614,8.4614,8.4614,8.4614,8.4614,8.4614,8.4614,8.4614,8.4614,8.4614,8.4614,8.4614,8.4614,8.4614,8.4614,8.4614,8.4614,8.4614,8.4614,8.4614,8.4614,8.4614,8.4614,8.4614,8.4614,8.4614,8.4614,8.4614,8.4614,8.4614,8.4614,8.4614,8.4614,8.4614,8.4614,8.4614,8.4614,8.4614,8.4614,8.4614,8.4614,8.4614,8.4614,8.4614,8.4614,8.4614,8.4614,8.4614,8.4614,8.4614,8.4614,8.4614,8.4614,8.4614,8.4614,8.4614,8.4614,8.4614,8.4614,8.4614,8.4614,8.4614,8.4614,8.4614,8.4614,8.4614,8.4614,8.4614,8.4614,8.4614,8.4614,8.4614,0.0,0.0,0.0,0.0,0.0,0.0,0.0,0.0,7.9101,0.0,0.0,0.0,0.0,0.0,0.0,0.0,7.9803,0.0,0.0,0.0,8.0209,0.0,0.0,0.0,8.0209,8.1528,8.2543,8.2847,8.3937,8.4614,8.4614,8.4614,8.4614,8.4614,8.4614,8.4614,8.4614,8.4614,8.4614,8.4614,8.4614,8.4614,8.4614,8.4614,8.4614,8.4614,8.4614,8.4614,8.4614,8.4614,8.4614,8.4614,8.4614,8.4614,8.4614,8.4614,8.4614,8.4614,8.4614,8.4614,8.4614,8.4614,8.4614,8.4614,8.4614,8.4614,8.4614,8.4614,8.4614,8.4614,8.4614,8.4614,8.4614,8.4614,8.4614,8.4614,8.4614,8.4614,8.4614,8.4614,8.4614,8.4614,8.4614,8.4614,8.4614,8.4614,8.4614,8.4614,8.4614,8.4614,8.4614,8.4614,8.4614,8.4614,8.4614,8.4614,8.4614,8.4614,8.4614,8.4614,8.4614,8.4614,8.4614,8.4614,8.4614,8.4614,8.4614,8.4614,8.4614,8.4614,8.4614,8.4614,7.828,0.0,0.0,0.0,0.0,0.0,0.0,0.0,0.0,0.0,0.0,0.0,0.0,0.0,0.0,0.0,0.0,8.0073,0.0,7.9938,0.0,0.0,0.0,0.0,0.0,8.1359,8.2171,8.2408,8.3565,8.4377,8.458,8.4614,8.4614,8.4614,8.4614,8.4614,8.4614,8.4614,8.4614,8.4614,8.4614,8.4614,8.4614,8.4614,8.4614,8.4614,8.4614,8.4614,8.4614,8.4614,8.4614,8.4614,8.4614,8.4614,8.4614,8.4614,8.4614,8.4614,8.4614,8.4614,8.4614,8.4614,8.4614,8.4614,8.4614,8.4614,8.4614,8.4614,8.4614,8.4614,8.4614,8.4614,8.4614,8.4614,8.4614,8.4614,8.4614,8.4614,8.4614,8.4614,8.4614,8.4614,8.4614,8.4614,8.4614,8.4614,8.4614,8.4614,8.4614,8.4614,8.4614,8.4614,8.4614,8.4614,8.4614,8.4614,8.4614,8.4614,8.4614,8.4614,8.4614,8.4614,8.4614,8.4614,8.4614,8.4614,8.4614,8.4614,8.4614,8.4614,8.4614,8.4614,0.0,0.0,0.0,0.0,0.0,0.0,0.0,0.0,8.0175,0.0,0.0,0.0,0.0,0.0,0.0,0.0,0.0,0.0,0.0,0.0,0.0,0.0,0.0,0.0,0.0,8.0885,8.1629,8.2374,8.3118,8.3862,8.4546,8.4614,8.4614,8.4614,8.4614,8.4614,8.4614,8.4614,8.4614,8.4614,8.4614,8.4614,8.4614,8.4614,8.4614,8.4614,8.4614,8.4614,8.4614,8.4614,8.4614,8.4614,8.4614,8.4614,8.4614,8.4614,8.4614,8.4614,8.4614,8.4614,8.4614,8.4614,8.4614,8.4614,8.4614,8.4614,8.4614,8.4614,8.4614,8.4614,8.4614,8.4614,8.4614,8.4614,8.4614,8.4614,8.4614,8.4614,8.4614,8.4614,8.4614,8.4614,8.4614,8.4614,8.4614,8.4614,8.4614,8.4614,8.4614,8.4614,8.4614,8.4614,8.4614,8.4614,8.4614,8.4614,8.4614,8.4614,8.4614,8.4614,8.4614,8.4614,8.4614,8.4614,8.4614,8.4614,8.4614,8.4614,8.4614,8.4614,8.4614,8.4614,0.0,0.0,7.9464,7.9464,0.0,0.0,0.0,0.0,0.0,0.0,0.0,0.0,0.0,0.0,0.0,0.0,0.0,0.0,0.0,0.0,0.0,0.0,0.0,0.0,0.0,0.0,8.1596,8.234,8.3084,8.3828,8.4546,8.4614,8.4614,8.4614,8.4614,8.4614,8.4614,8.4614,8.4614,8.4614,8.4614,8.4614,8.4614,8.4614,8.4614,8.4614,8.4614,8.4614,8.4614,8.4614,8.4614,8.4614,8.4614,8.4614,8.4614,8.4614,8.4614,8.4614,8.4614,8.4614,8.4614,8.4614,8.4614,8.4614,8.4614,8.4614,8.4614,8.4614,8.4614,8.4614,8.4614,8.4614,8.4614,8.4614,8.4614,8.4614,8.4614,8.4614,8.4614,8.4614,8.4614,8.4614,8.4614,8.4614,8.4614,8.4614,8.4614,8.4614,8.4614,8.4614,8.4614,8.4614,8.4614,8.4614,8.4614,8.4614,8.4614,8.4614,8.4614,8.4614,8.4614,8.4614,8.4614,8.4614,8.4614,8.4614,8.4614,8.4614,8.4614,8.4614,8.4614,8.4614,8.0648,8.0581,0.0,8.0276,8.0209,0.0,8.0209,0.0,0.0,0.0,0.0,0.0,0.0,0.0,0.0,0.0,0.0,0.0,0.0,8.0209,0.0,0.0,0.0,0.0,0.0,0.0,8.1325,8.234,8.2847,8.3558,0.0,8.4614,8.4614,8.4614,8.4614,8.4614,8.4614,8.4614,8.4614,8.4614,8.4614,8.4614,8.4614,8.4614,8.4614,8.4614,8.4614,8.4614,8.4614,8.4614,8.4614,8.4614,8.4614,8.4614,8.4614,8.4614,8.4614,8.4614,8.4614,8.4614,8.4614,8.4614,8.4614,8.4614,8.4614,8.4614,8.4647,8.4945,8.4817,8.4647,8.4952,8.4817,8.4614,8.4614,8.4614,8.4614,8.4614,8.4614,8.4614,8.4614,8.4614,8.4614,8.4614,8.4614,8.4614,8.4614,8.4614,8.4614,8.4614,8.4614,8.4614,8.4614,8.4614,8.4614,8.4614,8.4614,8.4614,8.4614,8.4614,8.4614,8.4614,8.4614,8.4715,8.5046,8.4749,8.4749,8.5046,8.4749,8.4614,8.4614,8.4614,8.4614]}]]